[[{"header":{"parameterUnit":"m.s-1","parameterCategory":1,"la1":31.0,"la2":29.5877,"lo1":-88.7671,"lo2":-86.6584,"dy":0.0162,"dx":0.0185,"nx":115,"ny":88,"refTime":"2023-11-13T06:00:00:Z","depth":0,"parameterNumber":2,"parameterNumberName":"U-component_of_WINDS"},"data":[0.0,0.0,0.0,0.0,0.0,0.0,0.0,0.0,0.0,0.0,0.0,0.0,0.0,0.0,0.0,0.0,0.0,0.0,0.0,0.0,0.0,0.0,0.0,0.0,0.0,0.0,0.0,0.0,0.0,0.0,0.0,0.0,0.0,0.0,0.0,0.0,0.0,0.0,0.0,0.0,0.0,0.0,0.0,0.0,0.0,0.0,0.0,0.0,0.0,0.0,0.0,0.0,0.0,0.0,0.0,0.0,0.0,0.0,0.0,0.0,0.0,0.0,0.0,0.0,0.0,0.0,0.0,0.0,0.0,0.0,0.0,0.0,0.0,0.0,0.0,0.0,0.0,0.0,0.0,0.0,0.0,0.0,0.0,0.0,0.0,0.0,0.0,0.0,0.0,0.0,0.0,0.0,0.0,0.0,0.0,0.0,0.0,0.0,0.0,0.0,0.0,0.0,0.0,0.0,0.0,0.0,0.0,0.0,0.0,0.0,0.0,0.0,0.0,0.0,0.0,0.0,0.0,0.0,0.0,0.0,0.0,0.0,0.0,0.0,0.0,0.0,0.0,0.0,0.0,0.0,0.0,0.0,0.0,0.0,0.0,0.0,0.0,0.0,0.0,0.0,0.0,0.0,0.0,0.0,0.0,0.0,0.0,0.0,0.0,0.0,0.0,0.0,0.0,0.0,0.0,0.0,0.0,0.0,0.0,0.0,0.0,0.0,0.0,0.0,0.0,0.0,0.0,0.0,0.0,0.0,0.0,0.0,0.0,0.0,0.0,0.0,0.0,0.0,0.0,0.0,0.0,0.0,0.0,0.0,0.0,0.0,0.0,0.0,0.0,0.0,0.0,0.0,0.0,0.0,0.0,0.0,0.0,0.0,0.0,0.0,0.0,0.0,0.0,0.0,0.0,0.0,0.0,0.0,0.0,0.0,0.0,0.0,0.0,0.0,0.0,0.0,0.0,0.0,0.0,0.0,0.0,0.0,0.0,0.0,0.0,0.0,0.0,0.0,0.0,0.0,0.0,0.0,0.0,0.0,0.0,0.0,0.0,0.0,0.0,0.0,0.0,0.0,0.0,0.0,0.0,0.0,0.0,0.0,0.0,0.0,0.0,0.0,0.0,0.0,0.0,0.0,0.0,0.0,0.0,0.0,0.0,0.0,0.0,0.0,0.0,0.0,0.0,0.0,0.0,0.0,0.0,0.0,0.0,0.0,0.0,0.0,0.0,0.0,0.0,0.0,0.0,0.0,0.0,0.0,0.0,0.0,0.0,0.0,0.0,0.0,0.0,0.0,0.0,0.0,0.0,0.0,0.0,0.0,0.0,0.0,0.0,0.0,0.0,0.0,0.0,0.0,0.0,0.0,0.0,0.0,0.0,0.0,0.0,0.0,0.0,0.0,0.0,0.0,0.0,0.0,0.0,0.0,0.0,0.0,0.0,0.0,0.0,0.0,0.0,0.0,0.0,0.0,0.0,0.0,0.0,0.0,0.0,0.0,0.0,0.0,0.0,0.0,0.0,0.0,0.0,0.0,0.0,0.0,0.0,0.0,0.0,0.0,0.0,0.0,0.0,0.0,0.0,0.0,0.0,0.0,0.0,0.0,0.0,0.0,0.0,0.0,0.0,0.0,0.0,0.0,0.0,0.0,0.0,0.0,0.0,0.0,0.0,0.0,0.0,0.0,0.0,0.0,0.0,0.0,0.0,0.0,0.0,0.0,0.0,0.0,0.0,0.0,0.0,0.0,0.0,0.0,0.0,0.0,0.0,0.0,0.0,0.0,0.0,0.0,0.0,0.0,0.0,0.0,0.0,0.0,0.0,0.0,0.0,0.0,0.0,0.0,0.0,0.0,0.0,0.0,0.0,0.0,0.0,0.0,0.0,0.0,0.0,0.0,0.0,0.0,0.0,0.0,0.0,0.0,0.0,0.0,0.0,0.0,0.0,0.0,0.0,0.0,0.0,0.0,0.0,0.0,0.0,0.0,0.0,0.0,0.0,0.0,0.0,0.0,0.0,0.0,0.0,0.0,0.0,0.0,0.0,0.0,0.0,0.0,0.0,0.0,0.0,0.0,0.0,0.0,0.0,0.0,0.0,0.0,0.0,0.0,0.0,0.0,0.0,0.0,0.0,0.0,0.0,0.0,0.0,0.0,0.0,0.0,0.0,0.0,0.0,0.0,0.0,0.0,0.0,0.0,0.0,0.0,0.0,0.0,0.0,0.0,0.0,0.0,0.0,0.0,0.0,0.0,0.0,0.0,0.0,0.0,0.0,0.0,0.0,0.0,0.0,0.0,0.0,0.0,0.0,0.0,0.0,0.0,0.0,0.0,0.0,0.0,0.0,0.0,0.0,0.0,0.0,0.0,0.0,0.0,0.0,0.0,0.0,0.0,0.0,0.0,0.0,0.0,0.0,0.0,0.0,0.0,0.0,0.0,0.0,0.0,0.0,0.0,0.0,0.0,0.0,0.0,0.0,0.0,0.0,0.0,0.0,0.0,0.0,0.0,0.0,0.0,0.0,0.0,0.0,0.0,0.0,0.0,0.0,0.0,0.0,0.0,0.0,0.0,0.0,0.0,0.0,0.0,0.0,0.0,0.0,0.0,0.0,0.0,0.0,0.0,0.0,0.0,0.0,0.0,0.0,0.0,0.0,0.0,0.0,0.0,0.0,0.0,0.0,0.0,0.0,0.0,0.0,0.0,0.0,0.0,0.0,0.0,0.0,0.0,0.0,0.0,0.0,0.0,0.0,0.0,0.0,0.0,0.0,0.0,0.0,0.0,0.0,0.0,0.0,0.0,0.0,0.0,0.0,0.0,0.0,0.0,0.0,0.0,0.0,0.0,0.0,0.0,0.0,0.0,0.0,0.0,0.0,0.0,0.0,0.0,0.0,0.0,0.0,0.0,0.0,0.0,0.0,0.0,0.0,0.0,0.0,0.0,0.0,0.0,0.0,0.0,0.0,0.0,0.0,0.0,0.0,0.0,0.0,0.0,0.0,0.0,0.0,0.0,0.0,0.0,0.0,0.0,0.0,0.0,0.0,0.0,0.0,0.0,0.0,0.0,0.0,0.0,0.0,0.0,0.0,0.0,0.0,0.0,0.0,0.0,0.0,0.0,0.0,0.0,0.0,0.0,0.0,0.0,0.0,0.0,0.0,0.0,0.0,0.0,0.0,0.0,0.0,0.0,0.0,0.0,0.0,0.0,0.0,0.0,0.0,0.0,0.0,0.0,0.0,0.0,0.0,0.0,0.0,0.0,0.0,0.0,0.0,0.0,0.0,0.0,0.0,0.0,0.0,0.0,0.0,0.0,0.0,0.0,0.0,0.0,0.0,0.0,0.0,0.0,0.0,0.0,0.0,0.0,0.0,0.0,0.0,0.0,0.0,0.0,0.0,0.0,0.0,0.0,0.0,0.0,0.0,0.0,0.0,0.0,0.0,0.0,0.0,0.0,0.0,0.0,0.0,0.0,0.0,0.0,0.0,0.0,0.0,0.0,0.0,0.0,0.0,0.0,0.0,0.0,0.0,0.0,0.0,0.0,0.0,0.0,0.0,0.0,0.0,0.0,0.0,0.0,0.0,0.0,0.0,0.0,0.0,0.0,0.0,0.0,0.0,0.0,0.0,0.0,0.0,0.0,0.0,0.0,0.0,0.0,0.0,0.0,0.0,0.0,0.0,0.0,0.0,0.0,0.0,0.0,0.0,0.0,0.0,0.0,0.0,0.0,0.0,0.0,0.0,0.0,0.0,0.0,0.0,0.0,0.0,0.0,0.0,0.0,0.0,0.0,0.0,0.0,0.0,0.0,0.0,0.0,0.0,0.0,0.0,0.0,0.0,0.0,0.0,0.0,0.0,0.0,0.0,0.0,0.0,0.0,0.0,0.0,0.0,0.0,0.0,0.0,0.0,0.0,0.0,0.0,0.0,0.0,0.0,0.0,0.0,0.0,0.0,0.0,0.0,0.0,0.0,0.0,0.0,0.0,0.0,0.0,0.0,0.0,0.0,0.0,0.0,0.0,0.0,0.0,0.0,0.0,0.0,0.0,0.0,0.0,0.0,0.0,0.0,0.0,0.0,0.0,0.0,0.0,0.0,0.0,0.0,0.0,0.0,0.0,0.0,0.0,0.0,0.0,0.0,0.0,0.0,0.0,0.0,0.0,0.0,0.0,0.0,0.0,0.0,0.0,0.0,0.0,0.0,0.0,0.0,0.0,0.0,0.0,0.0,0.0,0.0,0.0,0.0,0.0,0.0,0.0,0.0,0.0,0.0,0.0,4.1191,0.0,0.0,0.0,0.0,0.0,0.0,0.0,0.0,0.0,0.0,0.0,0.0,0.0,0.0,0.0,0.0,0.0,0.0,0.0,0.0,0.0,0.0,0.0,0.0,0.0,0.0,0.0,0.0,0.0,0.0,0.0,0.0,0.0,0.0,0.0,0.0,0.0,0.0,0.0,0.0,0.0,0.0,0.0,0.0,0.0,0.0,0.0,0.0,0.0,0.0,0.0,0.0,0.0,0.0,0.0,0.0,0.0,0.0,0.0,0.0,0.0,0.0,0.0,0.0,0.0,0.0,0.0,0.0,0.0,0.0,0.0,0.0,0.0,0.0,0.0,0.0,0.0,0.0,0.0,0.0,0.0,0.0,0.0,0.0,0.0,0.0,0.0,0.0,0.0,0.0,0.0,0.0,0.0,0.0,0.0,0.0,0.0,0.0,0.0,0.0,0.0,0.0,0.0,0.0,0.0,0.0,0.0,0.0,0.0,0.0,4.1191,4.1191,4.1191,4.1191,4.1191,0.0,0.0,0.0,0.0,0.0,0.0,0.0,0.0,0.0,0.0,0.0,0.0,0.0,0.0,0.0,0.0,0.0,0.0,0.0,0.0,0.0,0.0,0.0,0.0,0.0,0.0,0.0,0.0,0.0,0.0,0.0,0.0,0.0,0.0,0.0,0.0,0.0,0.0,0.0,0.0,0.0,0.0,0.0,0.0,0.0,0.0,0.0,0.0,0.0,0.0,0.0,0.0,0.0,0.0,0.0,0.0,0.0,0.0,0.0,0.0,0.0,0.0,0.0,0.0,0.0,0.0,0.0,0.0,0.0,0.0,0.0,0.0,0.0,0.0,0.0,0.0,0.0,0.0,0.0,0.0,0.0,0.0,0.0,0.0,0.0,0.0,0.0,0.0,0.0,0.0,0.0,0.0,0.0,0.0,0.0,0.0,0.0,0.0,0.0,0.0,0.0,0.0,0.0,0.0,0.0,0.0,0.0,0.0,0.0,0.0,0.0,0.0,4.1191,4.1191,4.1191,0.0,0.0,0.0,0.0,0.0,0.0,0.0,0.0,0.0,0.0,0.0,0.0,0.0,0.0,0.0,0.0,0.0,0.0,0.0,0.0,0.0,0.0,0.0,0.0,0.0,0.0,0.0,0.0,0.0,0.0,0.0,0.0,0.0,0.0,0.0,0.0,0.0,0.0,0.0,0.0,0.0,0.0,0.0,0.0,0.0,0.0,0.0,0.0,0.0,0.0,0.0,0.0,0.0,0.0,0.0,0.0,0.0,0.0,0.0,0.0,0.0,0.0,0.0,0.0,0.0,0.0,0.0,0.0,0.0,0.0,0.0,0.0,0.0,0.0,0.0,0.0,0.0,0.0,0.0,0.0,0.0,0.0,0.0,0.0,0.0,0.0,0.0,0.0,0.0,0.0,0.0,0.0,0.0,0.0,0.0,0.0,0.0,0.0,0.0,0.0,0.0,0.0,0.0,0.0,0.0,0.0,0.0,0.0,0.0,0.0,4.1191,4.1191,4.1191,0.0,4.1191,0.0,0.0,0.0,0.0,0.0,0.0,0.0,0.0,0.0,0.0,0.0,0.0,0.0,0.0,0.0,0.0,0.0,0.0,0.0,0.0,0.0,0.0,0.0,0.0,0.0,0.0,0.0,0.0,0.0,0.0,0.0,0.0,0.0,0.0,0.0,0.0,0.0,0.0,0.0,0.0,0.0,0.0,0.0,0.0,0.0,0.0,0.0,0.0,0.0,0.0,0.0,0.0,0.0,0.0,0.0,0.0,0.0,0.0,0.0,0.0,0.0,0.0,0.0,0.0,0.0,0.0,0.0,0.0,0.0,0.0,0.0,0.0,0.0,0.0,0.0,0.0,0.0,0.0,0.0,0.0,0.0,0.0,0.0,0.0,0.0,0.0,0.0,0.0,0.0,0.0,0.0,0.0,0.0,0.0,0.0,0.0,0.0,0.0,0.0,0.0,0.0,0.0,0.0,0.0,0.0,0.0,0.0,0.0,0.0,0.0,4.1191,4.1191,4.1191,4.1191,0.0,0.0,0.0,0.0,0.0,0.0,0.0,0.0,0.0,0.0,0.0,0.0,0.0,0.0,0.0,0.0,0.0,0.0,0.0,0.0,0.0,0.0,0.0,0.0,0.0,0.0,0.0,0.0,0.0,0.0,0.0,0.0,0.0,0.0,0.0,0.0,0.0,0.0,0.0,0.0,0.0,0.0,0.0,0.0,0.0,0.0,0.0,0.0,0.0,0.0,0.0,0.0,0.0,0.0,0.0,0.0,0.0,0.0,0.0,0.0,0.0,0.0,0.0,0.0,0.0,0.0,0.0,0.0,0.0,0.0,0.0,0.0,0.0,0.0,0.0,0.0,0.0,0.0,0.0,0.0,0.0,0.0,0.0,0.0,0.0,0.0,0.0,0.0,0.0,0.0,0.0,0.0,0.0,0.0,0.0,0.0,0.0,0.0,0.0,0.0,0.0,0.0,0.0,0.0,0.0,0.0,0.0,0.0,0.0,0.0,4.1191,4.1308,4.1523,4.1758,4.1875,4.1875,0.0,0.0,0.0,0.0,0.0,0.0,0.0,0.0,0.0,0.0,0.0,0.0,0.0,0.0,0.0,0.0,0.0,0.0,0.0,0.0,0.0,0.0,0.0,0.0,0.0,0.0,0.0,0.0,0.0,0.0,0.0,0.0,0.0,0.0,0.0,0.0,0.0,0.0,0.0,0.0,0.0,0.0,0.0,0.0,0.0,0.0,0.0,0.0,0.0,0.0,0.0,0.0,0.0,0.0,0.0,0.0,0.0,0.0,0.0,0.0,0.0,0.0,0.0,0.0,0.0,0.0,0.0,0.0,0.0,0.0,0.0,0.0,0.0,0.0,0.0,0.0,0.0,0.0,0.0,0.0,0.0,0.0,0.0,0.0,0.0,0.0,0.0,0.0,0.0,0.0,0.0,0.0,0.0,0.0,0.0,0.0,0.0,0.0,0.0,0.0,0.0,0.0,0.0,0.0,0.0,0.0,0.0,0.0,4.1211,4.123,4.1582,4.2344,4.3144,4.3574,0.0,0.0,0.0,0.0,0.0,0.0,0.0,0.0,0.0,0.0,0.0,0.0,0.0,0.0,0.0,0.0,0.0,0.0,0.0,0.0,0.0,0.0,0.0,0.0,0.0,0.0,0.0,0.0,0.0,0.0,0.0,0.0,0.0,0.0,0.0,0.0,0.0,0.0,0.0,0.0,0.0,0.0,0.0,0.0,0.0,0.0,0.0,0.0,0.0,0.0,0.0,0.0,0.0,0.0,0.0,0.0,0.0,0.0,0.0,0.0,0.0,0.0,0.0,0.0,0.0,0.0,0.0,0.0,0.0,0.0,0.0,0.0,0.0,0.0,0.0,0.0,0.0,0.0,0.0,0.0,0.0,0.0,0.0,0.0,0.0,0.0,0.0,0.0,0.0,0.0,0.0,0.0,0.0,0.0,0.0,0.0,0.0,0.0,0.0,0.0,0.0,0.0,0.0,0.0,0.0,0.0,0.0,0.0,0.0,4.1953,4.2519,4.2949,4.3223,4.3535,4.3711,0.0,0.0,0.0,0.0,0.0,0.0,0.0,0.0,0.0,0.0,0.0,0.0,0.0,0.0,0.0,0.0,0.0,0.0,0.0,0.0,0.0,0.0,0.0,0.0,0.0,0.0,0.0,0.0,0.0,0.0,0.0,0.0,0.0,0.0,0.0,0.0,0.0,0.0,0.0,0.0,0.0,0.0,0.0,0.0,0.0,0.0,0.0,0.0,0.0,0.0,0.0,0.0,0.0,0.0,0.0,0.0,0.0,0.0,0.0,0.0,0.0,0.0,0.0,0.0,0.0,0.0,0.0,0.0,0.0,0.0,0.0,0.0,0.0,0.0,0.0,0.0,0.0,0.0,0.0,0.0,0.0,0.0,0.0,0.0,0.0,0.0,0.0,0.0,0.0,0.0,0.0,0.0,0.0,0.0,0.0,0.0,0.0,0.0,0.0,0.0,0.0,0.0,0.0,0.0,0.0,0.0,0.0,0.0,0.0,4.2812,0.0,4.4121,4.4141,4.4394,4.4551,0.0,0.0,0.0,0.0,0.0,0.0,0.0,0.0,0.0,0.0,0.0,0.0,0.0,0.0,0.0,0.0,0.0,0.0,0.0,0.0,0.0,0.0,0.0,0.0,0.0,0.0,0.0,0.0,0.0,0.0,0.0,0.0,0.0,0.0,0.0,0.0,0.0,0.0,0.0,0.0,0.0,0.0,0.0,0.0,0.0,0.0,0.0,0.0,0.0,0.0,0.0,0.0,0.0,0.0,0.0,0.0,0.0,0.0,0.0,0.0,0.0,0.0,0.0,0.0,0.0,0.0,0.0,0.0,0.0,0.0,0.0,0.0,0.0,0.0,0.0,0.0,0.0,0.0,0.0,0.0,0.0,0.0,0.0,0.0,0.0,0.0,0.0,0.0,0.0,0.0,0.0,0.0,0.0,0.0,0.0,0.0,0.0,0.0,0.0,0.0,0.0,0.0,0.0,0.0,0.0,0.0,0.0,0.0,4.2851,4.3691,4.4551,4.5019,4.5039,4.5801,4.625,0.0,0.0,0.0,0.0,0.0,0.0,0.0,0.0,0.0,0.0,0.0,0.0,0.0,0.0,0.0,0.0,0.0,0.0,0.0,0.0,0.0,0.0,0.0,0.0,0.0,0.0,0.0,0.0,0.0,0.0,0.0,0.0,0.0,0.0,0.0,0.0,0.0,0.0,0.0,0.0,0.0,0.0,0.0,0.0,0.0,0.0,0.0,0.0,0.0,0.0,0.0,0.0,0.0,0.0,0.0,0.0,0.0,0.0,0.0,0.0,0.0,0.0,0.0,0.0,0.0,0.0,0.0,0.0,0.0,0.0,0.0,0.0,0.0,0.0,0.0,0.0,0.0,0.0,0.0,0.0,0.0,0.0,0.0,0.0,0.0,0.0,0.0,0.0,0.0,0.0,0.0,0.0,0.0,0.0,0.0,0.0,0.0,0.0,0.0,0.0,0.0,0.0,0.0,0.0,0.0,0.0,0.0,0.0,0.0,4.459,4.5449,4.5898,4.5898,4.6152,4.6289,0.0,0.0,0.0,0.0,0.0,0.0,0.0,0.0,0.0,0.0,0.0,0.0,0.0,0.0,0.0,0.0,0.0,0.0,0.0,0.0,0.0,0.0,0.0,0.0,0.0,0.0,0.0,0.0,0.0,0.0,0.0,0.0,0.0,0.0,0.0,0.0,0.0,0.0,0.0,0.0,0.0,0.0,0.0,0.0,0.0,0.0,0.0,0.0,0.0,0.0,0.0,0.0,0.0,0.0,0.0,0.0,0.0,0.0,0.0,0.0,0.0,0.0,0.0,0.0,0.0,0.0,0.0,0.0,0.0,0.0,0.0,0.0,0.0,0.0,0.0,0.0,0.0,0.0,0.0,0.0,0.0,0.0,0.0,0.0,0.0,0.0,0.0,0.0,0.0,0.0,0.0,0.0,0.0,0.0,0.0,0.0,0.0,0.0,0.0,0.0,0.0,0.0,0.0,0.0,0.0,0.0,0.0,0.0,0.0,4.5508,4.6016,4.6289,4.6289,4.6289,4.6289,4.6289,0.0,0.0,0.0,0.0,0.0,0.0,0.0,0.0,0.0,0.0,0.0,0.0,0.0,0.0,0.0,0.0,0.0,0.0,0.0,0.0,0.0,0.0,0.0,0.0,0.0,0.0,0.0,0.0,0.0,0.0,0.0,0.0,0.0,0.0,0.0,0.0,0.0,0.0,0.0,0.0,0.0,0.0,0.0,0.0,0.0,0.0,0.0,0.0,0.0,0.0,0.0,0.0,0.0,0.0,0.0,0.0,0.0,0.0,0.0,0.0,0.0,0.0,0.0,0.0,0.0,0.0,0.0,0.0,0.0,0.0,0.0,0.0,0.0,0.0,0.0,0.0,0.0,0.0,0.0,0.0,0.0,0.0,0.0,0.0,0.0,0.0,0.0,0.0,0.0,0.0,0.0,0.0,0.0,0.0,0.0,0.0,0.0,0.0,0.0,0.0,0.0,0.0,0.0,0.0,0.0,0.0,0.0,0.0,4.6289,4.6289,4.6289,4.6289,4.6289,4.6289,0.0,0.0,0.0,0.0,0.0,0.0,0.0,0.0,0.0,0.0,0.0,0.0,0.0,0.0,0.0,0.0,0.0,0.0,0.0,0.0,0.0,0.0,0.0,0.0,0.0,0.0,0.0,0.0,0.0,0.0,0.0,0.0,0.0,0.0,0.0,0.0,0.0,0.0,0.0,0.0,0.0,0.0,0.0,0.0,0.0,0.0,0.0,0.0,0.0,0.0,0.0,0.0,0.0,0.0,0.0,0.0,0.0,0.0,0.0,0.0,0.0,0.0,0.0,0.0,0.0,0.0,0.0,0.0,0.0,0.0,0.0,0.0,0.0,0.0,0.0,0.0,0.0,0.0,0.0,0.0,0.0,0.0,0.0,0.0,0.0,0.0,0.0,0.0,0.0,0.0,0.0,0.0,0.0,0.0,0.0,0.0,0.0,0.0,0.0,0.0,0.0,0.0,0.0,0.0,0.0,0.0,0.0,0.0,0.0,4.6289,4.6289,4.6289,4.6289,4.6289,4.6289,0.0,0.0,0.0,0.0,0.0,0.0,0.0,0.0,0.0,0.0,0.0,0.0,0.0,0.0,0.0,0.0,0.0,0.0,0.0,0.0,0.0,0.0,0.0,0.0,0.0,0.0,0.0,0.0,0.0,0.0,0.0,0.0,0.0,0.0,0.0,0.0,0.0,0.0,0.0,0.0,0.0,0.0,0.0,0.0,0.0,0.0,0.0,0.0,0.0,0.0,0.0,0.0,0.0,0.0,0.0,0.0,0.0,0.0,0.0,0.0,0.0,0.0,0.0,0.0,0.0,0.0,0.0,0.0,0.0,0.0,0.0,0.0,0.0,0.0,0.0,0.0,0.0,0.0,0.0,0.0,0.0,0.0,0.0,0.0,0.0,0.0,0.0,0.0,0.0,0.0,0.0,0.0,0.0,0.0,0.0,0.0,0.0,0.0,0.0,0.0,0.0,0.0,0.0,0.0,0.0,0.0,0.0,0.0,4.6289,4.6289,4.6289,4.6289,4.6289,4.6289,4.6289,0.0,0.0,0.0,0.0,0.0,0.0,0.0,0.0,0.0,0.0,0.0,0.0,0.0,0.0,0.0,0.0,0.0,0.0,0.0,0.0,0.0,0.0,0.0,0.0,0.0,0.0,0.0,0.0,0.0,0.0,0.0,0.0,0.0,0.0,0.0,0.0,0.0,0.0,0.0,0.0,0.0,0.0,0.0,0.0,0.0,0.0,0.0,0.0,0.0,0.0,0.0,0.0,0.0,0.0,0.0,0.0,0.0,0.0,0.0,0.0,0.0,0.0,0.0,0.0,0.0,0.0,0.0,0.0,0.0,0.0,0.0,0.0,0.0,0.0,0.0,0.0,0.0,0.0,0.0,0.0,0.0,0.0,0.0,0.0,0.0,0.0,0.0,0.0,0.0,0.0,0.0,0.0,0.0,0.0,0.0,0.0,0.0,0.0,0.0,0.0,0.0,0.0,0.0,0.0,0.0,0.0,0.0,0.0,4.6289,4.6289,4.6289,4.6289,4.6289,4.6289,4.6289,0.0,0.0,0.0,0.0,0.0,0.0,0.0,0.0,0.0,0.0,0.0,0.0,0.0,0.0,0.0,0.0,0.0,0.0,0.0,0.0,0.0,0.0,0.0,0.0,0.0,0.0,0.0,0.0,0.0,0.0,0.0,0.0,0.0,0.0,0.0,0.0,0.0,0.0,0.0,0.0,0.0,0.0,0.0,0.0,0.0,0.0,0.0,0.0,0.0,0.0,0.0,0.0,0.0,0.0,0.0,0.0,0.0,0.0,0.0,0.0,0.0,0.0,0.0,0.0,0.0,0.0,0.0,0.0,0.0,0.0,0.0,0.0,0.0,0.0,0.0,0.0,0.0,0.0,0.0,0.0,0.0,0.0,0.0,0.0,0.0,0.0,0.0,0.0,0.0,0.0,0.0,0.0,0.0,0.0,0.0,0.0,0.0,0.0,0.0,0.0,0.0,0.0,0.0,0.0,0.0,0.0,0.0,0.0,4.6289,4.6289,4.6289,4.6289,4.6289,4.6289,4.6289,0.0,0.0,0.0,0.0,0.0,0.0,0.0,0.0,0.0,0.0,0.0,0.0,0.0,0.0,0.0,0.0,0.0,0.0,0.0,0.0,0.0,0.0,0.0,0.0,0.0,0.0,0.0,0.0,0.0,0.0,0.0,0.0,0.0,0.0,0.0,0.0,0.0,0.0,0.0,0.0,0.0,0.0,0.0,0.0,0.0,0.0,0.0,0.0,4.5836,0.0,0.0,0.0,0.0,0.0,0.0,0.0,0.0,0.0,0.0,0.0,0.0,0.0,0.0,0.0,0.0,0.0,0.0,0.0,0.0,0.0,0.0,0.0,0.0,0.0,0.0,0.0,0.0,0.0,0.0,0.0,0.0,0.0,0.0,0.0,0.0,0.0,0.0,0.0,0.0,0.0,0.0,0.0,0.0,0.0,0.0,0.0,0.0,0.0,0.0,0.0,0.0,0.0,0.0,0.0,0.0,0.0,0.0,0.0,4.6289,4.6289,4.6289,4.6289,4.6289,4.6289,4.6289,0.0,0.0,0.0,0.0,0.0,0.0,0.0,0.0,0.0,0.0,0.0,0.0,0.0,0.0,0.0,0.0,0.0,0.0,0.0,0.0,0.0,0.0,0.0,0.0,0.0,0.0,0.0,0.0,0.0,0.0,0.0,0.0,0.0,0.0,0.0,0.0,0.0,0.0,0.0,0.0,0.0,0.0,0.0,0.0,0.0,0.0,0.0,0.0,0.0,0.0,0.0,0.0,0.0,0.0,0.0,0.0,0.0,0.0,0.0,0.0,0.0,0.0,0.0,0.0,0.0,0.0,0.0,0.0,0.0,0.0,0.0,0.0,0.0,0.0,0.0,0.0,0.0,0.0,0.0,0.0,0.0,0.0,0.0,0.0,0.0,0.0,0.0,0.0,0.0,0.0,0.0,0.0,0.0,0.0,0.0,0.0,0.0,0.0,0.0,0.0,0.0,0.0,0.0,0.0,0.0,0.0,0.0,4.6289,4.6289,4.6289,4.6289,4.6289,4.6289,4.6289,4.6289,4.6289,0.0,0.0,0.0,0.0,0.0,0.0,0.0,0.0,0.0,0.0,0.0,0.0,0.0,0.0,0.0,0.0,0.0,0.0,0.0,0.0,0.0,0.0,0.0,0.0,0.0,0.0,0.0,0.0,0.0,0.0,0.0,0.0,0.0,0.0,0.0,0.0,0.0,0.0,4.5661,4.5733,0.0,0.0,0.0,0.0,0.0,0.0,0.0,0.0,4.6193,0.0,0.0,0.0,0.0,0.0,0.0,0.0,0.0,0.0,0.0,0.0,0.0,0.0,0.0,0.0,0.0,0.0,0.0,0.0,0.0,0.0,0.0,0.0,0.0,0.0,0.0,0.0,0.0,0.0,0.0,0.0,0.0,0.0,0.0,0.0,0.0,0.0,0.0,0.0,0.0,0.0,0.0,0.0,0.0,0.0,0.0,0.0,0.0,0.0,0.0,0.0,0.0,0.0,0.0,0.0,0.0,4.6289,4.6289,4.6289,4.6289,4.6289,4.6289,4.6289,4.6289,4.6289,4.6289,0.0,0.0,0.0,0.0,0.0,0.0,0.0,0.0,0.0,0.0,0.0,0.0,0.0,0.0,0.0,0.0,0.0,0.0,0.0,0.0,0.0,0.0,0.0,0.0,0.0,0.0,0.0,0.0,0.0,0.0,0.0,0.0,0.0,0.0,0.0,0.0,0.0,0.0,0.0,4.587,4.5878,0.0,0.0,0.0,0.0,0.0,0.0,0.0,0.0,4.6172,0.0,0.0,0.0,0.0,0.0,0.0,0.0,0.0,0.0,0.0,0.0,0.0,0.0,0.0,0.0,0.0,0.0,0.0,0.0,0.0,0.0,0.0,0.0,0.0,0.0,0.0,0.0,0.0,0.0,0.0,0.0,0.0,0.0,0.0,0.0,0.0,0.0,0.0,0.0,0.0,0.0,0.0,0.0,0.0,0.0,0.0,0.0,0.0,0.0,0.0,0.0,0.0,0.0,0.0,0.0,4.6289,4.6289,4.6289,4.6289,4.6289,4.6289,4.6289,4.6289,4.6289,0.0,0.0,0.0,0.0,0.0,0.0,0.0,0.0,0.0,0.0,0.0,0.0,0.0,0.0,0.0,0.0,0.0,0.0,0.0,0.0,0.0,0.0,0.0,0.0,0.0,0.0,0.0,0.0,0.0,0.0,0.0,0.0,0.0,0.0,0.0,0.0,0.0,0.0,0.0,0.0,4.5909,4.5937,4.5976,0.0,0.0,0.0,0.0,0.0,0.0,4.6199,4.623,0.0,0.0,0.0,0.0,0.0,0.0,0.0,0.0,0.0,0.0,0.0,0.0,0.0,0.0,0.0,0.0,0.0,0.0,0.0,0.0,0.0,0.0,0.0,0.0,0.0,0.0,0.0,0.0,0.0,0.0,0.0,0.0,0.0,0.0,0.0,0.0,0.0,0.0,0.0,0.0,0.0,0.0,0.0,0.0,0.0,0.0,0.0,0.0,0.0,0.0,0.0,0.0,0.0,0.0,0.0,4.6289,4.6289,4.6289,4.6289,4.6289,4.6289,4.6289,4.6289,4.6289,0.0,0.0,0.0,0.0,0.0,0.0,0.0,0.0,0.0,0.0,0.0,0.0,0.0,0.0,0.0,0.0,0.0,0.0,0.0,0.0,0.0,0.0,0.0,0.0,0.0,0.0,0.0,0.0,0.0,0.0,0.0,0.0,0.0,0.0,0.0,0.0,0.0,0.0,0.0,0.0,0.0,4.5957,4.6055,4.6107,0.0,0.0,0.0,0.0,4.6269,4.6289,0.0,0.0,0.0,0.0,0.0,0.0,0.0,0.0,0.0,0.0,0.0,0.0,0.0,0.0,0.0,0.0,0.0,0.0,0.0,0.0,0.0,0.0,0.0,0.0,0.0,0.0,0.0,0.0,0.0,0.0,0.0,0.0,0.0,0.0,0.0,0.0,0.0,0.0,0.0,0.0,0.0,0.0,0.0,0.0,0.0,0.0,0.0,0.0,0.0,0.0,0.0,0.0,0.0,0.0,0.0,0.0,4.6289,4.6289,4.6289,4.6289,4.6289,4.6289,4.6289,4.6289,4.6289,0.0,0.0,0.0,0.0,0.0,0.0,0.0,0.0,0.0,0.0,0.0,0.0,0.0,0.0,0.0,0.0,0.0,0.0,0.0,0.0,0.0,0.0,0.0,0.0,0.0,0.0,0.0,0.0,0.0,0.0,0.0,0.0,0.0,0.0,0.0,0.0,0.0,0.0,0.0,0.0,0.0,4.6035,4.5937,4.613,4.625,0.0,0.0,4.6269,4.6289,4.6289,0.0,0.0,0.0,0.0,0.0,0.0,0.0,0.0,0.0,0.0,0.0,0.0,0.0,0.0,0.0,0.0,0.0,0.0,0.0,0.0,0.0,0.0,0.0,0.0,0.0,0.0,0.0,0.0,0.0,0.0,0.0,0.0,0.0,0.0,0.0,0.0,0.0,0.0,0.0,0.0,0.0,0.0,0.0,0.0,0.0,0.0,0.0,0.0,0.0,0.0,0.0,0.0,0.0,0.0,0.0,4.6289,4.6289,4.6289,4.6289,4.6289,4.6289,4.6289,4.6289,4.6289,4.6289,0.0,0.0,0.0,0.0,0.0,0.0,0.0,0.0,0.0,0.0,0.0,0.0,0.0,0.0,0.0,0.0,0.0,0.0,0.0,0.0,0.0,0.0,0.0,0.0,0.0,0.0,0.0,0.0,0.0,0.0,0.0,0.0,0.0,0.0,0.0,0.0,0.0,0.0,0.0,0.0,0.0,0.0,4.6111,4.623,0.0,0.0,0.0,4.6289,4.6289,0.0,0.0,0.0,0.0,0.0,0.0,0.0,0.0,0.0,0.0,0.0,0.0,0.0,0.0,0.0,0.0,0.0,0.0,0.0,0.0,0.0,0.0,0.0,0.0,0.0,0.0,0.0,0.0,0.0,0.0,0.0,0.0,0.0,0.0,0.0,0.0,0.0,0.0,0.0,0.0,0.0,0.0,0.0,0.0,0.0,0.0,0.0,0.0,0.0,0.0,0.0,0.0,0.0,0.0,0.0,0.0,0.0,4.6289,4.6289,4.6289,4.6289,4.6289,4.6289,4.6289,4.6289,0.0,0.0,0.0,0.0,0.0,0.0,0.0,0.0,0.0,0.0,0.0,0.0,0.0,0.0,0.0,0.0,0.0,0.0,0.0,0.0,0.0,0.0,0.0,0.0,0.0,0.0,0.0,4.6289,0.0,0.0,0.0,0.0,0.0,0.0,0.0,0.0,0.0,0.0,0.0,0.0,0.0,0.0,4.6027,4.6228,4.6269,4.6289,0.0,0.0,4.6289,4.6289,4.6289,4.6289,0.0,0.0,0.0,0.0,0.0,0.0,0.0,0.0,0.0,0.0,0.0,0.0,0.0,0.0,0.0,0.0,0.0,0.0,0.0,0.0,0.0,0.0,0.0,0.0,0.0,0.0,0.0,0.0,0.0,0.0,0.0,0.0,0.0,0.0,0.0,0.0,0.0,0.0,0.0,0.0,0.0,0.0,0.0,0.0,0.0,0.0,0.0,0.0,0.0,0.0,0.0,0.0,0.0,0.0,4.6289,4.6289,4.6289,4.6289,4.6289,4.6289,4.6289,4.6289,4.6289,4.6289,0.0,0.0,0.0,0.0,0.0,0.0,0.0,0.0,0.0,0.0,0.0,0.0,0.0,0.0,0.0,0.0,0.0,0.0,0.0,0.0,0.0,0.0,0.0,0.0,0.0,0.0,0.0,0.0,0.0,0.0,0.0,0.0,0.0,0.0,0.0,0.0,0.0,0.0,0.0,0.0,0.0,4.6094,4.6113,4.623,4.6289,0.0,4.6289,4.6289,4.6289,4.6289,4.6289,4.6289,0.0,0.0,0.0,0.0,0.0,0.0,0.0,0.0,0.0,0.0,0.0,0.0,0.0,0.0,0.0,0.0,0.0,0.0,0.0,0.0,0.0,0.0,0.0,0.0,0.0,0.0,0.0,0.0,0.0,0.0,0.0,0.0,0.0,0.0,0.0,0.0,0.0,0.0,0.0,0.0,0.0,0.0,0.0,0.0,0.0,0.0,0.0,0.0,0.0,0.0,0.0,0.0,0.0,4.6289,4.6289,4.6289,4.6289,4.6289,4.6289,4.6289,4.6289,4.6289,4.6289,0.0,0.0,0.0,0.0,0.0,0.0,0.0,0.0,0.0,0.0,0.0,0.0,0.0,0.0,0.0,0.0,0.0,0.0,0.0,0.0,0.0,0.0,0.0,0.0,0.0,0.0,0.0,0.0,4.6289,4.6289,4.6289,0.0,0.0,0.0,0.0,0.0,0.0,0.0,0.0,0.0,0.0,4.6113,4.6211,4.6269,0.0,0.0,4.6289,4.6289,4.6289,4.6289,4.6289,4.6289,4.6289,0.0,0.0,0.0,0.0,0.0,0.0,0.0,0.0,0.0,0.0,0.0,0.0,0.0,0.0,0.0,0.0,0.0,0.0,0.0,0.0,0.0,0.0,0.0,0.0,0.0,0.0,0.0,0.0,0.0,0.0,0.0,0.0,0.0,0.0,0.0,0.0,0.0,0.0,0.0,0.0,0.0,0.0,0.0,0.0,0.0,0.0,0.0,0.0,0.0,0.0,0.0,0.0,4.6289,4.6289,4.6289,4.6289,4.6289,4.6289,4.6289,4.6289,4.6289,4.6289,0.0,0.0,0.0,0.0,0.0,0.0,0.0,0.0,0.0,0.0,0.0,0.0,0.0,0.0,0.0,0.0,0.0,0.0,0.0,0.0,0.0,0.0,0.0,0.0,0.0,0.0,0.0,0.0,4.6289,4.6289,4.6289,0.0,0.0,0.0,0.0,0.0,0.0,0.0,0.0,0.0,0.0,4.6191,4.6289,4.6289,4.6289,4.6289,4.6289,4.6387,4.666,4.668,4.6777,4.7031,0.0,0.0,0.0,0.0,0.0,0.0,0.0,0.0,0.0,0.0,0.0,0.0,0.0,0.0,0.0,0.0,0.0,0.0,0.0,0.0,0.0,0.0,0.0,0.0,0.0,0.0,0.0,4.6289,0.0,0.0,4.6289,0.0,0.0,0.0,0.0,0.0,0.0,0.0,0.0,0.0,0.0,0.0,0.0,0.0,0.0,0.0,0.0,0.0,0.0,0.0,0.0,0.0,0.0,4.6289,4.6289,4.6289,4.6289,4.6289,4.6289,4.6289,4.6289,4.6289,4.6289,4.6289,0.0,0.0,0.0,0.0,0.0,0.0,0.0,0.0,0.0,0.0,0.0,0.0,0.0,0.0,0.0,0.0,0.0,0.0,0.0,0.0,0.0,0.0,0.0,0.0,0.0,0.0,4.6289,4.6289,4.6289,0.0,0.0,0.0,0.0,0.0,0.0,0.0,0.0,0.0,4.6289,4.6289,4.6289,4.6289,4.6289,4.6308,4.6328,4.6328,4.6621,4.7461,4.7578,4.7871,0.0,0.0,0.0,0.0,0.0,0.0,0.0,0.0,0.0,0.0,0.0,0.0,0.0,0.0,0.0,0.0,0.0,0.0,0.0,0.0,0.0,0.0,0.0,0.0,0.0,0.0,0.0,4.6169,4.6172,0.0,0.0,0.0,0.0,0.0,0.0,0.0,0.0,0.0,0.0,0.0,4.6289,4.6289,0.0,0.0,0.0,0.0,0.0,0.0,0.0,0.0,0.0,0.0,0.0,0.0,4.6289,4.6289,4.6289,4.6289,4.6289,4.6289,4.6289,4.6289,4.6289,4.625,4.6191,0.0,0.0,0.0,0.0,0.0,0.0,0.0,0.0,0.0,0.0,0.0,0.0,0.0,0.0,0.0,0.0,0.0,0.0,0.0,0.0,0.0,0.0,0.0,0.0,0.0,4.6289,0.0,0.0,0.0,0.0,0.0,0.0,0.0,0.0,0.0,0.0,4.6289,4.6289,4.6289,4.6289,4.6289,4.6289,4.6289,4.6484,0.0,0.0,0.0,0.0,0.0,0.0,0.0,0.0,0.0,0.0,0.0,0.0,0.0,0.0,5.0215,4.9101,4.9375,4.9766,4.9785,0.0,0.0,0.0,0.0,0.0,0.0,0.0,0.0,0.0,0.0,0.0,0.0,0.0,0.0,4.6028,0.0,4.6039,0.0,0.0,0.0,0.0,0.0,0.0,0.0,0.0,4.6289,4.6289,4.6289,4.6289,4.6289,0.0,4.6289,4.6278,0.0,0.0,0.0,0.0,0.0,0.0,0.0,0.0,4.6269,4.623,4.6234,4.6211,4.617,4.617,4.6156,4.615,4.6161,4.6124,4.6033,4.5957,4.5949,0.0,0.0,0.0,0.0,0.0,0.0,0.0,0.0,0.0,0.0,0.0,0.0,0.0,0.0,0.0,0.0,0.0,0.0,0.0,0.0,0.0,0.0,0.0,4.6289,0.0,0.0,0.0,0.0,0.0,0.0,0.0,0.0,0.0,4.6289,4.6289,4.6289,4.6289,4.6562,4.6738,4.6758,0.0,0.0,0.0,0.0,0.0,0.0,0.0,4.9453,4.9726,4.9766,4.9941,5.0527,5.1035,5.1387,5.1387,0.0,0.0,4.998,5.0234,5.0605,5.0625,5.0625,5.0762,5.1289,5.0976,5.0762,0.0,0.0,0.0,0.0,0.0,0.0,0.0,0.0,4.5901,4.5909,0.0,4.5894,0.0,0.0,0.0,0.0,0.0,4.6289,0.0,0.0,4.6269,4.6289,4.6289,4.6269,4.6289,4.6269,4.6269,4.6222,4.6143,4.6267,0.0,0.0,0.0,0.0,0.0,0.0,4.6269,4.6211,4.6236,4.6119,4.6017,4.6026,4.5999,4.602,4.5975,4.5975,4.594,4.5928,4.5892,4.5909,4.6008,0.0,0.0,0.0,0.0,0.0,0.0,0.0,0.0,0.0,0.0,0.0,0.0,0.0,0.0,0.0,0.0,0.0,0.0,0.0,0.0,4.6289,0.0,0.0,0.0,0.0,0.0,0.0,0.0,0.0,0.0,4.6348,4.6367,4.6367,4.6348,4.6348,0.0,0.0,0.0,0.0,4.8906,4.8926,4.8945,4.9238,5.0098,5.0234,5.0488,5.123,0.0,0.0,5.1387,5.1387,5.1426,5.1445,5.1484,5.1445,5.1484,5.1387,5.1348,5.1367,5.1387,5.1445,5.1465,5.1543,5.1582,4.6435,0.0,0.0,0.0,0.0,4.5966,4.5902,4.5823,4.5828,4.5834,4.5815,4.5851,0.0,0.0,0.0,0.0,0.0,0.0,4.6027,4.6027,4.6008,4.6008,4.6008,4.6008,4.6008,4.6008,4.6027,4.6313,4.6872,4.692,4.6686,4.6172,0.0,0.0,0.0,0.0,4.7216,4.777,4.7804,4.779,4.7762,4.7751,4.7764,4.7758,4.7057,4.6684,4.6677,4.6046,4.5719,4.5815,4.5844,0.0,0.0,0.0,0.0,0.0,0.0,0.0,0.0,0.0,0.0,0.0,0.0,0.0,0.0,0.0,0.0,0.0,0.0,0.0,4.6289,4.6289,4.6289,0.0,0.0,0.0,0.0,0.0,0.0,0.0,0.0,0.0,4.7226,4.7226,4.7226,0.0,0.0,4.8535,4.8535,4.875,4.9121,4.9726,4.9824,0.0,5.0937,5.1055,5.1133,5.1367,5.1387,5.1387,5.1387,5.1387,5.1601,5.2207,5.2324,5.2519,5.3047,5.2207,5.1484,5.1426,5.1875,5.2305,5.2344,5.2793,5.3242,4.7179,4.6739,4.6138,4.5879,4.5854,4.5857,4.5815,4.5719,4.5719,4.5719,4.5719,4.5719,4.5776,4.5871,4.5891,0.0,0.0,0.0,4.5886,4.5905,4.6242,4.6397,4.6435,4.6778,4.6933,4.6933,4.6933,4.7172,4.763,4.7634,4.7414,4.698,0.0,0.0,4.7799,4.7747,4.7924,4.8394,4.8411,4.8375,4.8335,4.8336,4.8337,4.8317,4.7758,4.7449,4.7428,4.6892,4.6471,4.6238,4.6275,4.6161,0.0,0.0,0.0,0.0,0.0,0.0,0.0,0.0,0.0,0.0,0.0,4.6289,4.6289,0.0,0.0,0.0,4.6289,4.6289,4.6289,4.6289,0.0,0.0,0.0,0.0,0.0,0.0,0.0,4.6816,4.7578,4.8105,4.8125,4.8418,4.8496,4.8164,4.8867,4.9414,4.9414,0.0,5.0586,5.1113,5.1484,5.1875,5.2363,5.2422,5.2422,5.2422,5.2422,5.2441,5.2441,5.2441,5.2617,5.3066,5.3223,5.3379,5.3906,5.3125,5.2422,5.2441,5.2851,5.3183,5.3223,5.3633,5.3984,4.8355,4.8202,4.6777,4.6103,4.5988,4.5988,4.5913,4.5797,4.5797,4.5778,4.5815,4.5797,4.5873,4.6007,4.6046,0.0,4.6084,4.6084,4.6103,4.6123,4.6895,4.728,4.7299,4.8086,4.8471,4.8452,4.8471,4.8432,4.8394,4.8394,4.8471,4.8586,4.8722,4.8722,4.8586,4.8587,4.8548,4.8491,4.851,4.8452,4.8318,4.8298,4.8299,4.8336,4.8259,4.8201,4.8216,4.8124,4.7759,4.7045,4.7062,4.6737,4.6026,0.0,0.0,0.0,0.0,0.0,0.0,0.0,0.0,0.0,0.0,0.0,0.0,0.0,0.0,4.6289,4.6289,0.0,4.6289,4.6289,0.0,0.0,0.0,4.6387,4.6406,4.7168,4.7695,4.7715,0.0,0.0,4.9082,4.9863,5.0117,4.9414,4.9941,5.043,5.0488,5.1797,5.2812,5.2734,5.3457,5.3945,5.3808,5.3848,5.3828,5.3828,5.3984,5.3887,5.3887,5.3906,5.3965,5.4082,5.4101,5.416,5.4219,5.4238,5.418,5.418,5.4121,5.4101,5.4121,5.4258,5.4375,5.0625,5.001,4.899,4.8163,4.7548,4.7548,4.7528,4.749,4.7509,4.7489,4.7486,4.7508,4.7528,4.7548,4.7567,4.7586,4.7586,4.7567,4.7586,4.7605,4.7798,4.7895,4.7895,4.8105,4.8182,4.8202,4.8182,4.8529,4.9125,4.9144,4.9779,5.0991,5.1066,5.0508,4.9375,4.9221,4.949,5.0125,5.0125,5.0125,5.0067,5.0086,5.0087,5.0067,4.9433,4.9087,4.9086,4.8452,4.801,4.7837,4.7834,4.7736,4.7548,4.7027,0.0,0.0,0.0,0.0,0.0,0.0,0.0,0.0,0.0,4.6289,4.6289,0.0,4.6289,0.0,4.6289,4.6289,4.6289,4.6289,0.0,0.0,4.6894,4.7285,4.7305,4.8066,4.8594,4.8594,4.9355,5.0137,5.0742,5.1562,5.2285,5.2695,5.2363,5.2363,5.2988,5.3398,5.3691,5.3711,5.3906,5.3984,5.4082,5.3984,5.4082,5.3984,5.4023,5.3984,5.4004,5.3984,5.4199,5.4824,5.498,5.5234,5.5859,5.5898,5.584,5.5801,5.539,5.5,5.5,5.5488,5.5976,5.2222,5.1779,5.1279,5.0798,5.026,4.8759,4.8105,4.8105,4.8105,4.8105,4.8103,4.8087,4.8106,4.8105,4.8105,4.8105,4.8105,4.8105,4.8105,4.8125,4.849,4.8894,4.926,4.9625,5.001,5.0375,5.0375,5.0625,5.1068,5.1087,5.1568,5.2472,5.2491,5.2049,5.1221,5.1144,5.1337,5.1819,5.1819,5.1818,5.1818,5.1818,5.1818,5.1798,5.1356,5.0914,5.0529,5.0048,4.9433,4.8721,4.8682,4.8509,4.8106,4.7702,4.7547,0.0,0.0,0.0,0.0,0.0,0.0,0.0,0.0,0.0,0.0,0.0,4.6289,4.6289,4.6641,4.6875,4.6875,4.7226,4.7461,4.7461,4.7871,4.8183,4.8183,4.8945,4.9629,4.9961,5.0781,5.1621,5.2441,5.2969,5.3594,5.4453,5.416,5.3887,5.3984,5.4297,5.459,5.459,5.4902,5.5312,5.5644,5.6074,5.6308,5.6308,5.6308,5.6308,5.6308,5.6328,5.6484,5.6933,5.7031,5.7168,5.7656,5.7715,5.7656,5.7599,5.7332,5.6764,5.5973,5.647,5.7049,5.351,5.351,5.3414,5.3376,5.3126,5.0067,4.8759,4.874,4.8759,4.8759,4.8759,4.8741,4.876,4.8759,4.874,4.8759,4.8759,4.874,4.874,4.8817,4.9548,5.0279,5.1048,5.1741,5.2452,5.3183,5.3203,5.3203,5.3203,5.3203,5.326,5.3356,5.3356,5.3433,5.353,5.351,5.3415,5.3186,5.3186,5.3185,5.3203,5.3203,5.3203,5.3203,5.3185,5.2858,5.2107,5.205,5.1395,4.999,4.9798,4.9375,4.8625,4.8395,4.8318,0.0,4.8257,0.0,0.0,0.0,0.0,0.0,0.0,0.0,0.0,4.6641,4.6641,4.6641,4.7324,4.7773,4.7773,4.8457,4.8887,4.8906,4.9101,4.9238,4.9258,5.0078,5.0957,5.1641,5.2402,5.3203,5.4004,5.4238,5.4629,5.5469,5.5781,5.5605,5.4941,5.5312,5.5742,5.5742,5.6426,5.7148,5.7793,5.8594,5.9004,5.9101,5.8945,5.9199,5.9004,5.9043,5.9121,5.9121,5.8984,5.9043,5.916,5.9082,5.9043,5.8929,5.8896,5.8412,5.7265,5.7351,5.7774,5.5241,5.5145,5.4511,5.426,5.4145,5.2818,5.2241,5.2241,5.2241,5.2222,5.2241,5.224,5.2221,5.2241,5.2241,5.2241,5.226,5.2241,5.2241,5.2241,5.2414,5.2568,5.2722,5.2876,5.3049,5.3203,5.3203,5.3203,5.3203,5.3203,5.3568,5.4241,5.426,5.4568,5.5184,0.0,0.0,0.0,5.3201,5.3201,5.3203,5.32,5.32,5.3203,5.3183,0.0,5.2953,5.2954,5.282,5.2473,5.1819,0.0,0.0,0.0,0.0,0.0,0.0,0.0,0.0,0.0,0.0,0.0,4.8234,4.8122,4.8223,4.834,4.8398,4.8418,4.8555,4.8652,4.8652,4.8808,4.8887,4.8926,5.0117,5.0937,5.0976,5.2305,5.3359,5.3476,5.3652,5.4101,5.4941,5.5547,5.625,5.7012,5.7773,5.8125,5.7949,5.7558,5.7656,5.8301,5.8496,5.873,5.8945,5.914,5.9355,5.9199,5.9199,5.9238,5.9277,5.9277,5.9238,5.9256,5.9045,5.9003,5.9006,5.8769,5.8777,5.8683,5.8676,5.8637,5.8671,5.8778,5.8886,5.6973,5.6934,5.6549,5.6376,0.0,5.5915,5.5703,5.5607,5.3933,5.3203,5.3203,5.3182,5.3182,5.3203,5.3203,5.3203,5.3203,5.3203,5.3203,5.3203,5.3203,5.3433,5.3837,5.3837,5.4049,5.4434,5.4453,5.4453,5.4453,5.4876,5.528,5.5722,5.6165,5.6569,5.6973,5.6992,5.6126,5.4453,5.4432,5.4432,5.4434,5.4451,5.4432,5.4434,5.4434,0.0,0.0,0.0,0.0,0.0,0.0,0.0,0.0,5.1741,0.0,5.1356,5.0952,5.0548,5.0202,5.0183,5.001,4.9625,5.001,4.9813,4.8787,4.875,4.8828,4.8906,4.9629,5.0137,5.0156,5.0898,5.1406,5.1465,5.2168,5.2656,5.2676,5.3338,5.4052,5.4433,5.4785,5.5371,5.623,5.709,5.7754,5.8189,5.871,5.9209,5.9492,5.9004,5.875,5.914,5.957,5.9785,5.9824,6.0137,6.0328,6.0332,6.0285,6.0254,6.0234,6.0243,6.0258,6.0227,6.0142,6.0084,6.0087,5.9966,5.9885,5.986,5.9865,5.9938,6.0158,5.983,5.9438,5.83,5.83,5.83,5.83,5.83,5.83,5.83,5.8107,0.0,0.0,0.0,5.3932,5.3876,5.3876,5.3703,5.3722,5.3857,5.3876,5.3953,5.4087,5.4107,5.4491,5.5164,5.5184,5.5511,5.6145,5.6165,5.6165,5.6184,5.6896,5.7223,5.73,5.7953,5.83,5.83,5.83,5.7607,5.6242,5.6167,5.6167,5.6165,5.6165,5.6165,5.6145,5.6167,5.5761,5.497,5.4951,5.4547,5.3678,5.3505,5.343,5.3433,5.3301,5.3205,5.3186,5.3205,5.2897,5.2184,5.2127,5.1838,5.1203,5.1838,5.1498,4.9645,4.9546,4.9609,4.9707,5.0976,5.1797,5.1816,5.3027,5.3924,5.3923,5.4077,5.4141,5.4219,5.4414,5.4904,5.5535,5.6289,5.6894,5.7578,5.8476,5.9072,5.9089,5.9367,5.9726,6.0308,6.0039,5.9668,5.9746,6.0195,6.0547,6.0644,6.0961,6.1489,6.1571,6.1557,6.1564,6.1693,6.174,6.172,6.1758,6.1734,6.1712,6.1687,6.1646,6.1651,6.1651,6.1651,6.1651,6.1593,6.0973,6.0419,5.8319,5.83,5.83,5.83,5.83,5.83,5.83,5.8261,5.778,5.7588,5.753,5.6799,5.6453,5.6415,5.5684,5.5761,5.6434,5.6453,5.6857,5.7569,5.7588,5.7646,5.7761,5.7761,5.7819,5.7934,5.7934,5.7934,5.7953,5.8069,5.8127,5.8127,5.8242,5.8319,5.83,5.83,5.8184,5.7934,5.7921,5.794,5.7934,5.7934,5.7934,5.7934,5.7901,5.7538,5.6689,5.6609,5.6244,5.5395,5.4682,5.4314,5.4297,5.3661,5.318,5.3183,5.3201,5.314,5.3025,5.3011,5.2974,5.2858,5.2972,5.2954,5.2779,5.285,5.293,5.2949,5.3105,5.3301,5.332,5.3594,5.383,5.3828,5.439,5.5019,5.5723,5.6537,5.7293,5.8015,5.8586,5.8642,5.8702,5.9341,5.9785,5.9746,6.0258,6.0866,6.1142,6.1194,6.1126,6.1039,6.108,6.1172,6.1308,6.1246,6.172,6.2266,6.2345,6.2509,6.3108,6.3183,6.3195,6.3392,6.3145,6.313,6.3156,6.3141,6.2906,6.2848,6.2848,6.2887,6.2858,6.269,6.2536,5.9646,5.9665,5.9646,5.9646,5.9665,5.9646,5.9646,5.9665,5.9646,5.9127,5.83,5.7877,5.7703,5.7684,5.728,5.7319,5.7703,5.7703,5.7934,5.828,5.83,5.83,5.83,5.83,5.83,5.83,5.83,5.83,5.8338,5.8742,5.8954,5.8973,5.9396,5.9646,5.9665,5.9665,5.9665,5.9627,5.8745,5.8284,5.83,5.8296,5.8296,5.83,5.8284,5.813,5.7726,5.7709,5.7518,5.7131,5.6766,5.6359,5.5857,5.5472,5.5068,5.4607,5.4547,5.4353,5.3949,5.347,5.3395,5.3877,5.3913,5.4122,5.4605,5.3929,5.353,5.3627,5.4016,5.4327,5.4424,5.5155,5.5724,5.592,5.6567,5.7111,5.7437,5.7828,5.824,5.8569,5.9044,5.9336,5.9223,5.9988,6.0512,6.0492,6.1228,6.196,6.2433,6.2581,6.2452,6.2085,6.2327,6.262,6.2633,6.2605,6.2728,6.3059,6.3012,6.3094,6.3503,6.3556,6.3545,6.354,6.3482,6.3455,6.346,6.3344,6.3306,6.3301,6.3301,6.3295,6.3334,6.3628,6.3705,6.1358,6.1339,6.1166,6.0973,6.08,6.08,6.08,6.08,6.0781,6.0069,5.8954,5.8684,5.8569,5.855,5.8377,5.8396,5.855,5.8569,5.8684,5.8858,5.8858,5.8858,5.8858,5.8877,5.8858,5.8877,5.8858,5.8858,5.8954,5.9492,5.98,5.9858,6.0473,6.08,6.08,6.08,6.08,6.0704,5.9531,5.8877,5.8858,5.885,5.8869,5.8877,5.8877,5.8781,5.8588,5.8594,5.8479,5.8306,5.8286,5.7998,5.736,5.7302,5.6994,5.6379,5.6302,5.6032,5.5395,5.4739,5.4643,5.5299,5.5357,5.5626,5.6107,5.5201,5.4449,5.4468,5.5245,5.5765,5.5961,5.6842,5.7696,5.7984,5.8344,5.8563,5.883,5.8819,5.8858,5.8952,5.9503,5.9966,6.0222,6.08,6.132,6.1627,6.2209,6.2902,6.3416,6.3647,6.3526,6.3262,6.3402,6.3554,6.37,6.3537,6.3545,6.3743,6.3705,6.3782,6.3916,6.3968,6.3924,6.4039,6.3988,6.407,6.3955,6.3955,6.3988,6.4064,6.4078,6.3982,6.4059,6.4468,6.4724,6.3051,6.2954,6.2243,6.1512,6.0877,6.0839,6.0858,6.0858,6.08,6.0742,6.0512,5.9762,5.9435,5.9281,5.8684,5.8761,5.9377,5.9377,5.98,6.0454,6.0569,6.0569,6.0473,6.0512,6.055,6.0512,6.0512,6.0492,6.0492,6.0646,6.0685,6.0666,6.0762,6.0858,6.0839,6.0839,6.0819,6.0819,6.0646,6.0569,6.0569,6.0589,6.0569,6.0569,6.055,6.0204,5.945,5.9392,5.9042,5.8389,5.835,5.827,5.8174,5.8193,5.8143,5.8038,5.8019,5.8,5.7904,5.7865,5.773,5.7923,5.7807,5.7844,5.7953,5.7882,5.7499,5.6977,5.7459,5.7788,5.8005,5.8137,5.8267,5.8366,5.8466,5.8623,5.9323,5.9569,5.9938,6.0682,6.0942,6.1354,6.1809,6.2055,6.2401,6.2916,6.3122,6.3392,6.3647,6.4166,6.4487,6.4262,6.3897,6.3512,6.3531,6.3372,6.3809,6.4391,6.4512,6.473,6.5147,6.5436,6.5628,6.5141,6.5455,6.5397,6.5474,6.5647,6.5532,6.5282,6.5333,6.5551,6.5628,6.5628,6.557,6.3276,6.3281,6.2954,6.2608,6.23,6.2281,6.2281,6.2281,6.2281,6.2281,6.2243,6.1897,6.1204,6.0262,5.9915,5.9973,6.0242,6.0281,6.0435,6.0781,6.08,6.08,6.08,6.08,6.08,6.0858,6.13,6.157,6.1647,6.205,6.2281,6.2281,6.2281,6.2281,6.2281,6.2281,6.2281,6.2281,6.2267,6.2267,6.2147,6.13,6.08,6.08,6.08,6.0666,6.0315,6.0258,6.0104,5.9815,5.9796,5.9542,5.9023,5.9004,5.8796,5.836,5.828,5.83,5.83,5.83,5.83,5.83,5.83,5.8296,5.8312,5.8742,5.8842,5.8553,5.8399,5.8338,5.846,5.8772,5.9077,5.9306,5.958,5.995,6.0319,6.0839,6.132,6.1651,6.2155,6.254,6.281,6.2878,6.3218,6.3872,6.4059,6.4218,6.4705,6.5166,6.532,6.532,6.5032,6.4878,6.4801,6.4834,6.5007,6.5218,6.5359,6.559,6.5724,6.5878,6.5878,6.5878,6.5878,6.5878,6.5801,6.5878,6.5878,6.5878,6.5878,6.5878,6.5878,6.5878,6.5878,6.4032,6.3993,6.3762,6.3531,6.3301,6.3301,6.3301,6.3301,6.3301,6.3301,6.3301,6.3301,6.2647,6.1589,6.1473,6.1473,6.1493,6.1473,6.1493,6.1473,6.1493,6.1493,6.1473,6.1473,6.1493,6.1589,6.2147,6.2435,6.2493,6.2993,6.3301,6.3301,6.3301,6.3301,6.3301,6.3301,6.3301,6.3281,6.3286,6.3286,6.3128,6.2127,6.1493,6.1493,6.1497,6.1497,6.1478,6.1478,6.1381,6.117,6.117,6.0762,5.9931,5.9854,5.9585,5.9069,5.8989,5.8985,5.8985,5.8985,5.8985,5.8985,5.9004,5.9004,5.9119,5.9738,6.0185,6.0208,5.9877,5.9719,5.9196,5.9796,6.0296,6.0584,6.1108,6.1512,6.167,6.2127,6.2397,6.2497,6.2863,6.3426,6.3638,6.3897,6.4308,6.4834,6.4968,6.5122,6.5705,6.584,6.5859,6.5878,6.5878,6.584,6.5878,6.5763,6.5878,6.5878,6.582,6.5801,6.5878,6.5878,6.5878,6.5878,6.5878,6.5878,6.5878,6.5878,6.5878,6.5878,6.5878,6.5878,6.5878,6.5878,6.5878,6.5801,6.5628,6.4897,6.4109,6.3339,6.3397,6.3358,6.3493,6.3397,6.3358,6.3435,6.3397,6.3301,6.3205,6.3205,6.3166,6.3147,6.307,6.3031,6.3031,6.3089,6.3166,6.3185,6.3185,6.3147,6.2993,6.3147,6.3301,6.332,6.3358,6.3301,6.3378,6.3455,6.3378,6.3455,6.3493,6.3339,6.3493,6.3493,6.3372,6.3378,6.3257,6.318,6.3185,6.3137,6.3084,6.3103,6.3161,6.2791,6.2059,6.2059,6.1632,6.0877,6.0762,6.0762,6.0704,6.0704,6.0704,6.0685,6.0704,6.0685,6.0704,6.0685,6.0685,6.0742,6.1401,6.1828,6.1944,6.2367,6.2151,6.1031,6.1381,6.1858,6.1964,6.2661,6.3036,6.3122,6.3132,6.3238,6.3251,6.343,6.3858,6.4487,6.5282,6.5532,6.5705,6.5782,6.582,6.584,6.5878,6.5878,6.5878,6.5878,6.5878,6.5878,6.5878,6.5878,6.5878,6.5878,6.5878,6.5878,6.5878,6.5878,6.5878,6.5878,6.5878,6.5878,6.5878,6.5878,6.5878,6.5878,6.5878,6.5878,6.5878,6.5878,6.5878,6.5859,6.557,6.5243,6.4974,6.4955,6.4974,6.4974,6.4974,6.4955,6.4974,6.4955,6.4955,6.4955,6.4955,6.4339,6.3358,6.3301,6.3301,6.3301,6.3301,6.3301,6.3301,6.3301,6.3301,6.3378,6.3858,6.4436,6.4936,6.4974,6.4955,6.4955,6.4955,6.4974,6.4974,6.4974,6.4974,6.4974,6.4955,6.4974,6.4916,6.4974,6.4974,6.4916,6.3883,6.3286,6.3286,6.3301,6.3161,6.2872,6.2863,6.2733,6.2435,6.2382,6.2406,6.2386,6.2406,6.2406,6.2406,6.2406,6.2406,6.2386,6.2406,6.2344,6.2459,6.2671,6.2868,6.294,6.3108,6.293,6.268,6.2709,6.2863,6.2905,6.3136,6.3372,6.3416,6.3762,6.4141,6.4238,6.4564,6.5128,6.5301,6.5724,6.5878,6.5878,6.5878,6.5878,6.5878,6.5878,6.5878,6.5878,6.5878,6.5878,6.5878,6.5878,6.5878,6.5878,6.5878,6.5878,6.5878,6.5878,6.5878,6.5878,6.5878,6.5878,6.5878,6.5878,6.5878,6.5878,6.5878,6.5878,6.5878,6.5878,6.5878,6.5878,6.5878,6.5878,6.5878,6.5878,6.5878,6.5878,6.5878,6.5878,6.5878,6.5878,6.5878,6.5878,6.5878,6.5878,6.532,6.4224,6.4147,6.4147,6.4147,6.4147,6.4128,6.4147,6.4147,6.4147,6.4243,6.4724,6.5359,6.582,6.5878,6.5878,6.5859,6.5878,6.5878,6.5878,6.5878,6.5878,6.5878,6.5878,6.5878,6.5878,6.5878,6.5878,6.5724,6.4743,6.4147,6.4128,6.4161,6.3982,6.377,6.3724,6.3594,6.3334,6.3306,6.3291,6.3295,6.3291,6.3286,6.3286,6.3286,6.3267,6.3286,6.3286,6.3281,6.3315,6.3556,6.369,6.3762,6.4045,6.4135,6.4116,6.4152,6.4018,6.3847,6.3982,6.4141,6.4166,6.4666,6.4974,6.5064,6.5455,6.5801,6.5878,6.5878,6.5878,6.5878,6.5878,6.5878,6.5878,6.5878,6.5878,6.5878,6.5878,6.5878,6.5878,6.5878,6.5878,6.5878,6.5878,6.5878,6.5878,6.5878,6.5878,6.5878,6.5878,6.5878,6.5878,6.5878,6.5878,6.5878,6.5878,6.5878,6.5878,6.5878,6.5878,6.5878,6.5878,6.5878,6.5878,6.5878,6.5878,6.5878,6.5878,6.5878,6.5878,6.5878,6.5878,6.5878,6.5878,6.5878,6.582,6.5686,6.5609,6.5628,6.5628,6.5667,6.5686,6.5667,6.5609,6.5609,6.5628,6.5801,6.584,6.5878,6.5878,6.5878,6.5878,6.5878,6.5878,6.5878,6.5878,6.5878,6.5878,6.5878,6.5878,6.5878,6.5878,6.5878,6.5878,6.5743,6.5686,6.5763,6.5763,6.5333,6.4718,6.4622,6.4212,6.3655,6.3526,6.344,6.3522,6.3411,6.338,6.3418,6.352,6.3597,6.3597,6.3463,6.3617,6.3751,6.4238,6.4609,6.471,6.5224,6.5724,6.5667,6.5647,6.5359,6.4853,6.518,6.557,6.5705,6.582,6.5859,6.5801,6.5878,6.5878,6.5878,6.5878,6.5878,6.5878,6.5878,6.5878,6.5878,6.5878,6.5878,6.5878,6.5878,6.5878,6.5878,6.5878,6.5878,6.5878,6.5878,6.5878,6.5878,6.5878,6.5878,6.5878,6.5878,6.5878,6.5878,6.5878,6.5878,6.5878,6.5878,6.5878,6.5878,6.5878,6.5878,6.5878,6.5878,6.5878,6.5878,6.5878,6.5878,6.5878,6.5878,6.5878,6.5878,6.5878,6.5878,6.5878,6.5878,6.5878,6.5878,6.5878,6.5878,6.5878,6.5878,6.5878,6.5878,6.5878,6.5878,6.5878,6.5878,6.5878,6.5878,6.5878,6.5878,6.5878,6.5878,6.5878,6.5878,6.5878,6.5878,6.5878,6.5878,6.5878,6.5878,6.5878,6.5878,6.5878,6.5878,6.5878,6.5878,6.5878,6.5878,6.5763,6.5493,6.5513,6.5378,6.5122,6.5089,6.5089,6.5095,6.5089,6.5084,6.5064,6.5045,6.5026,6.5064,6.5045,6.5084,6.5084,6.5276,6.5455,6.5455,6.5743,6.5878,6.5878,6.5878,6.5743,6.5532,6.5743,6.5878,6.5878,6.5878,6.5878,6.5878,6.5878,6.5878,6.5878,6.5878,6.5878,6.5878,6.5878,6.5878,6.5878,6.5878,6.5878,6.5878,6.5878,6.5878,6.5878,6.5878,6.5878,6.5878,6.5878,6.5878,6.5878,6.5878,6.5878,6.5878,6.5878,6.5878,6.5878,6.5878,6.5878,6.5878,6.5878,6.5878,6.5878,6.5878,6.5878,6.5878,6.5878,6.5878,6.5878,6.5878,6.5878,6.5878,6.5878,6.5878,6.5878,6.5878,6.5878,6.5878,6.5878,6.5878,6.5878,6.5878,6.5878,6.5878,6.5878,6.5878,6.5878,6.5878,6.5878,6.5878,6.5878,6.5878,6.5878,6.5878,6.5878,6.5878,6.5878,6.5878,6.5878,6.5878,6.5878,6.5878,6.5878,6.5878,6.5878,6.5878,6.5878,6.5878,6.5878,6.5878,6.5878,6.5878,6.5878,6.5878,6.5878,6.5878,6.5878,6.5878,6.5859,6.5878,6.5878,6.5878,6.5859,6.5878,6.5782,6.5878,6.5878,6.5878,6.5878,6.5878,6.5878,6.5878,6.5878,6.5878,6.5878,6.5878,6.5878,6.5878,6.5878,6.5878,6.5878,6.5878,6.5878,6.5878,6.5878,6.5878,6.5878,6.5878,6.5878,6.5878,6.5878,6.5878,6.5878,6.5878,6.5878,6.5878,6.5878,6.5878,6.5878,6.5878,6.5878,6.5878,6.5878,6.5878,6.5878,6.5878,6.5878,6.5878,6.5878,6.5878,6.5878,6.5878,6.5878,6.5878,6.5878,6.5878,6.5878,6.5878,6.5878,6.5878,6.5878,6.5878,6.5878,6.5878,6.5878,6.5878,6.5878,6.5878,6.5878,6.5878,6.5878,6.5878,6.5878,6.5878,6.5878,6.5878,6.5878,6.5878,6.5878,6.5878,6.5878,6.5878,6.5878,6.5878,6.5878,6.5878,6.5878,6.5878,6.5878,6.5878,6.5878,6.5878,6.5878,6.5878,6.5878,6.5878,6.5878,6.5878,6.5878,6.5878,6.5878,6.5878,6.5878,6.5878,6.5878,6.5878,6.5878,6.5878,6.5878,6.5878,6.5878,6.5878,6.5878,6.5878,6.5878,6.5878,6.5878,6.5878,6.5878,6.5878,6.5878,6.5878,6.5878,6.5878,6.5878,6.5878,6.5878,6.5878,6.5878,6.5878,6.5878,6.5878,6.5878,6.5878,6.5878,6.5878,6.5878,6.5878,6.5878,6.5878,6.5878,6.5878,6.5878,6.5878,6.5878,6.5878,6.5878,6.5878,6.5878,6.5878,6.5878,6.5878,6.5878,6.5878,6.5878,6.5878,6.5878,6.5878,6.5878,6.5878,6.5878,6.5878,6.5878,6.5878,6.5878,6.5878,6.5878,6.5878,6.5878,6.5878,6.5878,6.5878,6.5878,6.5878,6.5878,6.5878,6.5878,6.5878,6.5878,6.5878,6.5878,6.5878,6.5878,6.5878,6.5878,6.5878,6.5878,6.5878,6.5878,6.5878,6.5878,6.5878,6.5878,6.5878,6.5878,6.5878,6.5878,6.5878,6.5878,6.5878,6.5878,6.5878,6.5878,6.5878,6.5878,6.5878,6.5878,6.5878,6.5878,6.5878,6.5878,6.5878,6.5878,6.5878,6.5878,6.5878,6.5878,6.5878,6.5878,6.5878,6.5878,6.5878,6.5878,6.5878,6.5878,6.5878,6.5878,6.5878,6.5878,6.5878,6.5878,6.5878,6.5878,6.5878,6.5878,6.5878,6.5878,6.5878,6.5878,6.5878,6.5878,6.5878,6.5878,6.5878,6.5878,6.5878,6.5878,6.5878,6.5878,6.5878,6.5878,6.5878,6.5878,6.5878,6.5878,6.5878,6.5878,6.5878,6.5878,6.5878,6.5878,6.5878,6.5878,6.5878,6.5878,6.5878,6.5878,6.5878,6.5878,6.5878,6.5878,6.5878,6.5878,6.5878,6.5878,6.5878,6.5878,6.5878,6.5878,6.5878,6.5878,6.5878,6.5878,6.5878,6.5878,6.5878,6.5878,6.5878,6.5878,6.5878,6.5878,6.5878,6.5878,6.5878,6.5878,6.5878,6.5878,6.5878,6.5878,6.5878,6.5878,6.5878,6.5878,6.5878,6.5878,6.5878,6.5878,6.5878,6.5878,6.5878,6.5878,6.5878,6.5878,6.5878,6.5878,6.5878,6.5878,6.5878,6.5878,6.5878,6.5878,6.5878,6.5878,6.5878,6.5878,6.5878,6.5878,6.5878,6.5878,6.5878,6.5878,6.5878,6.5878,6.5878,6.5878,6.5878,6.5878,6.5878,6.5878,6.5878,6.5878,6.5878,6.5878,6.5878,6.5878,6.5878,6.5878,6.5878,6.5878,6.5878,6.5878,6.5878,6.5878,6.5878,6.5878,6.5878,6.5878,6.5878,6.5878,6.5878,6.5878,6.5878,6.5878,6.5878,6.5878,6.5878,6.5878,6.5878,6.5878,6.5878,6.5878,6.5878,6.5878,6.5878,6.5878,6.5878,6.5878,6.5878,6.5878,6.5878,6.5878,6.5878,6.5878,6.5878,6.5878,6.5878,6.5878,6.5878,6.5878,6.5878,6.5878,6.5878,6.5878,6.5878,6.5878,6.5878,6.5878,6.5878,6.5878,6.5878,6.5878,6.5878,6.5878,6.5878,6.5878,6.5878,6.5878,6.5878,6.5878,6.5878,6.5878,6.5878,6.5878,6.5878,6.5878,6.5878,6.5878,6.5878,6.5878,6.5878,6.5878,6.5878,6.5878,6.5878,6.5878,6.5878,6.5878,6.5878,6.5878,6.5878,6.5878,6.5878,6.5878,6.5878,6.5878,6.5878,6.5878,6.5878,6.5878,6.5878,6.5878,6.5878,6.5878,6.5878,6.5878,6.5878,6.5878,6.5878,6.5878,6.5878,6.5878,6.5878,6.5878,6.5878,6.5878,6.5878,6.5878,6.5878,6.5878,6.5878,6.5878,6.5878,6.5878,6.5878,6.5878,6.5878,6.5878,6.5878,6.5878,6.5878,6.5878,6.5878,6.5878,6.5878,6.5878,6.5878,6.5878,6.5878,6.5878,6.5878,6.5878,6.5878,6.5878,6.5878,6.5878,6.5878,6.5878,6.5878,6.5878,6.5878,6.5878,6.5878,6.5878,6.5878,6.5878,6.5878,6.5878,6.5878,6.5878,6.5878,6.5878,6.5878,6.5878,6.5878,6.5878,6.5878,6.5878,6.5878,6.5878,6.5878,6.5878,6.5878,6.5878,6.5917,6.5878,6.5878,6.5878,6.5878,6.5878,6.5878,6.5878,6.5878,6.5878,6.5878,6.5878,6.5878,6.5878,6.5878,6.5878,6.5878,6.5878,6.5878,6.5878,6.5878,6.5878,6.5878,6.5878,6.5878,6.5878,6.5878,6.5878,6.5878,6.5878,6.5878,6.5878,6.5878,6.5878,6.5878,6.5878,6.5878,6.5878,6.5878,6.5878,6.5878,6.5878,6.5878,6.5878,6.5878,6.5878,6.5878,6.5878,6.5878,6.5878,6.5878,6.5878,6.5878,6.5878,6.5878,6.5878,6.5878,6.5878,6.5878,6.5878,6.5878,6.5878,6.5878,6.5878,6.5878,6.5878,6.5878,6.5878,6.5878,6.5878,6.5878,6.5878,6.5878,6.5878,6.5878,6.5878,6.5878,6.5878,6.5878,6.5878,6.5878,6.5878,6.5878,6.5878,6.5878,6.5878,6.5878,6.5878,6.5878,6.5878,6.5878,6.5878,6.5878,6.5878,6.5878,6.5878,6.5878,6.5878,6.5878,6.5878,6.5878,6.5878,6.5936,6.6032,6.6128,6.6147,6.6365,6.6346,6.6205,6.632,6.6147,6.5878,6.5917,6.6051,6.6032,6.6109,6.5994,6.6051,6.6224,6.6359,6.6167,6.6224,6.5878,6.5878,6.5878,6.5878,6.5878,6.5878,6.5878,6.5878,6.5878,6.5878,6.5878,6.5878,6.5878,6.5878,6.5878,6.5878,6.5878,6.5878,6.5878,6.5878,6.5878,6.5878,6.5878,6.5878,6.5878,6.5878,6.5878,6.5878,6.5878,6.5878,6.5878,6.5878,6.5878,6.5878,6.5878,6.5878,6.5878,6.5878,6.5878,6.5878,6.5878,6.5878,6.5878,6.5878,6.5878,6.5878,6.5878,6.5878,6.5878,6.5878,6.5878,6.5878,6.5878,6.5878,6.5878,6.5878,6.5878,6.5878,6.5878,6.5878,6.5878,6.5878,6.5878,6.5878,6.5878,6.5878,6.5878,6.5878,6.5878,6.5878,6.5878,6.5878,6.5878,6.5878,6.5878,6.5878,6.5878,6.5878,6.5878,6.5878,6.5878,6.5878,6.5878,6.5878,6.5878,6.5878,6.5878,6.5878,6.5878,6.5878,6.5878,6.5878,6.5878,6.5878,6.5878,6.5994,6.6186,6.6397,6.6647,6.7019,6.7353,6.7116,6.6923,6.6571,6.6244,6.6288,6.6384,6.6365,6.6673,6.7096,6.7269,6.7116,6.7096,6.7225,6.734,6.5878,6.5878,6.5878,6.5878,6.5878,6.5878,6.5878,6.5878,6.5878,6.5878,6.5878,6.5878,6.5878,6.5878,6.5878,6.5878,6.5878,6.5878,6.5878,6.5878,6.5878,6.5878,6.5878,6.5878,6.5878,6.5878,6.5878,6.5878,6.5878,6.5878,6.5878,6.5878,6.5878,6.5878,6.5878,6.5878,6.5878,6.5878,6.5878,6.5878,6.5878,6.5878,6.5878,6.5878,6.5878,6.5878,6.5878,6.5878,6.5878,6.5878,6.5878,6.5878,6.5878,6.5878,6.5878,6.5878,6.5878,6.5878,6.5878,6.5878,6.5878,6.5878,6.5878,6.5878,6.5878,6.5878,6.5878,6.5878,6.5878,6.5878,6.5878,6.5878,6.5878,6.5878,6.5878,6.5878,6.5878,6.5878,6.5878,6.5878,6.5878,6.5878,6.5878,6.5878,6.5878,6.5917,6.5936,6.5936,6.5974,6.609,6.6224,6.6474,6.6634,6.6846,6.6885,6.6821,6.6936,6.7051,6.7301,6.7674,6.8123,6.784,6.7468,6.6974,6.6724,6.6865,6.7058,6.725,6.7654,6.8296,6.8251,6.7859,6.7994,6.8321,6.8321,6.5878,6.5878,6.5878,6.5878,6.5878,6.5878,6.5878,6.5878,6.5878,6.5878,6.5878,6.5878,6.5878,6.5878,6.5878,6.5878,6.5878,6.5878,6.5878,6.5878,6.5878,6.5878,6.5878,6.5878,6.5878,6.5878,6.5878,6.5878,6.5878,6.5878,6.5878,6.5878,6.5878,6.5878,6.5878,6.5878,6.5878,6.5878,6.5878,6.5878,6.5878,6.5878,6.5878,6.5878,6.5878,6.5878,6.5878,6.5878,6.5878,6.5878,6.5878,6.5878,6.5878,6.5878,6.5878,6.5878,6.5878,6.5878,6.5878,6.5878,6.5878,6.5878,6.5878,6.5878,6.5878,6.5878,6.5878,6.5878,6.5878,6.5878,6.5878,6.5974,6.5936,6.5917,6.6051,6.607,6.6051,6.609,6.6147,6.6244,6.6109,6.609,6.6327,6.6461,6.65,6.6558,6.6513,6.65,6.6461,6.6667,6.6955,6.7263,6.7616,6.7892,6.8129,6.802,6.7987,6.8052,6.8205,6.8302,6.8552,6.8391,6.8056,6.8006,6.784,6.7885,6.8058,6.8174,6.8436,6.8879,6.8698,6.8479,6.8794,6.909,6.8814,6.5878,6.5878,6.5878,6.5878,6.5878,6.5878,6.5878,6.5878,6.5878,6.5878,6.5878,6.5878,6.5878,6.5878,6.5878,6.5878,6.5878,6.5878,6.5878,6.5878,6.5878,6.5878,6.5878,6.5878,6.5878,6.5878,6.5878,6.5878,6.5878,6.5878,6.5878,6.5878,6.5878,6.5878,6.5878,6.5878,6.5878,6.5878,6.5878,6.5878,6.5878,6.5878,6.5878,6.5878,6.5878,6.5878,6.5878,6.5878,6.5878,6.5878,6.5878,6.5878,6.5878,6.5878,6.5897,6.5917,6.5897,6.5878,6.5878,6.5878,6.5878,6.5878,6.5878,6.5878,6.5878,6.5878,6.5936,6.5936,6.5897,6.5878,6.5897,6.6307,6.6494,6.6602,6.6852,6.7083,6.7167,6.7148,6.7109,6.7019,6.6885,6.7,6.7353,6.7391,6.7276,6.7192,6.7128,6.7077,6.7,6.7359,6.7782,6.809,6.8417,6.8539,6.877,6.8802,6.891,6.9033,6.909,6.9167,6.9379,6.939,6.9583,6.9706,6.9475,6.8867,6.8963,6.9078,6.9302,6.9506,6.964,6.9717,6.9736,6.9717,6.9506,6.5878,6.5878,6.5878,6.5878,6.5878,6.5878,6.5878,6.5878,6.5878,6.5878,6.5878,6.5878,6.5878,6.5878,6.5878,6.5878,6.5878,6.5878,6.5878,6.5878,6.5878,6.5878,6.5878,6.5878,6.5878,6.5878,6.5878,6.5878,6.5878,6.5878,6.5878,6.5878,6.5878,6.5878,6.5878,6.5878,6.5878,6.5878,6.5878,6.5878,6.5878,6.5878,6.5878,6.5878,6.5878,6.5878,6.5878,6.5878,6.5878,6.5878,6.5878,6.5878,6.5878,6.5878,6.5955,6.607,6.5994,6.5897,6.5878,6.5878,6.5878,6.5878,6.5878,6.5878,6.5994,6.6109,6.6307,6.6346,6.6481,6.6558,6.6731,6.7,6.7282,6.7468,6.7902,6.8345,6.8198,6.8167,6.8244,6.8097,6.7808,6.7827,6.8097,6.7994,6.7821,6.7821,6.7756,6.7795,6.784,6.834,6.8725,6.8948,6.916,6.916,6.9275,6.939,6.9621,6.9898,6.9956,7.0014,7.0321,7.061,7.0687,7.0514,7.009,6.9571,6.979,6.9944,7.0071,7.0321,7.0725,7.0764,7.0456,7.0398,7.0341,6.5878,6.5878,6.5878,6.5878,6.5878,6.5878,6.5878,6.5878,6.5878,6.5878,6.5878,6.5878,6.5878,6.5878,6.5878,6.5878,6.5878,6.5878,6.5878,6.5878,6.5878,6.5878,6.5878,6.5878,6.5878,6.5878,6.5878,6.5878,6.5878,6.5878,6.5878,6.5878,6.5878,6.5878,6.5878,6.5878,6.5878,6.5878,6.5878,6.5878,6.5878,6.5897,6.5897,6.5955,6.5974,6.607,6.6167,6.623,6.6147,6.609,6.5994,6.5936,6.5878,6.5878,6.6327,6.65,6.6384,6.5897,6.6051,6.6186,6.6205,6.6244,6.6128,6.5936,6.6263,6.6731,6.7256,6.809,6.7988,6.7872,6.7795,6.8103,6.8251,6.8333,6.8556,6.8652,6.8602,6.9109,6.9186,6.9328,6.9097,6.8763,6.8717,6.8518,6.8364,6.8383,6.8421,6.8518,6.8717,6.9237,6.961,6.9794,6.991,6.991,6.9871,6.9986,7.0121,7.0552,7.0591,7.0629,7.0764,7.0898,7.0898,7.0667,7.0321,7.0244,7.036,7.0533,7.0764,7.0821,7.0879,7.0898,7.086,7.0898,7.0898,6.5878,6.5878,6.5878,6.5878,6.5878,6.5878,6.5878,6.5878,6.5878,6.5878,6.5878,6.5878,6.5878,6.5878,6.5878,6.5878,6.5878,6.5955,6.5897,6.5955,6.5974,6.5936,6.5878,6.5878,6.5878,6.5878,6.5897,6.5878,6.5897,6.5917,6.5878,6.5878,6.5878,6.5878,6.5878,6.5878,6.5878,6.5878,6.5878,6.5878,6.5878,6.5936,6.6109,6.6532,6.6577,6.6808,6.7116,6.7314,6.7314,6.7333,6.7314,6.7308,6.7327,6.7346,6.7526,6.7699,6.7552,6.7378,6.7346,6.7321,6.7218,6.7275,6.7263,6.7385,6.7423,6.7616,6.7949,6.8328,6.8379,6.8436,6.8609,6.8859,6.9071,6.9217,6.9363,6.9583,6.9648,6.9821,7.009,7.0225,7.031,6.9852,6.9563,6.9583,6.9544,6.9602,6.966,6.9756,6.989,7.0206,7.0456,7.0629,7.0687,7.0687,7.0629,7.0629,7.0486,7.0764,7.0764,7.0802,7.0821,7.0898,7.0898,7.0898,7.0687,7.0725,7.0898,7.0879,7.086,7.0879,7.0898,7.0898,7.0898,7.0898,7.0898,6.5878,6.5878,6.5878,6.5878,6.5878,6.5878,6.5878,6.5878,6.5878,6.5878,6.5878,6.5878,6.5878,6.5974,6.6109,6.6282,6.6244,6.6417,6.6513,6.6513,6.6474,6.6455,6.6378,6.6244,6.6109,6.5917,6.6224,6.6263,6.6295,6.63,6.6304,6.5936,6.5878,6.5878,6.5878,6.5917,6.5974,6.6301,6.6577,6.6673,6.6647,6.6628,6.6936,6.7244,6.75,6.7738,6.8277,6.8309,6.8309,6.827,6.8232,6.8148,6.8179,6.8148,6.8366,6.8578,6.8583,6.8775,6.8706,6.8621,6.8471,6.8402,6.8448,6.8263,6.8667,6.8732,6.8931,6.9186,6.9198,6.9152,6.9171,6.9698,6.9871,7.014,7.039,7.0706,7.086,7.0629,7.0514,7.0571,7.0648,7.0725,7.0571,7.0706,7.0783,7.0821,7.0898,7.0898,7.0879,7.0841,7.086,7.0898,7.0898,7.0898,7.0898,7.0898,7.0898,7.0898,7.0898,7.0898,7.0898,7.0898,7.0898,7.0898,7.0898,7.0898,7.0898,7.0898,7.0898,7.0898,7.0898,7.0898,7.0898,7.0898,7.0898,6.5878,6.5878,6.5878,6.5878,6.5878,6.5878,6.5878,6.5878,6.5878,6.5917,6.6013,6.5974,6.6109,6.6167,6.6763,6.7032,6.7051,6.7859,6.7936,6.8013,6.8148,6.759,6.7244,6.6955,6.6724,6.632,6.6705,6.7013,6.703,6.7121,6.6711,6.6077,6.6123,6.5981,6.6006,6.6146,6.6461,6.6949,6.7513,6.7904,6.7936,6.7994,6.8129,6.8244,6.8321,6.8359,6.8417,6.8621,6.8717,6.8737,6.8775,6.8775,6.8871,6.8833,6.9109,6.9456,6.959,6.9813,6.9994,6.9371,6.8633,6.8452,6.8614,6.9006,6.9525,6.9621,6.9929,7.0341,7.0217,7.0371,7.0533,7.0764,7.0629,7.0667,7.0744,7.0802,7.0898,7.0879,7.0783,7.086,7.0898,7.0898,7.0898,7.0898,7.0898,7.0898,7.0898,7.0898,7.0898,7.0879,7.0879,7.0898,7.0898,7.0898,7.0898,7.0898,7.0898,7.0898,7.0898,7.0898,7.0898,7.0898,7.0898,7.0898,7.0898,7.0898,7.0898,7.0898,7.0898,7.0898,7.0898,7.0898,7.0898,7.0898,7.0898,6.5878,6.5878,6.5878,6.5878,6.5878,6.5878,6.5878,6.5878,6.5897,6.6205,6.6667,6.7167,6.7436,6.7513,6.7648,6.7898,6.7936,6.8186,6.8417,6.8398,6.8302,6.8167,6.7917,6.7878,6.7744,6.7494,6.7763,6.7917,6.7902,6.7883,6.7706,6.7257,6.6858,6.6531,6.6507,6.6749,6.714,6.7468,6.806,6.841,6.8398,6.8429,6.866,6.9186,6.9213,6.9494,6.986,6.9929,6.9929,6.989,6.9852,6.9813,6.9775,6.9775,6.9967,7.0302,7.0341,7.0552,7.0764,7.0236,6.9986,6.9929,6.9967,7.0044,7.0333,7.039,7.0533,7.0802,7.0898,7.0898,7.0879,7.0879,7.0841,7.0879,7.0898,7.0898,7.0898,7.0898,7.0898,7.0898,7.0898,7.0898,7.0898,7.0898,7.0898,7.0898,7.0898,7.0898,7.0898,7.0898,7.0898,7.0898,7.0898,7.0898,7.0898,7.0898,7.0898,7.0898,7.0898,7.0898,7.0898,7.0898,7.0898,7.0898,7.0898,7.0898,7.0898,7.0898,7.0898,7.0898,7.0898,7.0898,7.0898,7.0898,7.0898,6.5878,6.5878,6.5878,6.5878,6.5878,6.5878,6.6051,6.6244,6.6282,6.6705,6.7513,6.8121,6.8371,6.8456,6.8725,6.8783,6.8879,6.9109,6.9186,6.9263,6.9302,6.9013,6.8859,6.8725,6.8609,6.8571,6.8744,6.8802,6.8775,6.8476,6.861,6.8534,6.8063,6.7581,6.7176,6.7607,6.804,6.8318,6.8819,6.9113,6.9206,6.9256,6.939,7.0014,7.0052,7.0252,7.0571,7.0648,7.0706,7.0725,7.0764,7.0821,7.086,7.0898,7.0898,7.0898,7.0898,7.0898,7.0898,7.0898,7.0898,7.0687,7.0725,7.0783,7.0898,7.0898,7.0841,7.086,7.0898,7.0898,7.0898,7.0898,7.0898,7.0898,7.0898,7.0898,7.0898,7.0898,7.0898,7.0898,7.0898,7.0898,7.0898,7.0898,7.0898,7.0898,7.0898,7.0898,7.0898,7.0898,7.0898,7.0898,7.0898,7.0898,7.0898,7.0898,7.0898,7.0898,7.0898,7.0898,7.0898,7.0898,7.0898,7.0898,7.0898,7.0898,7.0898,7.0898,7.0898,7.0898,7.0898,7.0898,7.0898,7.0898,7.0898,6.5878,6.5878,6.5878,6.5917,6.5974,6.5917,6.634,6.6955,6.7167,6.7648,6.834,6.8571,6.8629,6.8802,6.9417,6.9629,6.9802,7.0302,7.0552,7.0456,7.0341,7.0206,6.9898,6.961,6.9417,6.884,6.9186,6.9667,6.9667,6.9566,6.9794,6.9718,6.915,6.8527,6.7749,6.8375,6.9043,6.9644,7.0305,7.0494,7.0514,7.0494,7.0571,7.0629,7.0667,7.0783,7.0841,7.0898,7.0898,7.0898,7.0898,7.0898,7.0898,7.0898,7.0898,7.0898,7.0898,7.0898,7.0898,7.0898,7.0898,7.0898,7.0898,7.0898,7.0898,7.0898,7.0898,7.0898,7.0898,7.0898,7.0898,7.0898,7.0898,7.0898,7.0898,7.0898,7.0898,7.0898,7.0898,7.0898,7.0898,7.0898,7.0898,7.0898,7.0898,7.0898,7.0898,7.0898,7.0898,7.0898,7.0898,7.0898,7.0898,7.0898,7.0898,7.0898,7.0898,7.0898,7.0898,7.0898,7.0898,7.0898,7.0898,7.0898,7.0898,7.0898,7.0898,7.0898,7.0898,7.0898,7.0898,7.0898,7.0898,7.0898,7.0898,6.5878,6.5878,6.5878,6.6205,6.6647,6.6686,6.6859,6.7282,6.8263,6.8994,6.934,6.9783,7.0052,7.0187,7.0225,7.0437,7.0533,7.061,7.0898,7.0898,7.0898,7.0764,7.0514,7.036,7.0264,7.0187,7.0437,7.0437,7.0494,7.0317,7.0375,7.033,6.9756,6.9149,6.8963,6.9342,6.9836,7.0037,7.0498,7.0879,7.0898,7.0898,7.0898,7.0898,7.0898,7.0898,7.0898,7.0898,7.0898,7.0898,7.0898,7.0898,7.0898,7.0898,7.0898,7.0898,7.0898,7.0898,7.0898,7.0898,7.0898,7.0898,7.0898,7.0898,7.0898,7.0898,7.0898,7.0898,7.0898,7.0898,7.0898,7.0898,7.0898,7.0898,7.0898,7.0898,7.0898,7.0898,7.0898,7.0898,7.0898,7.0898,7.0898,7.0898,7.0898,7.0898,7.0898,7.0898,7.0898,7.0898,7.0898,7.0898,7.0898,7.0898,7.0898,7.0898,7.0898,7.0898,7.0898,7.0898,7.0898,7.0898,7.0898,7.0898,7.0898,7.0898,7.0898,7.0898,7.0898,7.0898,7.0898,7.0898,7.0898,7.0898,7.0898,6.5878,6.5917,6.6205,6.659,6.7071,6.7109,6.7378,6.8148,6.9494,7.0129,7.0244,7.0667,7.0841,7.0841,7.0898,7.0898,7.0898,7.0898,7.0898,7.0898,7.0898,7.0841,7.086,7.0898,7.0744,7.0898,7.0852,7.0813,7.0527,7.0425,7.0573,7.0543,6.9866,6.9662,6.968,6.9931,6.9985,7.0279,7.0796,7.0898,7.0898,7.0898,7.0898,7.0898,7.0898,7.0898,7.0898,7.0898,7.0898,7.0898,7.0898,7.0898,7.0898,7.0898,7.0898,7.0898,7.0898,7.0898,7.0898,7.0898,7.0898,7.0898,7.0898,7.0898,7.0898,7.0898,7.0898,7.0898,7.0898,7.0898,7.0898,7.0898,7.0898,7.0898,7.0898,7.0898,7.0898,7.0898,7.0898,7.0898,7.0898,7.0898,7.0898,7.0898,7.0898,7.0898,7.0898,7.0898,7.0898,7.0898,7.0898,7.0898,7.0898,7.0898,7.0898,7.0898,7.0898,7.0898,7.0898,7.0898,7.0898,7.0898,7.0898,7.0898,7.0898,7.0898,7.0898,7.0898,7.0898,7.0898,7.0898,7.0898,7.0898,7.0898,7.0898,6.5878,6.6013,6.6763,6.709,6.7167,6.7417,6.8302,6.9744,7.0514,7.0841,7.0879,7.0841,7.0898,7.0898,7.0898,7.0898,7.0898,7.0898,7.0898,7.0898,7.0898,7.0898,7.0898,7.0898,7.0805,7.0805,7.0729,7.0444,7.0162,7.0247,7.0543,7.0494,6.9607,6.9664,6.9861,6.975,6.9889,7.0486,7.0824,7.0898,7.0898,7.0898,7.0898,7.0898,7.0898,7.0898,7.0898,7.0898,7.0898,7.0898,7.0898,7.0898,7.0898,7.0898,7.0898,7.0898,7.0898,7.0898,7.0898,7.0898,7.0898,7.0898,7.0898,7.0898,7.0898,7.0898,7.0898,7.0898,7.0898,7.0898,7.0898,7.0898,7.0898,7.0898,7.0898,7.0898,7.0898,7.0898,7.0898,7.0898,7.0898,7.0898,7.0898,7.0898,7.0898,7.0898,7.0898,7.0898,7.0898,7.0898,7.0898,7.0898,7.0898,7.0898,7.0898,7.0898,7.0898,7.0898,7.0898,7.0898,7.0898,7.0898,7.0898,7.0898,7.0898,7.0898,7.0898,7.0898,7.0898,7.0898,7.0898,7.0898,7.0898,7.0898,7.0898,6.5878,6.5974,6.6763,6.7436,6.8167,6.9302,7.0129,7.0591,7.0841,7.0898,7.0898,7.0898,7.0898,7.0898,7.0898,7.0898,7.0898,7.0898,7.0898,7.0898,7.0898,7.0898,7.0898,7.0852,7.0652,7.0444,7.0279,7.0061,6.9664,6.9775,6.9775,6.9588,6.9087,6.9294,6.9336,6.9118,6.9826,7.0436,7.0738,7.086,7.0879,7.0898,7.0898,7.0898,7.0898,7.0898,7.0898,7.0898,7.0898,7.0898,7.0898,7.0898,7.0898,7.0898,7.0898,7.0898,7.0898,7.0898,7.0898,7.0898,7.0898,7.0898,7.0898,7.0898,7.0898,7.0898,7.0898,7.0898,7.0898,7.0898,7.0898,7.0898,7.0898,7.0898,7.0898,7.0898,7.0898,7.0898,7.0898,7.0898,7.0898,7.0898,7.0898,7.0898,7.0898,7.0898,7.0898,7.0898,7.0898,7.0898,7.0898,7.0898,7.0898,7.0898,7.0898,7.0898,7.0898,7.0898,7.0898,7.0898,7.0898,7.0898,7.0898,7.0898,7.0898,7.0898,7.0898,7.0898,7.0898,7.0898,7.0898,7.0898,7.0898,7.0898,7.0898,6.5878,6.6051,6.7148,6.8302,6.9475,7.0475,7.0898,7.0898,7.0898,7.0898,7.0898,7.0898,7.0898,7.0898,7.0898,7.0898,7.0898,7.0898,7.0898,7.0898,7.0824,7.0898,7.0852,7.0652,7.0413,7.0129,6.9811,6.9492,6.9064,6.8777,6.8732,6.9313,6.8614,6.875,6.8978,6.8959,6.9212,6.9896,7.0439,7.0689,7.0794,7.0852,7.0898,7.0852,7.0852,7.0879,7.0879,7.0879,7.0898,7.0898,7.0898,7.0898,7.0898,7.0898,7.0898,7.0898,7.0898,7.0898,7.0898,7.0898,7.0898,7.0898,7.0898,7.0898,7.0898,7.0898,7.0898,7.0898,7.0898,7.0898,7.0898,7.0898,7.0898,7.0898,7.0898,7.0898,7.0898,7.0898,7.0898,7.0898,7.0898,7.0898,7.0898,7.0898,7.0898,7.0898,7.0898,7.0898,7.0898,7.0898,7.0898,7.0898,7.0898,7.0898,7.0898,7.0898,7.0898,7.0898,7.0898,7.0898,7.0898,7.0898,7.0898,7.0898,7.0898,7.0898,7.0898,7.0898,7.0898,7.0898,7.0898,7.0898,7.0898,7.0898,7.0898,6.5955,6.6167,6.7802,6.936,7.0764,7.0879,7.0898,7.0898,7.0898,7.0898,7.0898,7.0898,7.0898,7.0898,7.0898,7.0898,7.0824,7.0777,7.07,7.0805,7.0543,7.0543,7.0432,7.0298,6.9902,6.9775,6.9453,6.8978,6.8464,6.821,6.8368,6.9087,6.8259,6.8179,6.8705,6.8511,6.8705,6.9234,6.9714,7.0009,7.0486,7.07,7.0757,7.071,7.0719,7.0783,7.0821,7.086,7.0898,7.0898,7.0898,7.0898,7.0898,7.0898,7.0898,7.0898,7.0898,7.0898,7.0898,7.0898,7.0898,7.0898,7.0898,7.0898,7.0898,7.0898,7.0898,7.0898,7.0898,7.0898,7.0898,7.0898,7.0898,7.0898,7.0898,7.0898,7.0898,7.0898,7.0898,7.0898,7.0898,7.0898,7.0898,7.0898,7.0898,7.0898,7.0898,7.0898,7.0898,7.0898,7.0898,7.0898,7.0898,7.0898,7.0898,7.0898,7.0898,7.0898,7.0898,7.0898,7.0898,7.0898,7.0898,7.0898,7.0898,7.0898,7.0898,7.0898,7.0898,7.0898,7.0898,7.0898,7.0898,7.0898,7.0898,6.6263,6.6955,6.8667,6.9994,7.0841,7.0898,7.0898,7.0898,7.0898,7.0898,7.0898,7.0898,7.0898,7.0898,7.0898,7.0898,7.0852,7.0652,7.033,7.0214,7.0061,6.9973,6.9757,6.9626,6.9294,6.8935,6.866,6.8464,6.8047,6.781,6.7776,6.8047,6.7687,6.7963,6.8161,6.7963,6.8259,6.8686,6.8863,6.9212,6.9588,6.9664,6.9701,6.9877,7.0023,7.0383,7.0516,7.0744,7.0821,7.0898,7.0898,7.0898,7.0898,7.0879,7.0879,7.0879,7.0783,7.0744,7.0725,7.0706,7.0706,7.0783,7.0802,7.086,7.0898,7.0898,7.0898,7.0898,7.0898,7.0898,7.0898,7.0898,7.0898,7.0898,7.0898,7.0898,7.0898,7.0898,7.0898,7.0898,7.0898,7.0898,7.0898,7.0898,7.0898,7.0898,7.0898,7.0898,7.0898,7.0898,7.0898,7.0898,7.0898,7.0898,7.0898,7.0898,7.0898,7.0898,7.0898,7.0898,7.0918,7.0898,7.0898,7.0898,7.0898,7.0898,7.0898,7.0898,7.0898,7.0898,7.0898,7.0898,7.0898,7.0898,7.0898,6.6359,6.7263,6.8956,7.0167,7.0821,7.0898,7.0898,7.0898,7.0898,7.0898,7.0898,7.0898,7.0898,7.0898,7.0898,7.0898,7.0852,7.0622,7.0362,7.0042,6.9738,6.9569,6.9334,6.9021,6.8866,6.8492,6.8229,6.7982,6.7722,6.7669,6.7669,6.7669,6.7669,6.7669,6.7669,6.7722,6.7844,6.8097,6.8176,6.837,6.8769,6.9128,6.9565,6.9811,7.0068,7.0348,7.0516,7.0783,7.0821,7.0898,7.0898,7.0667,7.061,7.0486,7.0352,7.0198,7.0121,7.0198,7.0247,7.0287,7.0345,7.0412,7.0266,7.0162,7.0486,7.0552,7.0802,7.0821,7.0879,7.0898,7.0898,7.0898,7.0898,7.0898,7.0898,7.0898,7.0898,7.0898,7.0898,7.0898,7.0898,7.0898,7.0898,7.0898,7.0898,7.0918,7.0918,7.1052,7.1014,7.1245,7.1148,7.1091,7.1225,7.1033,7.0898,7.0898,7.0898,7.0898,7.1091,7.0994,7.1033,7.0956,7.0898,7.111,7.1129,7.0898,7.0898,7.1014,7.0937,7.0898,7.0898,7.0898,7.0898,7.0898,7.0898,6.6436,6.7455,6.9148,7.0244,7.0841,7.0898,7.0898,7.0898,7.0898,7.0898,7.0898,7.0898,7.0898,7.0898,7.0898,7.0898,7.0805,7.0573,7.0362,7.0007,6.9775,6.9253,6.8821,6.8567,6.8368,6.821,6.7982,6.7863,6.7669,6.7669,6.7669,6.7669,6.7669,6.7669,6.7669,6.7669,6.7757,6.781,6.7814,6.7724,6.8314,6.8987,6.9359,6.9852,7.0308,7.0551,7.0585,7.0709,7.0709,7.0614,7.0508,7.0297,7.0115,6.9989,6.9798,6.9616,6.9556,6.9633,6.9671,6.9851,6.9823,6.9782,6.9544,6.9774,7.0279,7.0547,7.0796,7.092,7.0997,7.1093,7.1093,7.1129,7.1129,7.1283,7.1283,7.1302,7.1302,7.1302,7.1302,7.1283,7.1283,7.1283,7.1283,7.1245,7.1225,7.1187,7.1187,7.1206,7.1379,7.1822,7.2014,7.1937,7.1984,7.1676,7.1225,7.1418,7.1591,7.1725,7.1918,7.1514,7.1321,7.1706,7.1822,7.1591,7.1533,7.1533,7.1321,7.1321,7.1187,7.1071,7.0898,7.0898,7.0898,7.0898,7.0898,6.6801,6.8302,6.9975,7.0764,7.0898,7.0898,7.0898,7.0898,7.0898,7.0898,7.0898,7.0898,7.0898,7.0898,7.0898,7.0898,7.0824,7.0554,6.9973,6.9492,6.9231,6.8632,6.8229,6.8129,6.793,6.781,6.7757,6.7722,6.7669,6.7669,6.7669,6.7669,6.7669,6.7669,6.7669,6.7669,6.7669,6.7669,6.7669,6.7669,6.7669,6.8047,6.8041,6.8376,6.8662,6.8862,6.915,6.985,6.9865,6.9759,6.9733,6.9752,6.9766,6.9737,6.9618,6.9538,6.9414,6.9648,6.9828,6.9971,7.0091,7.059,7.059,7.0761,7.111,7.1169,7.1363,7.1444,7.1553,7.1753,7.1808,7.1939,7.2014,7.2456,7.2649,7.2687,7.2706,7.2697,7.2717,7.2706,7.2696,7.2706,7.2688,7.2678,7.2668,7.2629,7.258,7.2599,7.2503,7.2715,7.286,7.2783,7.2734,7.2465,7.2157,7.2572,7.2783,7.286,7.283,7.2476,7.2495,7.2937,7.2956,7.2514,7.2533,7.2649,7.236,7.1945,7.1676,7.1541,7.1071,7.0898,7.0975,7.1052,7.1187]},{"header":{"parameterUnit":"m.s-1","parameterCategory":1,"la1":31.0,"la2":29.5877,"lo1":-88.7671,"lo2":-86.6584,"dy":0.0162,"dx":0.0185,"nx":115,"ny":88,"refTime":"2023-11-13T06:00:00:Z","depth":0,"parameterNumber":3,"parameterNumberName":"V-component_of_WINDS"},"data":[0.0,0.0,0.0,0.0,0.0,0.0,0.0,0.0,0.0,0.0,0.0,0.0,0.0,0.0,0.0,0.0,0.0,0.0,0.0,0.0,0.0,0.0,0.0,0.0,0.0,0.0,0.0,0.0,0.0,0.0,0.0,0.0,0.0,0.0,0.0,0.0,0.0,0.0,0.0,0.0,0.0,0.0,0.0,0.0,0.0,0.0,0.0,0.0,0.0,0.0,0.0,0.0,0.0,0.0,0.0,0.0,0.0,0.0,0.0,0.0,0.0,0.0,0.0,0.0,0.0,0.0,0.0,0.0,0.0,0.0,0.0,0.0,0.0,0.0,0.0,0.0,0.0,0.0,0.0,0.0,0.0,0.0,0.0,0.0,0.0,0.0,0.0,0.0,0.0,0.0,0.0,0.0,0.0,0.0,0.0,0.0,0.0,0.0,0.0,0.0,0.0,0.0,0.0,0.0,0.0,0.0,0.0,0.0,0.0,0.0,0.0,0.0,0.0,0.0,0.0,0.0,0.0,0.0,0.0,0.0,0.0,0.0,0.0,0.0,0.0,0.0,0.0,0.0,0.0,0.0,0.0,0.0,0.0,0.0,0.0,0.0,0.0,0.0,0.0,0.0,0.0,0.0,0.0,0.0,0.0,0.0,0.0,0.0,0.0,0.0,0.0,0.0,0.0,0.0,0.0,0.0,0.0,0.0,0.0,0.0,0.0,0.0,0.0,0.0,0.0,0.0,0.0,0.0,0.0,0.0,0.0,0.0,0.0,0.0,0.0,0.0,0.0,0.0,0.0,0.0,0.0,0.0,0.0,0.0,0.0,0.0,0.0,0.0,0.0,0.0,0.0,0.0,0.0,0.0,0.0,0.0,0.0,0.0,0.0,0.0,0.0,0.0,0.0,0.0,0.0,0.0,0.0,0.0,0.0,0.0,0.0,0.0,0.0,0.0,0.0,0.0,0.0,0.0,0.0,0.0,0.0,0.0,0.0,0.0,0.0,0.0,0.0,0.0,0.0,0.0,0.0,0.0,0.0,0.0,0.0,0.0,0.0,0.0,0.0,0.0,0.0,0.0,0.0,0.0,0.0,0.0,0.0,0.0,0.0,0.0,0.0,0.0,0.0,0.0,0.0,0.0,0.0,0.0,0.0,0.0,0.0,0.0,0.0,0.0,0.0,0.0,0.0,0.0,0.0,0.0,0.0,0.0,0.0,0.0,0.0,0.0,0.0,0.0,0.0,0.0,0.0,0.0,0.0,0.0,0.0,0.0,0.0,0.0,0.0,0.0,0.0,0.0,0.0,0.0,0.0,0.0,0.0,0.0,0.0,0.0,0.0,0.0,0.0,0.0,0.0,0.0,0.0,0.0,0.0,0.0,0.0,0.0,0.0,0.0,0.0,0.0,0.0,0.0,0.0,0.0,0.0,0.0,0.0,0.0,0.0,0.0,0.0,0.0,0.0,0.0,0.0,0.0,0.0,0.0,0.0,0.0,0.0,0.0,0.0,0.0,0.0,0.0,0.0,0.0,0.0,0.0,0.0,0.0,0.0,0.0,0.0,0.0,0.0,0.0,0.0,0.0,0.0,0.0,0.0,0.0,0.0,0.0,0.0,0.0,0.0,0.0,0.0,0.0,0.0,0.0,0.0,0.0,0.0,0.0,0.0,0.0,0.0,0.0,0.0,0.0,0.0,0.0,0.0,0.0,0.0,0.0,0.0,0.0,0.0,0.0,0.0,0.0,0.0,0.0,0.0,0.0,0.0,0.0,0.0,0.0,0.0,0.0,0.0,0.0,0.0,0.0,0.0,0.0,0.0,0.0,0.0,0.0,0.0,0.0,0.0,0.0,0.0,0.0,0.0,0.0,0.0,0.0,0.0,0.0,0.0,0.0,0.0,0.0,0.0,0.0,0.0,0.0,0.0,0.0,0.0,0.0,0.0,0.0,0.0,0.0,0.0,0.0,0.0,0.0,0.0,0.0,0.0,0.0,0.0,0.0,0.0,0.0,0.0,0.0,0.0,0.0,0.0,0.0,0.0,0.0,0.0,0.0,0.0,0.0,0.0,0.0,0.0,0.0,0.0,0.0,0.0,0.0,0.0,0.0,0.0,0.0,0.0,0.0,0.0,0.0,0.0,0.0,0.0,0.0,0.0,0.0,0.0,0.0,0.0,0.0,0.0,0.0,0.0,0.0,0.0,0.0,0.0,0.0,0.0,0.0,0.0,0.0,0.0,0.0,0.0,0.0,0.0,0.0,0.0,0.0,0.0,0.0,0.0,0.0,0.0,0.0,0.0,0.0,0.0,0.0,0.0,0.0,0.0,0.0,0.0,0.0,0.0,0.0,0.0,0.0,0.0,0.0,0.0,0.0,0.0,0.0,0.0,0.0,0.0,0.0,0.0,0.0,0.0,0.0,0.0,0.0,0.0,0.0,0.0,0.0,0.0,0.0,0.0,0.0,0.0,0.0,0.0,0.0,0.0,0.0,0.0,0.0,0.0,0.0,0.0,0.0,0.0,0.0,0.0,0.0,0.0,0.0,0.0,0.0,0.0,0.0,0.0,0.0,0.0,0.0,0.0,0.0,0.0,0.0,0.0,0.0,0.0,0.0,0.0,0.0,0.0,0.0,0.0,0.0,0.0,0.0,0.0,0.0,0.0,0.0,0.0,0.0,0.0,0.0,0.0,0.0,0.0,0.0,0.0,0.0,0.0,0.0,0.0,0.0,0.0,0.0,0.0,0.0,0.0,0.0,0.0,0.0,0.0,0.0,0.0,0.0,0.0,0.0,0.0,0.0,0.0,0.0,0.0,0.0,0.0,0.0,0.0,0.0,0.0,0.0,0.0,0.0,0.0,0.0,0.0,0.0,0.0,0.0,0.0,0.0,0.0,0.0,0.0,0.0,0.0,0.0,0.0,0.0,0.0,0.0,0.0,0.0,0.0,0.0,0.0,0.0,0.0,0.0,0.0,0.0,0.0,0.0,0.0,0.0,0.0,0.0,0.0,0.0,0.0,0.0,0.0,0.0,0.0,0.0,0.0,0.0,0.0,0.0,0.0,0.0,0.0,0.0,0.0,0.0,0.0,0.0,0.0,0.0,0.0,0.0,0.0,0.0,0.0,0.0,0.0,0.0,0.0,0.0,0.0,0.0,0.0,0.0,0.0,0.0,0.0,0.0,0.0,0.0,0.0,0.0,0.0,0.0,0.0,0.0,0.0,0.0,0.0,0.0,0.0,0.0,0.0,0.0,0.0,0.0,0.0,0.0,0.0,0.0,0.0,0.0,0.0,0.0,0.0,0.0,0.0,0.0,0.0,0.0,0.0,0.0,0.0,0.0,0.0,0.0,0.0,0.0,0.0,0.0,0.0,0.0,0.0,0.0,0.0,0.0,0.0,0.0,0.0,0.0,0.0,0.0,0.0,0.0,0.0,0.0,0.0,0.0,0.0,0.0,0.0,0.0,0.0,0.0,0.0,0.0,0.0,0.0,0.0,0.0,0.0,0.0,0.0,0.0,0.0,0.0,0.0,0.0,0.0,0.0,0.0,0.0,0.0,0.0,0.0,0.0,0.0,0.0,0.0,0.0,0.0,0.0,0.0,0.0,0.0,0.0,0.0,0.0,0.0,0.0,0.0,0.0,0.0,0.0,0.0,0.0,0.0,0.0,0.0,0.0,0.0,0.0,0.0,0.0,0.0,0.0,0.0,0.0,0.0,0.0,0.0,0.0,0.0,0.0,0.0,0.0,0.0,0.0,0.0,0.0,0.0,0.0,0.0,0.0,0.0,0.0,0.0,0.0,0.0,0.0,0.0,0.0,0.0,0.0,0.0,0.0,0.0,0.0,0.0,0.0,0.0,0.0,0.0,0.0,0.0,0.0,0.0,0.0,0.0,0.0,0.0,0.0,0.0,0.0,0.0,0.0,0.0,0.0,0.0,0.0,0.0,0.0,0.0,0.0,0.0,0.0,0.0,0.0,0.0,0.0,0.0,0.0,0.0,0.0,0.0,0.0,0.0,0.0,0.0,0.0,0.0,0.0,0.0,0.0,0.0,0.0,0.0,0.0,0.0,0.0,0.0,0.0,0.0,0.0,0.0,0.0,0.0,0.0,0.0,0.0,0.0,0.0,0.0,0.0,0.0,0.0,0.0,0.0,0.0,0.0,0.0,0.0,0.0,0.0,0.0,0.0,0.0,0.0,0.0,0.0,0.0,0.0,0.0,0.0,0.0,0.0,0.0,0.0,0.0,0.0,0.0,0.0,0.0,0.0,0.0,0.0,0.0,0.0,0.0,0.0,0.0,0.0,0.0,0.0,0.0,0.0,0.0,0.0,0.0,0.0,0.0,0.0,0.0,0.0,0.0,0.0,0.0,0.0,0.0,0.0,0.0,0.0,0.0,0.0,0.0,0.0,0.0,0.0,0.0,0.0,0.0,0.0,0.0,0.0,0.0,0.0,0.0,0.0,0.0,0.0,0.0,0.0,0.0,0.0,0.0,0.0,0.0,0.0,0.0,0.0,0.0,0.0,0.0,0.0,0.0,0.0,0.0,0.0,0.0,0.0,0.0,0.0,0.0,0.0,0.0,0.0,0.0,0.0,0.0,0.0,0.0,0.0,0.0,0.0,0.0,0.0,0.0,0.0,0.0,0.0,0.0,0.0,0.0,0.0,0.0,0.0,0.0,0.0,0.0,0.0,0.0,0.0,0.0,0.0,0.0,0.0,0.0,0.0,0.0,0.0,0.0,0.0,0.0,0.0,0.0,0.0,0.0,0.0,0.0,0.0,0.0,0.0,0.0,0.0,0.0,0.0,0.0,0.0,0.0,0.0,0.0,0.0,0.0,0.0,0.0,0.0,0.0,0.0,0.0,0.0,0.0,0.0,0.0,0.0,0.0,0.0,0.0,0.0,0.0,0.0,0.0,0.0,0.0,0.0,0.0,0.0,0.0,0.0,0.0,0.0,0.0,0.0,0.0,0.0,0.0,0.0,0.0,0.0,0.0,0.0,0.0,0.0,0.0,0.0,0.0,0.0,0.0,0.0,0.0,0.0,0.0,0.0,0.0,0.0,0.0,0.0,0.0,0.0,0.0,0.0,0.0,0.0,0.0,0.0,0.0,0.0,0.0,0.0,0.0,0.0,0.0,0.0,0.0,0.0,0.0,0.0,0.0,0.0,0.0,0.0,0.0,0.0,0.0,0.0,0.0,0.0,0.0,0.0,0.0,0.0,0.0,0.0,0.0,0.0,0.0,0.0,0.0,0.0,0.0,0.0,0.0,0.0,0.0,0.0,0.0,0.0,0.0,0.0,0.0,0.0,0.0,0.0,0.0,0.0,0.0,0.0,0.0,0.0,0.0,0.0,0.0,0.0,0.0,0.0,0.0,0.0,0.0,0.0,0.0,0.0,0.0,0.0,0.0,0.0,0.0,0.0,0.0,0.0,0.0,0.0,0.0,0.0,0.0,0.0,0.0,0.0,0.0,0.0,0.0,0.0,0.0,0.0,0.0,0.0,0.0,0.0,0.0,0.0,0.0,0.0,0.0,0.0,0.0,0.0,0.0,0.0,0.0,0.0,0.0,0.0,0.0,0.0,0.0,0.0,0.0,0.0,0.0,0.0,0.0,0.0,0.0,0.0,0.0,0.0,0.0,0.0,0.0,0.0,0.0,0.0,0.0,0.0,0.0,0.0,0.0,0.0,0.0,0.0,0.0,0.0,0.0,0.0,0.0,0.0,0.0,0.0,0.0,0.0,0.0,0.0,0.0,0.0,0.0,0.0,0.0,0.0,0.0,0.0,0.0,0.0,0.0,0.0,0.0,0.0,0.0,0.0,0.0,0.0,0.0,0.0,0.0,0.0,0.0,0.0,0.0,0.0,0.0,0.0,0.0,0.0,0.0,0.0,0.0,0.0,0.0,0.0,0.0,0.0,0.0,0.0,0.0,0.0,0.0,0.0,0.0,0.0,0.0,0.0,0.0,0.0,0.0,0.0,0.0,0.0,0.0,0.0,0.0,0.0,0.0,0.0,0.0,0.0,0.0,0.0,0.0,0.0,0.0,0.0,0.0,0.0,0.0,0.0,0.0,0.0,0.0,0.0,0.0,0.0,0.0,0.0,0.0,0.0,0.0,0.0,0.0,0.0,0.0,0.0,0.0,0.0,0.0,0.0,0.0,0.0,0.0,0.0,0.0,0.0,0.0,0.0,0.0,0.0,0.0,0.0,0.0,0.0,0.0,0.0,0.0,0.0,0.0,0.0,0.0,0.0,0.0,0.0,0.0,0.0,0.0,0.0,0.0,0.0,0.0,0.0,0.0,0.0,0.0,0.0,0.0,0.0,0.0,0.0,0.0,0.0,0.0,0.0,0.0,0.0,0.0,0.0,0.0,0.0,0.0,0.0,0.0,0.0,0.0,0.0,0.0,0.0,0.0,0.0,0.0,0.0,0.0,0.0,0.0,0.0,0.0,0.0,0.0,0.0,0.0,0.0,0.0,0.0,0.0,0.0,0.0,0.0,0.0,0.0,0.0,0.0,0.0,0.0,0.0,0.0,0.0,0.0,0.0,0.0,0.0,0.0,0.0,0.0,0.0,0.0,0.0,0.0,0.0,0.0,0.0,0.0,0.0,0.0,0.0,0.0,0.0,0.0,0.0,0.0,0.0,0.0,0.0,0.0,0.0,0.0,0.0,0.0,0.0,0.0,0.0,0.0,0.0,0.0,0.0,0.0,0.0,0.0,0.0,0.0,0.0,0.0,0.0,0.0,0.0,0.0,0.0,0.0,0.0,0.0,0.0,0.0,0.0,0.0,0.0,0.0,0.0,0.0,0.0,0.0,0.0,0.0,0.0,0.0,0.0,0.0,0.0,0.0,0.0,0.0,0.0,0.0,0.0,0.0,0.0,0.0,0.0,0.0,0.0,0.0,0.0,0.0,0.0,0.0,0.0,0.0,0.0,0.0,0.0,0.0,0.0,0.0,0.0,0.0,0.0,0.0,0.0,0.0,0.0,0.0,0.0,0.0,0.0,0.0,0.0,0.0,0.0,0.0,0.0,0.0,0.0,0.0,0.0,0.0,0.0,0.0,0.0,0.0,0.0,0.0,0.0,0.0,0.0,0.0,0.0,0.0,0.0,0.0,0.0,0.0,0.0,0.0,0.0,0.0,0.0,0.0,0.0,0.0,0.0,0.0,0.0,0.0,0.0,0.0,0.0,0.0,0.0,0.0,0.0,0.0,0.0,0.0,0.0,0.0,0.0,0.0,0.0,0.0,0.0,0.0,0.0,0.0,0.0,0.0,0.0,0.0,0.0,0.0,0.0,0.0,0.0,0.0,0.0,0.0,0.0,0.0,0.0,0.0,0.0,0.0,0.0,0.0,0.0,0.0,0.0,0.0,0.0,0.0,0.0,0.0,0.0,0.0,0.0,0.0,0.0,0.0,0.0,0.0,0.0,0.0,0.0,0.0,0.0,0.0,0.0,0.0,0.0,0.0,0.0,0.0,0.0,0.0,0.0,0.0,0.0,0.0,0.0,0.0,0.0,0.0,0.0,0.0,0.0,0.0,0.0,0.0,0.0,0.0,0.0,0.0,0.0,0.0,0.0,0.0,0.0,0.0,0.0,0.0,0.0,0.0,0.0,0.0,0.0,0.0,0.0,0.0,0.0,0.0,0.0,0.0,0.0,0.0,0.0,0.0,0.0,0.0,0.0,0.0,0.0,0.0,0.0,0.0,0.0,0.0,0.0,0.0,0.0,0.0,0.0,0.0,0.0,0.0,0.0,0.0,0.0,0.0,0.0,0.0,0.0,0.0,0.0,0.0,0.0,0.0,0.0,0.0,0.0,0.0,0.0,0.0,0.0,0.0,0.0,0.0,0.0,0.0,0.0,0.0,0.0,0.0,0.0,0.0,0.0,0.0,0.0,0.0,0.0,0.0,0.0,0.0,0.0,0.0,0.0,0.0,0.0,0.0,0.0,0.0,0.0,0.0,0.0,0.0,0.0,0.0,0.0,0.0,0.0,0.0,0.0,0.0,0.0,0.0,0.0,0.0,0.0,0.0,0.0,0.0,0.0,0.0,0.0,0.0,0.0,0.0,0.0,0.0,0.0,0.0,0.0,0.0,0.0,0.0,0.0,0.0,0.0,0.0,0.0,0.0,0.0,0.0,0.0,0.0,0.0,0.0,0.0,0.0,0.0,0.0,0.0,0.0,0.0,0.0,0.0,0.0,0.0,0.0,0.0,0.0,0.0,0.0,0.0,0.0,0.0,0.0,0.0,0.0,0.0,0.0,0.0,0.0,0.0,0.0,0.0,0.0,0.0,0.0,0.0,0.0,0.0,0.0,0.0,0.0,0.0,0.0,0.0,0.0,0.0,0.0,0.0,0.0,0.0,0.0,0.0,0.0,0.0,0.0,0.0,0.0,0.0,0.0,0.0,0.0,0.0,0.0,0.0,0.0,0.0,0.0,0.0,0.0,0.0,0.0,0.0,0.0,0.0,0.0,0.0,0.0,0.0,0.0,0.0,0.0,0.0,0.0,0.0,0.0,0.0,0.0,0.0,0.0,0.0,0.0,0.0,0.0,0.0,0.0,0.0,0.0,0.0,0.0,0.0,0.0,0.0,0.0,0.0,0.0,0.0,0.0,0.0,0.0,0.0,0.0,0.0,0.0,0.0,0.0,0.0,0.0,0.0,0.0,0.0,0.0,0.0,0.0,0.0,0.0,0.0,0.0,0.0,0.0,0.0,0.0,0.0,0.0,0.0,0.0,0.0,0.0,0.0,0.0,0.0,0.0,0.0,0.0,0.0,0.0,0.0,0.0,0.0,0.0,0.0,0.0,0.0,0.0,0.0,0.0,0.0,0.0,0.0,0.0,0.0,0.0,0.0,0.0,0.0,0.0,0.0,0.0,0.0,0.0,0.0,0.0,0.0,0.0,0.0,0.0,0.0,0.0,0.0,0.0,0.0,0.0,0.0,0.0,0.0,0.0,0.0,0.0,0.0,0.0,0.0,0.0,0.0,0.0,0.0,0.0,0.0,0.0,0.0,0.0,0.0,0.0,0.0,0.0,0.0,0.0,0.0,0.0,0.0,0.0,0.0,0.0,0.0,0.0,0.0,0.0,0.0,0.0,0.0,0.0,0.0,0.0,0.0,0.0,0.0,0.0,0.0,0.0,0.0,0.0,0.0,0.0,0.0,0.0,0.0,0.0,0.0,0.0,0.0,0.0,0.0,0.0,0.0,0.0,0.0,0.0,0.0,0.0,0.0,0.0,0.0,0.0,0.0,0.0,0.0,0.0,0.0,0.0,0.0,0.0,0.0,0.0,0.0,0.0,0.0,0.0,0.0,0.0,0.0,0.0,0.0,0.0,0.0,0.0,0.0,0.0,0.0,0.0,0.0,0.0,0.0,0.0,0.0,0.0,0.0,0.0,0.0,0.0,0.0,0.0,0.0,0.0,0.0,0.0,0.0,0.0,0.0,0.0,0.0,0.0,0.0,0.0,0.0,0.0,0.0,0.0,0.0,0.0,0.0,0.0,0.0,0.0,0.0,0.0,0.0,0.0,0.0,0.0,0.0,0.0,0.0,0.0,0.0,0.0,0.0,0.0,0.0,0.0,0.0,0.0,0.0,0.0,0.0,0.0,0.0,0.0,0.0,0.0,0.0,0.0,0.0,0.0,0.0,0.0,0.0,0.0,0.0,0.0,0.0,0.0,0.0,0.0,0.0,0.0,0.0,0.0,0.0,0.0,0.0,0.0,0.0,0.0,0.0,0.0,0.0,0.0,0.0,0.0,0.0,0.0,0.0,0.0,0.0,0.0,0.0,0.0,0.0,0.0,0.0,0.0,0.0,0.0,0.0,0.0,0.0,0.0,0.0,0.0,0.0,0.0,0.0,0.0,0.0,0.0,0.0,0.0,0.0,0.0,0.0,0.0,0.0,0.0,0.0,0.0,0.0,0.0,0.0,0.0,0.0,0.0,0.0,0.0,0.0,0.0,0.0,0.0,0.0,0.0,0.0,0.0,0.0,0.0,0.0,0.0,0.0,0.0,0.0,0.0,0.0,0.0,0.0,0.0,0.0,0.0,0.0,0.0,0.0,0.0,0.0,0.0,0.0,0.0,0.0,0.0,0.0,0.0,0.0,0.0,0.0,0.0,0.0,0.0,0.0,0.0,0.0,0.0,0.0,0.0,0.0,0.0,0.0,0.0,0.0,0.0,0.0,0.0,0.0,0.0,0.0,0.0,0.0,0.0,0.0,0.0,0.0,0.0,0.0,0.0,0.0,0.0,0.0,0.0,0.0,0.0,0.0,0.0,0.0,0.0,0.0,0.0,0.0,0.0,0.0,0.0,0.0,0.0,0.0,0.0,0.0,0.0,0.0,0.0,0.0,0.0,0.0,0.0,0.0,0.0,0.0,0.0,0.0,0.0,0.0,0.0,0.0,0.0,0.0,0.0,0.0,0.0,0.0,0.0,0.0,0.0,0.0,0.0,0.0,0.0,0.0,0.0,0.0,0.0,0.0,0.0,0.0,0.0,0.0,0.0,0.0,0.0,0.0,0.0,0.0,0.0,0.0,0.0,0.0,0.0,0.0,0.0,0.0,0.0,0.0,0.0,0.0,0.0,0.0,0.0,0.0,0.0,0.0,0.0,0.0,0.0,0.0,0.0,0.0,0.0,0.0,0.0,0.0,0.0,0.0,0.0,0.0,0.0,0.0,0.0,0.0,0.0,0.0,0.0,0.0,0.0,0.0,0.0,0.0,0.0,0.0,0.0,0.0,0.0,0.0,0.0,0.0,0.0,0.0,0.0,0.0,0.0,0.0,0.0,0.0,0.0,0.0,0.0,0.0,0.0,0.0,0.0,0.0,0.0,0.0,0.0,0.0,0.0,0.0,0.0,0.0,0.0,0.0,0.0,0.0,0.0,0.0,0.0,0.0,0.0,0.0,0.0,0.0,0.0,0.0,0.0,0.0,0.0,0.0,0.0,0.0,0.0,0.0,0.0,0.0,0.0,0.0,0.0,0.0,0.0,0.0,0.0,0.0,0.0,0.0,0.0,0.0,0.0,0.0,0.0,0.0,0.0,0.0,0.0,0.0,0.0,0.0,0.0,0.0,0.0,0.0,0.0,0.0,0.0,0.0,0.0,0.0,0.0,0.0,0.0,0.0,0.0,0.0,0.0,0.0,0.0,0.0,0.0,0.0,0.0,0.0,0.0,0.0,0.0,0.0,0.0,0.0,0.0,0.0,0.0,0.0,0.0,0.0,0.0,0.0,0.0,0.0,0.0,0.0,0.0,0.0,0.0,0.0,0.0,0.0,0.0,0.0,0.0,0.0,0.0,0.0,0.0,0.0,0.0,0.0,0.0,0.0,0.0,0.0,0.0,0.0,0.0,0.0,0.0,0.0,0.0,0.0,0.0,0.0,0.0,0.0,0.0,0.0,0.0,0.0,0.0,0.0,0.0,0.0,0.0,0.0,0.0,0.0,0.0,0.0,0.0,0.0,0.0,0.0,0.0,0.0,0.0,0.0,0.0,0.0,0.0,0.0,0.0,0.0,0.0,0.0,0.0,0.0,0.0,0.0,0.0,0.0,0.0,0.0,0.0,0.0,0.0,0.0,0.0,0.0,0.0,0.0,0.0,0.0,0.0,0.0,0.0,0.0,0.0,0.0,0.0,0.0,0.0,0.0,0.0,0.0,0.0,0.0,0.0,0.0,0.0,0.0,0.0,0.0,0.0,0.0,0.0,0.0,0.0,0.0,0.0,0.0,0.0,0.0,0.0,0.0,0.0,0.0,0.0,0.0,0.0,0.0,0.0,0.0,0.0,0.0,0.0,0.0,0.0,0.0,0.0,0.0,0.0,0.0,0.0,0.0,0.0,0.0,0.0,0.0,0.0,0.0,0.0,0.0,0.0,0.0,0.0,0.0,0.0,0.0,0.0,0.0,0.0,0.0,0.0,0.0,0.0,0.0,0.0,0.0,0.0,0.0,0.0,0.0,0.0,0.0,0.0,0.0,0.0,0.0,0.0,0.0,0.0,0.0,0.0,0.0,0.0,0.0,0.0,0.0,0.0,0.0,0.0,0.0,0.0,0.0,0.0,0.0,0.0,0.0,0.0,0.0,0.0,0.0,0.0,0.0,0.0,0.0,0.0,0.0,0.0,0.0,0.0,0.0,0.0,0.0,0.0,0.0,0.0,0.0,0.0,0.0,0.0,0.0,0.0,0.0,0.0,0.0,0.0,0.0,0.0,0.0,0.0,0.0,0.0,0.0,0.0,0.0,0.0,0.0,0.0,0.0,0.0,0.0,0.0,0.0,0.0,0.0,0.0,0.0,0.0,0.0,0.0,0.0,0.0,0.0,0.0,0.0,0.0,0.0,0.0,0.0,0.0,0.0,0.0,0.0,0.0,0.0,0.0,0.0,0.0,0.0,0.0,0.0,0.0,0.0,0.0,0.0,0.0,0.0,0.0,0.0,0.0,0.0,0.0,0.0,0.0,0.0,0.0,0.0,0.0,0.0,0.0,0.0,0.0,0.0,0.0,0.0,0.0,0.0,0.0,0.0,0.0,0.0,0.0,0.0,0.0,0.0,0.0,0.0,0.0,0.0,0.0,0.0,0.0,0.0,0.0,0.0,0.0,0.0,0.0,-0.5222,0.0,0.0,0.0,0.0,0.0,0.0,0.0,0.0,0.0,0.0,0.0,0.0,0.0,0.0,0.0,0.0,0.0,0.0,0.0,0.0,0.0,0.0,0.0,0.0,0.0,0.0,0.0,0.0,0.0,0.0,0.0,0.0,0.0,0.0,0.0,0.0,0.0,0.0,0.0,0.0,0.0,0.0,0.0,0.0,0.0,0.0,0.0,0.0,0.0,0.0,0.0,0.0,0.0,0.0,0.0,0.0,0.0,0.0,0.0,0.0,0.0,0.0,0.0,0.0,0.0,0.0,0.0,0.0,0.0,0.0,0.0,0.0,0.0,0.0,0.0,0.0,0.0,0.0,0.0,0.0,0.0,0.0,0.0,0.0,0.0,0.0,0.0,0.0,0.0,0.0,0.0,0.0,0.0,0.0,0.0,0.0,0.0,0.0,0.0,0.0,0.0,0.0,0.0,0.0,0.0,0.0,0.0,0.0,0.0,0.0,0.0,0.0,0.0,0.0,0.0,0.0,0.0,0.0,0.0,0.0,0.0,0.0,0.0,0.0,0.0,0.0,0.0,0.0,0.0,0.0,0.0,0.0,0.0,0.0,0.0,0.0,0.0,0.0,0.0,0.0,0.0,0.0,0.0,0.0,0.0,0.0,0.0,0.0,0.0,0.0,0.0,0.0,0.0,0.0,0.0,0.0,0.0,0.0,0.0,0.0,0.0,0.0,0.0,0.0,0.0,0.0,0.0,0.0,0.0,0.0,0.0,0.0,0.0,0.0,0.0,0.0,0.0,0.0,0.0,0.0,0.0,0.0,0.0,0.0,0.0,0.0,0.0,0.0,0.0,0.0,0.0,0.0,0.0,0.0,0.0,0.0,0.0,0.0,0.0,0.0,0.0,0.0,0.0,0.0,0.0,0.0,0.0,0.0,0.0,0.0,0.0,0.0,0.0,0.0,0.0,0.0,0.0,0.0,0.0,0.0,-0.7949,-0.3399,0.0,0.0,0.0,0.0,0.0,0.0,0.0,0.0,-0.3534,0.0,0.0,0.0,0.0,0.0,0.0,0.0,0.0,0.0,0.0,0.0,0.0,0.0,0.0,0.0,0.0,0.0,0.0,0.0,0.0,0.0,0.0,0.0,0.0,0.0,0.0,0.0,0.0,0.0,0.0,0.0,0.0,0.0,0.0,0.0,0.0,0.0,0.0,0.0,0.0,0.0,0.0,0.0,0.0,0.0,0.0,0.0,0.0,0.0,0.0,0.0,0.0,0.0,0.0,0.0,0.0,0.0,0.0,0.0,0.0,0.0,0.0,0.0,0.0,0.0,0.0,0.0,0.0,0.0,0.0,0.0,0.0,0.0,0.0,0.0,0.0,0.0,0.0,0.0,0.0,0.0,0.0,0.0,0.0,0.0,0.0,0.0,0.0,0.0,0.0,0.0,0.0,0.0,0.0,0.0,0.0,0.0,0.0,0.0,0.0,0.0,0.0,0.0,0.0,0.0,-0.3409,-0.03,0.0,0.0,0.0,0.0,0.0,0.0,0.0,0.0,0.0,0.0,0.0,0.0,0.0,0.0,0.0,0.0,0.0,0.0,0.0,0.0,0.0,0.0,0.0,0.0,0.0,0.0,0.0,0.0,0.0,0.0,0.0,0.0,0.0,0.0,0.0,0.0,0.0,0.0,0.0,0.0,0.0,0.0,0.0,0.0,0.0,0.0,0.0,0.0,0.0,0.0,0.0,0.0,0.0,0.0,0.0,0.0,0.0,0.0,0.0,0.0,0.0,0.0,0.0,0.0,0.0,0.0,0.0,0.0,0.0,0.0,0.0,0.0,0.0,0.0,0.0,0.0,0.0,0.0,0.0,0.0,0.0,0.0,0.0,0.0,0.0,0.0,0.0,0.0,0.0,0.0,0.0,0.0,0.0,0.0,0.0,0.0,0.0,0.0,0.0,0.0,0.0,0.0,0.0,0.0,0.0,0.0,0.0,0.0,0.0,0.0,0.0,0.0,0.0,-0.1603,0.0,0.0,0.0,0.0,0.0,0.0,0.0,0.0,-0.1714,0.0,0.0,0.0,0.0,0.0,0.0,0.0,0.0,0.0,0.0,0.0,0.0,0.0,0.0,0.0,0.0,0.0,0.0,0.0,0.0,0.0,0.0,0.0,0.0,0.0,0.0,0.0,0.0,0.0,0.0,0.0,0.0,0.0,0.0,0.0,0.0,0.0,0.0,0.0,0.0,0.0,0.0,0.0,0.0,0.0,0.0,0.0,0.0,0.0,0.0,0.0,0.0,0.0,0.0,0.0,0.0,0.0,0.0,0.0,0.0,0.0,0.0,0.0,0.0,0.0,0.0,0.0,0.0,0.0,0.0,0.0,0.0,0.0,0.0,0.0,0.0,0.0,0.0,0.0,0.0,0.0,0.0,0.0,0.0,0.0,0.0,0.0,0.0,0.0,0.0,0.0,0.0,0.0,0.0,0.0,0.0,0.0,0.0,0.0,0.0,0.0,0.0,0.0,0.0,0.0,0.0,0.0,0.0,-0.3629,0.0,0.0,0.0,0.0,0.0,0.0,0.0,0.0,0.0,0.0,0.0,0.0,0.0,0.0,0.0,0.0,0.0,0.0,0.0,0.0,0.0,0.0,0.0,0.0,0.0,0.0,0.0,0.0,0.0,0.0,0.0,0.0,0.0,0.0,0.0,0.0,0.0,0.0,0.0,0.0,0.0,0.0,0.0,0.0,0.0,0.0,0.0,0.0,0.0,0.0,0.0,0.0,0.0,0.0,0.0,0.0,0.0,0.0,0.0,0.0,0.0,0.0,0.0,0.0,0.0,0.0,0.0,0.0,0.0,0.0,0.0,0.0,0.0,0.0,0.0,0.0,0.0,0.0,0.0,0.0,0.0,0.0,0.0,0.0,0.0,0.0,0.0,0.0,0.0,0.0,0.0,0.0,0.0,0.0,0.0,0.0,0.0,0.0,0.0,0.0,0.0,0.0,0.0,0.0,0.0,0.0,0.0,0.0,0.0,0.0,0.0,0.0,0.0,0.0,-0.0503,0.0,0.0,0.0,0.0,-0.0101,0.0,0.0,0.0,0.0,0.0,0.0,0.0,0.0,0.0,0.0,0.0,0.0,0.0,0.0,0.0,0.0,0.0,0.0,0.0,0.0,0.0,0.0,0.0,0.0,0.0,0.0,0.0,0.0,0.0,0.0,0.0,0.0,0.0,0.0,0.0,0.0,0.0,0.0,0.0,0.0,0.0,0.0,0.0,0.0,0.0,0.0,0.0,0.0,0.0,0.0,0.0,0.0,0.0,0.0,0.0,0.0,0.0,0.0,0.0,0.0,0.0,0.0,0.0,0.0,0.0,0.0,0.0,0.0,0.0,0.0,0.0,0.0,0.0,0.0,0.0,0.0,0.0,0.0,0.0,0.0,0.0,0.0,0.0,0.0,0.0,0.0,0.0,0.0,0.0,0.0,0.0,0.0,0.0,0.0,0.0,0.0,0.0,0.0,0.0,0.0,0.0,0.0,0.0,0.0,0.0,0.0,0.0,0.0,-0.0402,0.0,0.0,0.0,0.0,0.0,0.0,0.0,0.0,0.0,0.0,0.0,0.0,0.0,0.0,0.0,0.0,0.0,0.0,0.0,0.0,0.0,0.0,0.0,0.0,0.0,0.0,0.0,0.0,0.0,0.0,0.0,0.0,0.0,0.0,0.0,0.0,0.0,0.0,0.0,0.0,0.0,0.0,0.0,0.0,0.0,0.0,0.0,0.0,0.0,0.0,0.0,0.0,0.0,0.0,0.0,0.0,0.0,0.0,0.0,0.0,0.0,0.0,0.0,0.0,0.0,0.0,0.0,0.0,0.0,0.0,0.0,0.0,0.0,0.0,0.0,0.0,0.0,0.0,0.0,0.0,0.0,0.0,0.0,0.0,0.0,0.0,0.0,0.0,0.0,0.0,0.0,0.0,0.0,0.0,0.0,0.0,0.0,0.0,0.0,0.0,0.0,0.0,0.0,0.0,0.0,0.0,0.0,0.0,0.0,0.0,0.0,0.0,0.0,-0.4533,-0.0504,0.0,0.0,0.0,0.0,0.0,0.0,0.0,0.0,0.0,0.0,0.0,0.0,0.0,0.0,0.0,0.0,0.0,0.0,0.0,0.0,0.0,0.0,0.0,0.0,0.0,0.0,0.0,0.0,0.0,0.0,0.0,0.0,0.0,0.0,0.0,0.0,0.0,0.0,0.0,0.0,0.0,0.0,0.0,0.0,0.0,0.0,0.0,0.0,0.0,0.0,0.0,0.0,0.0,0.0,0.0,0.0,0.0,0.0,0.0,0.0,0.0,0.0,0.0,0.0,0.0,0.0,0.0,0.0,0.0,0.0,0.0,0.0,0.0,0.0,0.0,0.0,0.0,0.0,0.0,0.0,0.0,0.0,0.0,0.0,0.0,0.0,0.0,0.0,0.0,0.0,0.0,0.0,0.0,0.0,0.0,0.0,0.0,0.0,0.0,0.0,0.0,0.0,0.0,0.0,0.0,0.0,0.0,0.0,0.0,0.0,0.0,0.0,0.0,0.0,-0.0,0.0,0.0,0.0,0.0,0.0,0.0,0.0,0.0,0.0,0.0,0.0,0.0,0.0,0.0,0.0,0.0,0.0,0.0,0.0,0.0,0.0,0.0,0.0,0.0,0.0,0.0,0.0,0.0,0.0,0.0,0.0,0.0,0.0,0.0,0.0,0.0,0.0,0.0,0.0,0.0,0.0,0.0,0.0,0.0,0.0,0.0,0.0,0.0,0.0,0.0,0.0,0.0,0.0,0.0,0.0,0.0,0.0,0.0,0.0,0.0,0.0,0.0,0.0,0.0,0.0,0.0,0.0,0.0,0.0,0.0,0.0,0.0,0.0,0.0,0.0,0.0,0.0,0.0,0.0,0.0,0.0,0.0,0.0,0.0,0.0,0.0,0.0,0.0,0.0,0.0,0.0,0.0,0.0,0.0,0.0,0.0,0.0,0.0,0.0,0.0,0.0,0.0,0.0,0.0,0.0,0.0,0.0,0.0,0.0,0.0,0.0,0.0,0.0,0.0,0.0,0.0,0.0,0.0,0.0,0.0,0.0,0.0,0.0,0.0,0.0,0.0,0.0,0.0,0.0,0.0,0.0,0.0,0.0,0.0,0.0,0.0,0.0,0.0,0.0,0.0,0.0,0.0,0.0,0.0,0.0,0.0,0.0,0.0,0.0,0.0,0.0,0.0,0.0,0.0,0.0,0.0,0.0,0.0,0.0,0.0,0.0,0.0,0.0,0.0,0.0,0.0,0.0,0.0,0.0,0.0,0.0,0.0,0.0,0.0,0.0,0.0,0.0,0.0,0.0,0.0,0.0,0.0,0.0,0.0,0.0,0.0,0.0,0.0,0.0,0.0,0.0,0.0,0.0,0.0,0.0,0.0,0.0,0.0,0.0,0.0,0.0,0.0,0.0,0.0,0.0,0.0,0.0,0.0,0.0,0.0,0.0,0.0,0.0,0.0,0.0,0.0,0.0,0.0,0.0,0.0,0.0,0.0,0.0,0.0,0.0,0.0,0.0,0.0,0.0,0.0,0.0,0.0,0.0,0.0,0.0,0.0,0.0,0.0,0.0,0.0,0.0,0.0,0.0,0.0,0.0,0.0,0.0,0.0,0.0,0.0,0.0,0.0,0.0,0.0,0.0,0.0,0.0,0.0,0.0,0.0,0.0,0.0,0.0,0.0,0.0,0.0,0.0,0.0,0.0,0.0,0.0,0.0,0.0,0.0,0.0,0.0,0.0,0.0,0.0,0.0,0.0,0.0,0.0,0.0,0.0,0.0,0.0,0.0,0.0,0.0,0.0,0.0,0.0,0.0,0.0,0.0,0.0,0.0,0.0,0.0,0.0,0.0,0.0,0.0,0.0,0.0,0.0,0.0,0.0,0.0,0.0,0.0,0.0,0.0,0.0,0.0,0.0,0.0,0.0,0.0,0.0,0.0,0.0,0.0,0.0,0.0,0.0,0.0,0.0,0.0,0.0,0.0,0.0,0.0,0.0,0.0,0.0,0.0,0.0,0.0,0.0,0.0,0.0,0.0,0.0,0.0,0.0,0.0,0.0,0.0,0.0,0.0,0.0,0.0,0.0,0.0,0.0,0.0,0.0,0.0,0.0,0.0,0.0,0.0,0.0,0.0,0.0,0.0,0.0,0.0,0.0,0.0,0.0,0.0,0.0,0.0,0.0,0.0,0.0,0.0,0.333,0.0,0.0,0.0,0.0,0.0,0.0,0.0,0.0,0.0,0.0,0.0,0.0,0.0,0.0,0.0,0.0,0.0,0.0,0.0,0.0,0.0,0.0,0.0,0.0,0.0,0.0,0.0,0.0,0.0,0.0,0.0,0.0,0.0,0.0,0.0,0.0,0.0,0.0,0.0,0.0,0.0,0.0,0.0,0.0,0.0,0.0,0.0,0.0,0.0,0.0,0.0,0.0,0.0,0.0,0.0,0.0,0.0,0.0,0.0,0.0,0.0,0.0,0.0,0.0,0.0,0.0,0.0,0.0,0.0,0.0,0.0,0.0,0.0,0.0,0.0,0.0,0.0,0.0,0.0,0.0,0.0,0.0,0.0,0.0,0.0,0.0,0.0,0.0,0.0,0.0,0.0,0.0,0.0,0.0,0.0,0.0,0.0,0.0,0.0,0.0,0.0,0.0,0.0,0.0,0.0,0.0,0.0,0.0,0.0,0.0,0.0,0.0,0.0,0.0,0.606,0.0,0.1809,0.0,0.0,0.0,0.0,0.0,0.0,0.0,0.0,0.0,0.0,0.0,0.0,0.0,0.0,0.0,0.101,0.0,0.0,0.0,0.0,0.0,0.0,0.0,0.0,0.0,0.0,0.1817,0.2321,0.1411,0.1411,0.1813,0.2722,0.1007,0.0906,0.2715,0.6152,0.6356,0.0,0.0,0.0,0.0,0.0,0.0,0.0,0.0,0.0,0.0,0.0,0.0,0.0,0.0,0.0,0.0,0.0,0.0,0.0,0.0,0.0,0.0,0.0,0.0,0.0,0.0,0.0,0.0,0.0,0.0,0.0,0.0,0.0,0.0,0.0,0.0,0.0,0.0,0.0,0.0,0.0,0.0,0.0,0.0,0.0,0.0,0.0,0.0,0.0,0.0,0.0,0.0,0.0,0.0,0.0,0.0,0.0,0.0,0.0,0.0,0.0,0.0,0.0,0.0,0.0,0.0,0.0,0.0,0.0,0.0,0.0,0.0,0.0,0.0,0.6962,0.7889,0.0,0.5229,0.0,0.0,0.0,0.0,0.0,0.0,0.0,0.0,0.0,0.0,0.0,0.0,0.0,0.0,0.0,0.2827,0.7308,0.2729,0.0,0.0,0.0,0.0,0.0,0.0,0.0101,0.0,0.5166,0.6687,0.4228,0.4128,0.5343,0.7701,0.3013,0.2711,0.7585,0.7892,0.7989,0.7889,0.3116,0.0,0.0,0.0,0.0,0.0,0.0,0.0,0.0,0.0,0.0,0.0,0.0,0.0,0.0,0.0,0.0,0.0,0.0,0.0,0.0,0.0,0.0,0.0,0.0,0.0,0.0,0.0,0.0,0.0,0.0,0.0,0.0,0.0,0.0,0.0,0.0,0.0,0.0,0.0,0.0,0.0,0.0,0.0,0.0,0.0,0.0,0.0,0.0,0.0,0.0,0.0,0.0,0.0,0.0,0.0,0.0,0.0,0.0,0.0,0.0,0.0,0.0,0.0,0.0,0.4573,0.0,0.0,0.0,0.0,0.7178,0.7578,0.6951,0.7669,0.7979,0.7975,0.716,0.0,0.0,0.0,0.0,0.0,0.0,0.2815,0.2815,0.2814,0.2814,0.2814,0.2814,0.2814,0.2814,0.2815,0.3747,0.5444,0.5865,0.3982,0.0101,0.0,0.0,0.0,0.0,0.2165,0.0521,0.5552,0.789,0.6925,0.7136,0.7565,0.8314,0.6613,0.6457,0.7916,0.8016,0.7959,0.7975,0.6545,0.0,0.0,0.0,0.0,0.0,0.0,0.0,0.0,0.0,0.0,0.0,0.0,0.0,0.0,0.0,0.0,0.0,0.0,0.0,0.0,0.0,0.0,0.0,0.0,0.0,0.0,0.0,0.0,0.0,0.0,0.0,0.0,0.0,0.0,0.0,0.0,0.0,0.0,0.0,0.0,0.0,0.0,0.0,0.0,0.0,0.0,0.0,0.0,0.0,0.0,0.0,0.0,0.0,0.0,0.0,0.0,0.0,0.0,0.0,0.0,0.0,0.0,0.0,0.0,0.7261,0.5739,0.5665,0.5532,0.5732,0.7366,0.7975,0.7959,0.7959,0.7959,0.7959,0.7959,0.7969,0.7882,0.6348,0.0,0.0,0.0,0.5634,0.5636,0.578,0.58,0.5804,0.5744,0.5763,0.5763,0.5763,0.5896,0.6165,0.7758,0.6875,0.3491,0.0,0.0,0.8643,0.7029,0.5354,0.3702,0.6804,0.853,0.8414,0.8523,0.8632,0.852,0.8314,0.8153,0.8043,0.8163,0.8194,0.8049,0.7951,0.8036,0.0,0.0,0.0,0.0,0.0,0.0,0.0,0.0,0.0,0.0,0.0,0.0,0.0,0.0,0.0,0.0,0.0,0.0,0.0,0.0,0.0,0.0,0.0,0.0,0.0,0.0,0.0,0.0,0.0,0.0,0.0,0.0,0.0,0.0,0.0,0.0,0.0,0.0,0.0,0.0,0.0,0.0,0.0,0.0,0.0,0.0,0.0,0.0,0.0,0.0,0.0,0.0,0.0,0.0,0.0,0.0,0.0,0.0,0.0,0.0,0.0,0.0,0.0,0.8526,0.8499,0.8143,0.8026,0.8006,0.8006,0.8096,0.8075,0.8075,0.8072,0.7975,0.8075,0.7985,0.8009,0.8016,0.0,0.8022,0.8022,0.8026,0.8029,0.8374,0.855,0.8553,0.8479,0.8547,0.8543,0.8547,0.854,0.8533,0.8642,0.8656,0.8567,0.609,0.609,0.8458,0.8786,0.8888,0.8878,0.8663,0.8652,0.8846,0.8952,0.8843,0.8523,0.8509,0.8391,0.8069,0.8377,0.8421,0.8084,0.7981,0.8031,0.8012,0.0,0.0,0.0,0.0,0.0,0.0,0.0,0.0,0.0,0.0,0.0,0.0,0.0,0.0,0.0,0.0,0.0,0.0,0.0,0.0,0.0,0.0,0.0,0.0,0.0,0.0,0.0,0.0,0.0,0.0,0.0,0.0,0.0,0.0,0.0,0.0,0.0,0.0,0.0,0.0,0.0,0.0,0.0,0.0,0.0,0.0,0.0,0.0,0.0,0.0,0.0,0.0,0.0,0.0,0.0,0.0,0.0,0.0,0.0,0.0,0.0,0.0,0.8927,0.8818,0.8638,0.8492,0.8384,0.8384,0.8381,0.8374,0.8377,0.8267,0.8053,0.827,0.8381,0.8384,0.8387,0.8391,0.8391,0.8387,0.8391,0.8394,0.8428,0.8553,0.8553,0.8482,0.8496,0.8499,0.8496,0.8557,0.8662,0.8665,0.8777,0.8991,0.8431,0.8339,0.8817,0.879,0.8838,0.8951,0.8838,0.8838,0.8941,0.8944,0.8832,0.8828,0.8828,0.8766,0.8655,0.8762,0.879,0.865,0.8219,0.8095,0.8384,0.8186,0.0,0.0,0.0,0.0,0.0,0.0,0.0,0.0,0.0,0.0,0.0,0.0,0.0,0.0,0.0,0.0,0.0,0.0,0.0,0.0,0.0,0.0,0.0,0.0,0.0,0.0,0.0,0.0,0.0,0.0,0.0,0.0,0.0,0.0,0.0,0.0,0.0,0.0,0.0,0.0,0.0,0.0,0.0,0.0,0.0,0.0,0.0,0.0,0.0,0.0,0.0,0.0,0.0,0.0,0.0,0.0,0.0,0.0,0.0,0.0,0.0,0.9208,0.913,0.9042,0.8957,0.8862,0.8598,0.8482,0.8482,0.8482,0.8374,0.8266,0.8587,0.8591,0.8482,0.8482,0.8482,0.8482,0.8482,0.8482,0.8486,0.855,0.8621,0.8686,0.875,0.8818,0.8882,0.8882,0.8927,0.9005,0.9008,0.9093,0.9252,0.9256,0.9178,0.9147,0.9018,0.8937,0.8904,0.8904,0.902,0.9137,0.9137,0.9137,0.9133,0.894,0.8863,0.891,0.8937,0.8939,0.892,0.8584,0.8444,0.8699,0.8519,0.8277,0.0,0.0,0.0,0.0,0.0,0.0,0.0,0.0,0.0,0.0,0.0,0.0,0.0,0.0,0.0,0.0,0.0,0.0,0.0,0.0,0.0,0.0,0.0,0.0,0.0,0.0,0.0,0.0,0.0,0.0,0.0,0.0,0.0,0.0,0.0,0.0,0.0,0.0,0.0,0.0,0.0,0.0,0.0,0.0,0.0,0.0,0.0,0.0,0.0,0.0,0.0,0.0,0.0,0.0,0.3649,0.4386,0.3223,0.0611,0.2466,0.474,0.9435,0.9435,0.9418,0.9412,0.9367,0.8828,0.8598,0.8594,0.8598,0.8598,0.8598,0.8924,0.8817,0.8598,0.8594,0.8598,0.8598,0.8594,0.8594,0.8608,0.8737,0.8866,0.9001,0.9123,0.9249,0.9378,0.9381,0.9381,0.9381,0.9381,0.9391,0.9408,0.9408,0.9422,0.9439,0.9435,0.9298,0.902,0.902,0.9139,0.9381,0.9381,0.9381,0.9381,0.9139,0.8964,0.8954,0.8944,0.8947,0.8927,0.8893,0.8928,0.8902,0.886,0.8628,0.0,0.3692,0.0,0.0,0.0,0.0,0.0,0.0,0.0,0.0,0.0,0.0,0.0,0.0,0.0,0.0,0.0,0.0,0.0,0.0,0.0,0.0,0.0,0.0,0.0,0.0,0.0,0.0,0.0,0.0,0.0,0.0,0.0,0.0,0.0,0.0,0.0,0.0,0.0,0.0,0.0,0.0,0.0,0.0,0.0,0.0,0.0,0.0,0.0,0.0,0.0,0.0,0.0,0.0,0.802,0.9196,0.7302,0.2125,0.4136,0.9409,0.9741,0.9724,0.9612,0.9568,0.9547,0.9313,0.9211,0.9211,0.9211,0.9208,0.9211,0.9329,0.9325,0.9211,0.9211,0.9211,0.9215,0.9211,0.9211,0.9211,0.9242,0.9269,0.9296,0.9323,0.9354,0.9381,0.9381,0.9381,0.9381,0.9381,0.9445,0.9564,0.9568,0.9622,0.973,0.0,0.0,0.0,0.9501,0.9501,0.9381,0.962,0.962,0.9381,0.9378,0.0,0.9337,0.9099,0.8958,0.8899,0.8904,0.0,0.0,0.0,0.0,0.0,0.0,0.0,0.0,0.0,0.0,0.0,0.7209,0.5164,0.0,0.0,0.0,0.0,0.0,0.0,0.0,0.0,0.0,0.0,0.0,0.0,0.0,0.0,0.0,0.0,0.0,0.0,0.0,0.0,0.0,0.0,0.0,0.0,0.0,0.0,0.0,0.0,0.0,0.0,0.0,0.0,0.0,0.0,0.0,0.0,0.0,0.0,0.0,0.0388,0.4777,0.6462,0.1416,0.0,0.2438,0.8509,0.9819,0.785,0.1536,0.1154,0.3731,1.0046,1.0039,0.9971,0.9941,0.0,0.9859,0.9822,0.9805,0.951,0.9381,0.9381,0.9497,0.9497,0.9381,0.9381,0.9381,0.9381,0.9381,0.9381,0.9381,0.9381,0.9422,0.9493,0.9493,0.953,0.9598,0.9602,0.9602,0.9602,0.9676,0.9747,0.9825,0.9903,0.9975,1.0046,1.0049,0.9897,0.9602,0.972,0.972,0.9598,0.9724,0.972,0.9598,0.9598,0.0,0.0,0.0,0.0,0.0,0.0,0.0,0.0,0.9007,0.0,0.894,0.887,0.8913,0.8965,0.8961,0.8931,0.8862,0.8931,0.6337,0.0426,0.0,0.0,0.0,0.0,0.0,0.0,0.0,0.0,0.0,0.0,0.0,0.0,0.2912,0.3424,0.0,0.0,0.0,0.0,0.0,0.0,0.4707,0.5266,0.3881,0.0,0.0,0.0,0.0,0.0,0.0,0.0,0.3415,0.5145,0.0,0.2369,0.0,0.0,0.2894,0.5272,0.5402,0.6985,0.6979,0.605,0.5246,0.6294,0.9347,1.0287,0.9359,0.5925,0.5234,0.6247,1.028,1.028,1.028,1.028,1.028,1.028,1.028,1.0246,0.0,0.0,0.0,0.9631,0.95,0.95,0.9469,0.9473,0.9496,0.95,0.9513,0.9537,0.954,0.9608,0.9727,0.973,0.9788,0.99,0.9903,0.9903,0.9907,1.0032,1.009,1.0103,1.0219,1.028,1.028,1.028,1.0158,0.9917,0.9777,0.9777,0.9903,0.9903,0.9903,0.99,0.9777,0.9832,0.9816,0.9813,0.9741,0.9828,0.9796,0.9662,0.9422,0.9159,0.9023,0.902,0.9023,0.9089,0.9084,0.8957,0.8907,0.8913,0.9024,0.7009,0.2059,0.0649,0.0,0.0,0.0,0.0,0.0,0.0,0.0471,0.153,0.0708,0.0,0.0,0.5839,0.7472,0.2789,0.0,0.0,0.0,0.0,0.3872,0.9095,1.0068,0.8527,0.2765,0.0,0.0,0.0,0.0,0.0,0.0,0.5736,1.029,1.0028,0.5656,0.215,0.2828,0.6762,1.0328,1.0335,0.8265,0.7988,1.0046,1.0178,1.0732,1.0732,1.0732,1.0732,1.0722,1.0751,1.0518,1.0283,1.028,1.028,1.028,1.028,1.028,1.028,1.0273,1.0188,1.0154,1.0144,1.0015,0.9954,0.9947,0.9819,0.9832,0.9951,0.9954,1.0025,1.0151,1.0154,1.0164,1.0185,1.0185,1.0195,1.0215,1.0215,1.0215,1.0219,1.0239,1.0249,1.0249,1.027,1.0283,1.028,1.028,1.0259,1.0215,0.9953,0.9956,1.0215,1.0215,1.0215,1.0215,0.9949,0.9758,0.9741,0.9854,0.9791,0.9768,0.9765,0.9822,0.9696,0.9703,0.9617,0.9378,0.9501,0.9729,0.9708,0.9228,0.8865,0.8964,0.934,0.9218,0.8359,0.3232,0.0,0.0,0.0,0.0,0.0,0.0,0.2468,0.6967,0.3327,0.0,0.0,0.5818,0.9202,0.7638,0.8364,0.8242,0.8381,0.8736,0.8935,1.04,1.0761,0.9232,0.6291,0.7243,0.7641,0.5072,0.2,0.0,0.0,0.6032,1.0328,1.14,1.0014,0.8368,0.8308,0.9584,1.0859,1.132,1.0567,1.0423,1.0852,1.0708,1.0809,1.0799,1.0799,1.0806,1.1084,1.0913,1.0886,1.0517,1.0521,1.0517,1.0517,1.0521,1.0517,1.0517,1.0521,1.0517,1.0426,1.028,1.0205,1.0175,1.0171,1.01,1.0107,1.0175,1.0175,1.0215,1.0276,1.028,1.028,1.028,1.028,1.028,1.028,1.028,1.028,1.0287,1.0358,1.0395,1.0399,1.0473,1.0517,1.0521,1.0521,1.0521,1.0514,1.0226,1.0146,1.028,1.041,1.041,1.028,1.0146,1.0119,1.0049,0.9916,0.9754,0.9817,0.9754,0.9811,0.9849,0.9781,0.971,0.9629,0.9741,0.9829,0.9756,0.9549,0.9415,0.9379,0.9628,0.9787,0.9751,0.71,0.5272,0.5282,0.532,0.5351,0.536,0.5311,0.6595,0.9483,0.6946,0.5373,0.5657,0.7999,0.8704,0.5511,0.6076,0.8075,1.0443,1.0713,1.067,1.0666,1.0658,0.9952,0.8636,0.9772,1.0451,0.8725,0.6964,0.603,0.5893,0.8381,1.092,1.1403,1.1111,1.0983,1.0912,1.1064,1.1348,1.149,1.1479,1.1189,1.1047,1.1027,1.102,1.1162,1.1162,1.1303,1.131,1.1219,1.1233,1.0819,1.0816,1.0785,1.0751,1.0721,1.0721,1.0721,1.0721,1.0717,1.0592,1.0395,1.0348,1.0327,1.0324,1.0293,1.0297,1.0324,1.0327,1.0348,1.0378,1.0378,1.0378,1.0378,1.0382,1.0378,1.0382,1.0378,1.0378,1.0395,1.049,1.0544,1.0555,1.0663,1.0721,1.0721,1.0721,1.0721,1.0704,1.0497,1.0382,1.0378,1.0642,1.0645,1.0382,1.0382,1.0365,1.0331,1.0068,1.0048,1.0019,1.0015,0.9966,0.9985,0.9975,0.9921,0.9814,0.9801,0.9754,0.9768,0.9775,0.9758,0.9751,0.9761,0.9808,0.9893,0.9858,0.9846,0.9849,0.9493,0.9582,0.9239,0.7862,0.8237,0.9573,1.0025,0.9669,0.9845,1.0371,0.8796,0.3606,0.4683,0.7629,0.9808,1.0721,1.0812,1.0867,1.0829,1.095,1.1182,1.1223,1.1344,1.1155,1.1037,1.0493,1.0803,1.106,1.1348,1.124,1.1233,1.1246,1.127,1.1423,1.1559,1.158,1.1427,1.1297,1.1277,1.1277,1.1427,1.144,1.1587,1.157,1.1584,1.1513,1.1413,1.1118,1.1101,1.0975,1.0846,1.0734,1.0727,1.0731,1.0731,1.0721,1.0711,1.067,1.0538,1.048,1.0453,1.0348,1.0361,1.047,1.047,1.0544,1.066,1.068,1.068,1.0663,1.067,1.0677,1.067,1.067,1.0666,1.0666,1.0694,1.07,1.0697,1.0714,1.0731,1.0727,1.0727,1.0724,1.0724,1.0694,1.068,1.068,1.0683,1.068,1.068,1.0677,1.0616,1.0616,1.0606,1.0677,1.0558,1.0551,1.0668,1.0651,1.0654,1.0383,0.9843,0.9839,0.9836,0.982,0.9813,0.979,0.9823,0.9803,0.9939,1.0219,0.9946,0.9751,0.979,0.9873,0.98,0.9447,0.5086,0.4714,0.9898,1.0572,1.0469,1.0327,1.0504,1.0434,1.0019,0.938,1.0267,1.0621,1.0802,1.0863,1.1094,1.1272,1.132,1.1223,1.1314,1.1516,1.1331,1.1267,1.1199,1.1202,1.1317,1.1538,1.1499,1.1375,1.1268,1.1487,1.1538,1.1572,1.1633,1.1541,1.1531,1.1545,1.1575,1.1555,1.1511,1.1667,1.1558,1.1572,1.1572,1.1562,1.13,1.1158,1.1101,1.104,1.0985,1.0982,1.0982,1.0982,1.0982,1.0982,1.0975,1.0914,1.0792,1.0626,1.0565,1.0575,1.0622,1.0629,1.0656,1.0717,1.0721,1.0721,1.0721,1.0721,1.0721,1.0731,1.0809,1.0856,1.087,1.0941,1.0982,1.0982,1.0982,1.0982,1.0982,1.0982,1.0982,1.0982,1.0839,1.0839,1.0958,1.0809,1.0721,1.0721,1.0721,1.0697,1.0771,1.0761,1.0733,1.0682,1.0678,1.0767,1.0673,1.067,1.05,1.0159,1.0276,1.028,1.028,1.028,1.028,1.028,1.028,1.041,1.0545,1.0358,1.0243,1.0193,1.0166,1.0287,1.0045,0.7868,0.7647,1.0191,1.0774,1.0706,1.0636,1.0727,1.0812,1.0732,1.068,1.0746,1.0793,1.1087,1.1289,1.1406,1.1584,1.1468,1.1409,1.1491,1.1518,1.1518,1.1467,1.144,1.1426,1.1578,1.1609,1.1646,1.1525,1.1565,1.1589,1.1616,1.1616,1.1616,1.1616,1.1616,1.1603,1.1616,1.1616,1.1616,1.1616,1.1616,1.1616,1.1616,1.1616,1.129,1.1284,1.1243,1.1202,1.1162,1.1162,1.1162,1.1162,1.1162,1.1162,1.1162,1.1162,1.1046,1.086,1.0839,1.0839,1.0843,1.0839,1.0843,1.0839,1.0843,1.0843,1.0839,1.0839,1.0843,1.086,1.0958,1.1009,1.1019,1.1107,1.1162,1.1162,1.1162,1.1162,1.1162,1.1162,1.1162,1.1158,1.1017,1.1017,1.1131,1.0955,1.0843,1.0843,1.0705,1.0705,1.0702,1.0702,1.0685,1.0648,1.0648,1.0714,1.0702,1.0689,1.064,1.0415,1.0534,1.0666,1.0666,1.0666,1.0666,1.0666,1.067,1.067,1.069,1.0668,1.0612,1.0481,1.0558,1.0664,1.0704,1.0678,1.0767,1.0819,1.0775,1.0846,1.0735,1.0955,1.1002,1.0879,1.0943,1.0899,1.0935,1.1267,1.1629,1.1578,1.1602,1.1629,1.1586,1.1609,1.1613,1.1616,1.1616,1.1609,1.1616,1.1596,1.1616,1.1616,1.1606,1.1603,1.1616,1.1616,1.1616,1.1616,1.1616,1.1616,1.1616,1.1616,1.1616,1.1616,1.1616,1.1616,1.1616,1.1616,1.1616,1.1603,1.1572,1.1443,1.1304,1.1168,1.1179,1.1172,1.1196,1.1179,1.1172,1.1185,1.1179,1.1162,1.1145,1.1145,1.1138,1.1134,1.1121,1.1114,1.1114,1.1124,1.1138,1.1141,1.1141,1.1134,1.1107,1.1134,1.1162,1.1165,1.1172,1.1162,1.1175,1.1189,1.1175,1.1189,1.1196,1.1168,1.1196,1.1196,1.1317,1.1175,1.1296,1.1283,1.1141,1.0849,1.0698,1.0701,1.0711,1.0789,1.0664,1.0664,1.0729,1.0734,1.0714,1.0714,1.0704,1.0704,1.0704,1.07,1.0704,1.07,1.0704,1.07,1.07,1.0711,1.0689,1.0624,1.0644,1.0717,1.0819,1.0761,1.0685,1.0907,1.1205,1.119,1.0973,1.0705,1.099,1.1293,1.1438,1.1327,1.126,1.1516,1.1511,1.1555,1.1586,1.1599,1.1606,1.1609,1.1616,1.1616,1.1616,1.1616,1.1616,1.1616,1.1616,1.1616,1.1616,1.1616,1.1616,1.1616,1.1616,1.1616,1.1616,1.1616,1.1616,1.1616,1.1616,1.1616,1.1616,1.1616,1.1616,1.1616,1.1616,1.1616,1.1616,1.1613,1.1562,1.1504,1.1457,1.1453,1.1457,1.1457,1.1457,1.1453,1.1457,1.1453,1.1453,1.1453,1.1453,1.1345,1.1172,1.1162,1.1162,1.1162,1.1162,1.1162,1.1162,1.1162,1.1162,1.1175,1.126,1.1362,1.145,1.1457,1.1453,1.1453,1.1453,1.1457,1.1457,1.1457,1.1457,1.1457,1.1453,1.1457,1.1447,1.1457,1.1457,1.1447,1.1121,1.1017,1.1017,1.1162,1.1279,1.1228,1.0943,1.0779,1.1009,1.0859,1.0723,1.072,1.0723,1.0723,1.0723,1.0723,1.0723,1.072,1.0723,1.0853,1.0873,1.091,1.0803,1.0956,1.1128,1.1238,1.1193,1.0916,1.0943,1.1375,1.1417,1.1317,1.1182,1.1243,1.1454,1.1471,1.153,1.1484,1.1514,1.1589,1.1616,1.1616,1.1616,1.1616,1.1616,1.1616,1.1616,1.1616,1.1616,1.1616,1.1616,1.1616,1.1616,1.1616,1.1616,1.1616,1.1616,1.1616,1.1616,1.1616,1.1616,1.1616,1.1616,1.1616,1.1616,1.1616,1.1616,1.1616,1.1616,1.1616,1.1616,1.1616,1.1616,1.1616,1.1616,1.1616,1.1616,1.1616,1.1616,1.1616,1.1616,1.1616,1.1616,1.1616,1.1616,1.1616,1.1518,1.1324,1.1311,1.1311,1.1311,1.1311,1.1307,1.1311,1.1311,1.1311,1.1328,1.1413,1.1525,1.1606,1.1616,1.1616,1.1613,1.1616,1.1616,1.1616,1.1616,1.1616,1.1616,1.1616,1.1616,1.1616,1.1616,1.1616,1.1589,1.1416,1.1311,1.1307,1.1458,1.157,1.1532,1.1236,1.107,1.131,1.102,1.0875,1.0734,1.0875,1.1017,1.1017,1.1017,1.1013,1.1017,1.1017,1.1158,1.1307,1.1064,1.1087,1.1243,1.1437,1.1598,1.1594,1.1168,1.1144,1.1545,1.157,1.1454,1.1314,1.1402,1.1457,1.1619,1.1541,1.1603,1.1616,1.1616,1.1616,1.1616,1.1616,1.1616,1.1616,1.1616,1.1616,1.1616,1.1616,1.1616,1.1616,1.1616,1.1616,1.1616,1.1616,1.1616,1.1616,1.1616,1.1616,1.1616,1.1616,1.1616,1.1616,1.1616,1.1616,1.1616,1.1616,1.1616,1.1616,1.1616,1.1616,1.1616,1.1616,1.1616,1.1616,1.1616,1.1616,1.1616,1.1616,1.1616,1.1616,1.1616,1.1616,1.1616,1.1616,1.1616,1.1606,1.1582,1.1569,1.1572,1.1572,1.1579,1.1582,1.1579,1.1569,1.1569,1.1572,1.1603,1.1609,1.1616,1.1616,1.1616,1.1616,1.1616,1.1616,1.1616,1.1616,1.1616,1.1616,1.1616,1.1616,1.1616,1.1616,1.1616,1.1616,1.1592,1.1582,1.1596,1.1596,1.1667,1.1557,1.154,1.1611,1.1511,1.1344,1.1044,1.0915,1.1324,1.1604,1.1611,1.1486,1.15,1.15,1.1476,1.1504,1.1528,1.1471,1.1392,1.1265,1.1501,1.1589,1.1579,1.1575,1.1525,1.1581,1.164,1.1562,1.1586,1.1606,1.1613,1.1603,1.1616,1.1616,1.1616,1.1616,1.1616,1.1616,1.1616,1.1616,1.1616,1.1616,1.1616,1.1616,1.1616,1.1616,1.1616,1.1616,1.1616,1.1616,1.1616,1.1616,1.1616,1.1616,1.1616,1.1616,1.1616,1.1616,1.1616,1.1616,1.1616,1.1616,1.1616,1.1616,1.1616,1.1616,1.1616,1.1616,1.1616,1.1616,1.1616,1.1616,1.1616,1.1616,1.1616,1.1616,1.1616,1.1616,1.1616,1.1616,1.1616,1.1616,1.1616,1.1616,1.1616,1.1616,1.1616,1.1616,1.1616,1.1616,1.1616,1.1616,1.1616,1.1616,1.1616,1.1616,1.1616,1.1616,1.1616,1.1616,1.1616,1.1616,1.1616,1.1616,1.1616,1.1616,1.1616,1.1616,1.1616,1.1616,1.1616,1.1616,1.1616,1.1616,1.1616,1.1596,1.1548,1.1552,1.1528,1.1629,1.1477,1.1477,1.1332,1.1477,1.1622,1.1619,1.1616,1.1612,1.1619,1.1616,1.1622,1.1622,1.1657,1.1541,1.1541,1.1592,1.1616,1.1616,1.1616,1.1592,1.1555,1.1592,1.1616,1.1616,1.1616,1.1616,1.1616,1.1616,1.1616,1.1616,1.1616,1.1616,1.1616,1.1616,1.1616,1.1616,1.1616,1.1616,1.1616,1.1616,1.1616,1.1616,1.1616,1.1616,1.1616,1.1616,1.1616,1.1616,1.1616,1.1616,1.1616,1.1616,1.1616,1.1616,1.1616,1.1616,1.1616,1.1616,1.1616,1.1616,1.1616,1.1616,1.1616,1.1616,1.1616,1.1616,1.1616,1.1616,1.1616,1.1616,1.1616,1.1616,1.1616,1.1616,1.1616,1.1616,1.1616,1.1616,1.1616,1.1616,1.1616,1.1616,1.1616,1.1616,1.1616,1.1616,1.1616,1.1616,1.1616,1.1616,1.1616,1.1616,1.1616,1.1616,1.1616,1.1616,1.1616,1.1616,1.1616,1.1616,1.1616,1.1616,1.1616,1.1616,1.1616,1.1616,1.1616,1.1616,1.1616,1.1616,1.1616,1.1616,1.1616,1.1616,1.1616,1.1613,1.1616,1.1616,1.1616,1.1613,1.1616,1.1599,1.1616,1.1616,1.1616,1.1616,1.1616,1.1616,1.1616,1.1616,1.1616,1.1616,1.1616,1.1616,1.1616,1.1616,1.1616,1.1616,1.1616,1.1616,1.1616,1.1616,1.1616,1.1616,1.1616,1.1616,1.1616,1.1616,1.1616,1.1616,1.1616,1.1616,1.1616,1.1616,1.1616,1.1616,1.1616,1.1616,1.1616,1.1616,1.1616,1.1616,1.1616,1.1616,1.1616,1.1616,1.1616,1.1616,1.1616,1.1616,1.1616,1.1616,1.1616,1.1616,1.1616,1.1616,1.1616,1.1616,1.1616,1.1616,1.1616,1.1616,1.1616,1.1616,1.1616,1.1616,1.1616,1.1616,1.1616,1.1616,1.1616,1.1616,1.1616,1.1616,1.1616,1.1616,1.1616,1.1616,1.1616,1.1616,1.1616,1.1616,1.1616,1.1616,1.1616,1.1616,1.1616,1.1616,1.1616,1.1616,1.1616,1.1616,1.1616,1.1616,1.1616,1.1616,1.1616,1.1616,1.1616,1.1616,1.1616,1.1616,1.1616,1.1616,1.1616,1.1616,1.1616,1.1616,1.1616,1.1616,1.1616,1.1616,1.1616,1.1616,1.1616,1.1616,1.1616,1.1616,1.1616,1.1616,1.1616,1.1616,1.1616,1.1616,1.1616,1.1616,1.1616,1.1616,1.1616,1.1616,1.1616,1.1616,1.1616,1.1616,1.1616,1.1616,1.1616,1.1616,1.1616,1.1616,1.1616,1.1616,1.1616,1.1616,1.1616,1.1616,1.1616,1.1616,1.1616,1.1616,1.1616,1.1616,1.1616,1.1616,1.1616,1.1616,1.1616,1.1616,1.1616,1.1616,1.1616,1.1616,1.1616,1.1616,1.1616,1.1616,1.1616,1.1616,1.1616,1.1616,1.1616,1.1616,1.1616,1.1616,1.1616,1.1616,1.1616,1.1616,1.1616,1.1616,1.1616,1.1616,1.1616,1.1616,1.1616,1.1616,1.1616,1.1616,1.1616,1.1616,1.1616,1.1616,1.1616,1.1616,1.1616,1.1616,1.1616,1.1616,1.1616,1.1616,1.1616,1.1616,1.1616,1.1616,1.1616,1.1616,1.1616,1.1616,1.1616,1.1616,1.1616,1.1616,1.1616,1.1616,1.1616,1.1616,1.1616,1.1616,1.1616,1.1616,1.1616,1.1616,1.1616,1.1616,1.1616,1.1616,1.1616,1.1616,1.1616,1.1616,1.1616,1.1616,1.1616,1.1616,1.1616,1.1616,1.1616,1.1616,1.1616,1.1616,1.1616,1.1616,1.1616,1.1616,1.1616,1.1616,1.1616,1.1616,1.1616,1.1616,1.1616,1.1616,1.1616,1.1616,1.1616,1.1616,1.1616,1.1616,1.1616,1.1616,1.1616,1.1616,1.1616,1.1616,1.1616,1.1616,1.1616,1.1616,1.1616,1.1616,1.1616,1.1616,1.1616,1.1616,1.1616,1.1616,1.1616,1.1616,1.1616,1.1616,1.1616,1.1616,1.1616,1.1616,1.1616,1.1616,1.1616,1.1616,1.1616,1.1616,1.1616,1.1616,1.1616,1.1616,1.1616,1.1616,1.1616,1.1616,1.1616,1.1616,1.1616,1.1616,1.1616,1.1616,1.1616,1.1616,1.1616,1.1616,1.1616,1.1616,1.1616,1.1616,1.1616,1.1616,1.1616,1.1616,1.1616,1.1616,1.1616,1.1616,1.1616,1.1616,1.1616,1.1616,1.1616,1.1616,1.1616,1.1616,1.1616,1.1616,1.1616,1.1616,1.1616,1.1616,1.1616,1.1616,1.1616,1.1616,1.1616,1.1616,1.1616,1.1616,1.1616,1.1616,1.1616,1.1616,1.1616,1.1616,1.1616,1.1616,1.1616,1.1616,1.1616,1.1616,1.1616,1.1616,1.1616,1.1616,1.1616,1.1616,1.1616,1.1616,1.1616,1.1616,1.1616,1.1616,1.1616,1.1616,1.1616,1.1616,1.1616,1.1616,1.1616,1.1616,1.1616,1.1616,1.1616,1.1616,1.1616,1.1616,1.1616,1.1616,1.1616,1.1616,1.1616,1.1616,1.1616,1.1616,1.1616,1.1616,1.1616,1.1616,1.1616,1.1616,1.1616,1.1616,1.1616,1.1616,1.1616,1.1616,1.1616,1.1616,1.1616,1.1616,1.1616,1.1616,1.1616,1.1616,1.1616,1.1616,1.1616,1.1616,1.1616,1.1616,1.1616,1.1616,1.1616,1.1616,1.1616,1.1616,1.1616,1.1616,1.1616,1.1616,1.1616,1.1616,1.1616,1.1616,1.1616,1.1616,1.1616,1.1616,1.1616,1.1616,1.1616,1.1616,1.1616,1.1616,1.1616,1.1616,1.1616,1.1616,1.1616,1.1616,1.1616,1.1616,1.1616,1.1616,1.1616,1.1616,1.1616,1.1616,1.1616,1.1616,1.1616,1.1616,1.1616,1.1616,1.1616,1.1616,1.1616,1.1616,1.1616,1.1616,1.1616,1.1616,1.1616,1.1616,1.1616,1.1616,1.1616,1.1616,1.1616,1.1616,1.1616,1.1616,1.1616,1.1616,1.1616,1.1616,1.1616,1.1616,1.1616,1.1616,1.1616,1.1616,1.1616,1.1616,1.1616,1.1616,1.1616,1.1616,1.1616,1.1616,1.1616,1.1616,1.1616,1.1616,1.1616,1.1616,1.1616,1.1616,1.1616,1.1616,1.1616,1.1616,1.1616,1.1616,1.1616,1.1616,1.1623,1.1616,1.1616,1.1616,1.1616,1.1616,1.1616,1.1616,1.1616,1.1616,1.1616,1.1616,1.1616,1.1616,1.1616,1.1616,1.1616,1.1616,1.1616,1.1616,1.1616,1.1616,1.1616,1.1616,1.1616,1.1616,1.1616,1.1616,1.1616,1.1616,1.1616,1.1616,1.1616,1.1616,1.1616,1.1616,1.1616,1.1616,1.1616,1.1616,1.1616,1.1616,1.1616,1.1616,1.1616,1.1616,1.1616,1.1616,1.1616,1.1616,1.1616,1.1616,1.1616,1.1616,1.1616,1.1616,1.1616,1.1616,1.1616,1.1616,1.1616,1.1616,1.1616,1.1616,1.1616,1.1616,1.1616,1.1616,1.1616,1.1616,1.1616,1.1616,1.1616,1.1616,1.1616,1.1616,1.1616,1.1616,1.1616,1.1616,1.1616,1.1616,1.1616,1.1616,1.1616,1.1616,1.1616,1.1616,1.1616,1.1616,1.1616,1.1616,1.1616,1.1616,1.1616,1.1616,1.1616,1.1616,1.1616,1.1616,1.1616,1.1616,1.1626,1.1643,1.166,1.1664,1.1553,1.1549,1.1674,1.1694,1.1664,1.1616,1.1623,1.1647,1.1643,1.1657,1.1636,1.1647,1.1677,1.1701,1.1667,1.1677,1.1616,1.1616,1.1616,1.1616,1.1616,1.1616,1.1616,1.1616,1.1616,1.1616,1.1616,1.1616,1.1616,1.1616,1.1616,1.1616,1.1616,1.1616,1.1616,1.1616,1.1616,1.1616,1.1616,1.1616,1.1616,1.1616,1.1616,1.1616,1.1616,1.1616,1.1616,1.1616,1.1616,1.1616,1.1616,1.1616,1.1616,1.1616,1.1616,1.1616,1.1616,1.1616,1.1616,1.1616,1.1616,1.1616,1.1616,1.1616,1.1616,1.1616,1.1616,1.1616,1.1616,1.1616,1.1616,1.1616,1.1616,1.1616,1.1616,1.1616,1.1616,1.1616,1.1616,1.1616,1.1616,1.1616,1.1616,1.1616,1.1616,1.1616,1.1616,1.1616,1.1616,1.1616,1.1616,1.1616,1.1616,1.1616,1.1616,1.1616,1.1616,1.1616,1.1616,1.1616,1.1616,1.1616,1.1616,1.1616,1.1616,1.1616,1.1616,1.1616,1.1616,1.1616,1.1616,1.1636,1.167,1.1708,1.1752,1.1667,1.1573,1.1683,1.165,1.1738,1.1681,1.1539,1.1556,1.1553,1.1606,1.168,1.171,1.1683,1.168,1.1853,1.1874,1.1616,1.1616,1.1616,1.1616,1.1616,1.1616,1.1616,1.1616,1.1616,1.1616,1.1616,1.1616,1.1616,1.1616,1.1616,1.1616,1.1616,1.1616,1.1616,1.1616,1.1616,1.1616,1.1616,1.1616,1.1616,1.1616,1.1616,1.1616,1.1616,1.1616,1.1616,1.1616,1.1616,1.1616,1.1616,1.1616,1.1616,1.1616,1.1616,1.1616,1.1616,1.1616,1.1616,1.1616,1.1616,1.1616,1.1616,1.1616,1.1616,1.1616,1.1616,1.1616,1.1616,1.1616,1.1616,1.1616,1.1616,1.1616,1.1616,1.1616,1.1616,1.1616,1.1616,1.1616,1.1616,1.1616,1.1616,1.1616,1.1616,1.1616,1.1616,1.1616,1.1616,1.1616,1.1616,1.1616,1.1616,1.1616,1.1616,1.1616,1.1616,1.1616,1.1616,1.1616,1.1616,1.1623,1.1626,1.1626,1.1633,1.1653,1.1677,1.1721,1.16,1.1636,1.1643,1.1782,1.1803,1.1823,1.1867,1.178,1.1706,1.1962,1.2048,1.1809,1.1765,1.164,1.1673,1.1707,1.1777,1.1735,1.1881,1.1965,1.1989,1.2047,1.2047,1.1616,1.1616,1.1616,1.1616,1.1616,1.1616,1.1616,1.1616,1.1616,1.1616,1.1616,1.1616,1.1616,1.1616,1.1616,1.1616,1.1616,1.1616,1.1616,1.1616,1.1616,1.1616,1.1616,1.1616,1.1616,1.1616,1.1616,1.1616,1.1616,1.1616,1.1616,1.1616,1.1616,1.1616,1.1616,1.1616,1.1616,1.1616,1.1616,1.1616,1.1616,1.1616,1.1616,1.1616,1.1616,1.1616,1.1616,1.1616,1.1616,1.1616,1.1616,1.1616,1.1616,1.1616,1.1616,1.1616,1.1616,1.1616,1.1616,1.1616,1.1616,1.1616,1.1616,1.1616,1.1616,1.1616,1.1616,1.1616,1.1616,1.1616,1.1616,1.1633,1.1626,1.1623,1.1647,1.165,1.1647,1.1653,1.1664,1.1681,1.1657,1.1653,1.1546,1.1569,1.1576,1.1586,1.1728,1.1576,1.1569,1.1755,1.1806,1.186,1.177,1.1666,1.1554,1.1841,1.2141,1.1999,1.2026,1.2043,1.2088,1.2213,1.2307,1.2144,1.1962,1.1817,1.1847,1.1868,1.2067,1.2145,1.2268,1.2383,1.2285,1.2182,1.2289,1.1616,1.1616,1.1616,1.1616,1.1616,1.1616,1.1616,1.1616,1.1616,1.1616,1.1616,1.1616,1.1616,1.1616,1.1616,1.1616,1.1616,1.1616,1.1616,1.1616,1.1616,1.1616,1.1616,1.1616,1.1616,1.1616,1.1616,1.1616,1.1616,1.1616,1.1616,1.1616,1.1616,1.1616,1.1616,1.1616,1.1616,1.1616,1.1616,1.1616,1.1616,1.1616,1.1616,1.1616,1.1616,1.1616,1.1616,1.1616,1.1616,1.1616,1.1616,1.1616,1.1616,1.1616,1.1619,1.1623,1.1619,1.1616,1.1616,1.1616,1.1616,1.1616,1.1616,1.1616,1.1616,1.1616,1.1626,1.1626,1.1619,1.1616,1.1619,1.1543,1.1725,1.1894,1.1938,1.198,1.1843,1.184,1.1833,1.1667,1.1643,1.1663,1.1573,1.158,1.156,1.1697,1.1837,1.1677,1.1663,1.1877,1.1952,1.2006,1.2064,1.1931,1.1971,1.2132,1.2306,1.2172,1.2182,1.2196,1.2233,1.2392,1.2426,1.2291,1.225,1.1988,1.2005,1.2025,1.222,1.2412,1.2436,1.245,1.2453,1.245,1.2412,1.1616,1.1616,1.1616,1.1616,1.1616,1.1616,1.1616,1.1616,1.1616,1.1616,1.1616,1.1616,1.1616,1.1616,1.1616,1.1616,1.1616,1.1616,1.1616,1.1616,1.1616,1.1616,1.1616,1.1616,1.1616,1.1616,1.1616,1.1616,1.1616,1.1616,1.1616,1.1616,1.1616,1.1616,1.1616,1.1616,1.1616,1.1616,1.1616,1.1616,1.1616,1.1616,1.1616,1.1616,1.1616,1.1616,1.1616,1.1616,1.1616,1.1616,1.1616,1.1616,1.1616,1.1616,1.163,1.165,1.1636,1.1619,1.1616,1.1616,1.1616,1.1616,1.1616,1.1616,1.1636,1.1657,1.1543,1.1549,1.1573,1.1586,1.1616,1.1663,1.1864,1.2048,1.2279,1.2359,1.2179,1.202,1.2033,1.1854,1.1804,1.1807,1.1854,1.1989,1.1959,1.1959,1.21,1.2107,1.1962,1.205,1.2118,1.2313,1.235,1.235,1.2371,1.2392,1.2433,1.2325,1.2335,1.2345,1.24,1.245,1.2464,1.2433,1.2359,1.2267,1.2149,1.2176,1.2355,1.24,1.2471,1.2478,1.2423,1.2413,1.2403,1.1616,1.1616,1.1616,1.1616,1.1616,1.1616,1.1616,1.1616,1.1616,1.1616,1.1616,1.1616,1.1616,1.1616,1.1616,1.1616,1.1616,1.1616,1.1616,1.1616,1.1616,1.1616,1.1616,1.1616,1.1616,1.1616,1.1616,1.1616,1.1616,1.1616,1.1616,1.1616,1.1616,1.1616,1.1616,1.1616,1.1616,1.1616,1.1616,1.1616,1.1616,1.1619,1.1619,1.163,1.1633,1.165,1.1667,1.1529,1.1664,1.1653,1.1636,1.1626,1.1616,1.1616,1.1546,1.1576,1.1556,1.1619,1.1647,1.167,1.1674,1.1681,1.166,1.1626,1.1684,1.1616,1.1557,1.1547,1.1682,1.1663,1.1649,1.1702,1.1881,1.2203,1.2397,1.2414,1.2251,1.2186,1.2199,1.2069,1.2028,1.2125,1.2271,1.239,1.2362,1.2366,1.2373,1.239,1.2271,1.2364,1.2274,1.2464,1.2484,1.2484,1.2477,1.2498,1.2522,1.244,1.2447,1.2454,1.2478,1.2501,1.2501,1.2461,1.24,1.2386,1.2406,1.2437,1.2478,1.2488,1.2498,1.2501,1.2494,1.2501,1.2501,1.1616,1.1616,1.1616,1.1616,1.1616,1.1616,1.1616,1.1616,1.1616,1.1616,1.1616,1.1616,1.1616,1.1616,1.1616,1.1616,1.1616,1.163,1.1619,1.163,1.1633,1.1626,1.1616,1.1616,1.1616,1.1616,1.1619,1.1616,1.1619,1.1623,1.1616,1.1616,1.1616,1.1616,1.1616,1.1616,1.1616,1.1616,1.1616,1.1616,1.1616,1.1626,1.1657,1.1731,1.159,1.163,1.1683,1.1567,1.1567,1.157,1.1567,1.1717,1.172,1.1724,1.1603,1.1633,1.1911,1.1881,1.1724,1.187,1.2004,1.2014,1.186,1.173,1.1737,1.177,1.1676,1.1894,1.2057,1.2067,1.2098,1.2142,1.2179,1.2361,1.2543,1.2426,1.2281,1.2311,1.2359,1.2383,1.2239,1.2474,1.2422,1.2426,1.2419,1.2429,1.244,1.2457,1.2481,1.2379,1.2423,1.2454,1.2464,1.2464,1.2454,1.2454,1.2587,1.2478,1.2478,1.2484,1.2488,1.2501,1.2501,1.2501,1.2464,1.2471,1.2501,1.2498,1.2494,1.2498,1.2501,1.2501,1.2501,1.2501,1.2501,1.1616,1.1616,1.1616,1.1616,1.1616,1.1616,1.1616,1.1616,1.1616,1.1616,1.1616,1.1616,1.1616,1.1633,1.1657,1.1687,1.1681,1.1711,1.1728,1.1728,1.1721,1.1718,1.1704,1.1681,1.1657,1.1623,1.1677,1.1684,1.1839,1.2138,1.2438,1.1626,1.1616,1.1616,1.1616,1.1623,1.1633,1.1691,1.159,1.1606,1.1752,1.1748,1.1803,1.1857,1.175,1.1639,1.1732,1.1891,1.1891,1.1884,1.1878,1.2016,1.2175,1.2016,1.1901,1.1938,1.2247,1.2282,1.2115,1.2254,1.2536,1.2369,1.2223,1.2037,1.2108,1.1965,1.1845,1.2199,1.2357,1.2505,1.2508,1.2446,1.2477,1.2525,1.257,1.2467,1.2494,1.2454,1.2433,1.2444,1.2457,1.2471,1.2444,1.2467,1.2481,1.2488,1.2501,1.2501,1.2498,1.2491,1.2494,1.2501,1.2501,1.2501,1.2501,1.2501,1.2501,1.2501,1.2501,1.2501,1.2501,1.2501,1.2501,1.2501,1.2501,1.2501,1.2501,1.2501,1.2501,1.2501,1.2501,1.2501,1.2501,1.2501,1.2501,1.1616,1.1616,1.1616,1.1616,1.1616,1.1616,1.1616,1.1616,1.1616,1.1623,1.164,1.1633,1.1657,1.1667,1.1772,1.182,1.1823,1.1965,1.1979,1.1993,1.2016,1.1918,1.1857,1.1806,1.1765,1.1694,1.1762,1.1816,1.2272,1.3656,1.3118,1.1949,1.2554,1.1931,1.1787,1.211,1.2018,1.1955,1.1904,1.1821,1.1979,1.1989,1.2013,1.2033,1.2047,1.2054,1.2064,1.2254,1.2271,1.2275,1.2282,1.2282,1.2299,1.2292,1.2186,1.2247,1.2271,1.2467,1.2342,1.2388,1.2411,1.2532,1.2407,1.2323,1.2416,1.2433,1.2488,1.2403,1.2539,1.2567,1.2437,1.2478,1.2454,1.2461,1.2474,1.2484,1.2501,1.2498,1.2481,1.2494,1.2501,1.2501,1.2501,1.2501,1.2501,1.2501,1.2501,1.2501,1.2501,1.2498,1.2498,1.2501,1.2501,1.2501,1.2501,1.2501,1.2501,1.2501,1.2501,1.2501,1.2501,1.2501,1.2501,1.2501,1.2501,1.2501,1.2501,1.2501,1.2501,1.2501,1.2501,1.2501,1.2501,1.2501,1.2501,1.1616,1.1616,1.1616,1.1616,1.1616,1.1616,1.1616,1.1616,1.1619,1.1674,1.1755,1.1843,1.1891,1.1904,1.1928,1.1972,1.1979,1.2023,1.2064,1.206,1.2043,1.202,1.1976,1.1969,1.1945,1.1901,1.1948,1.1976,1.2279,1.412,1.3621,1.3073,1.4059,1.536,1.5202,1.3126,1.2747,1.3114,1.2614,1.2216,1.206,1.222,1.2261,1.2199,1.2048,1.2254,1.2318,1.2488,1.2488,1.2481,1.2474,1.2467,1.246,1.246,1.2495,1.2396,1.2403,1.244,1.2478,1.2543,1.2498,1.2488,1.2495,1.2508,1.256,1.257,1.2437,1.2484,1.2501,1.2501,1.2498,1.2498,1.2491,1.2498,1.2501,1.2501,1.2501,1.2501,1.2501,1.2501,1.2501,1.2501,1.2501,1.2501,1.2501,1.2501,1.2501,1.2501,1.2501,1.2501,1.2501,1.2501,1.2501,1.2501,1.2501,1.2501,1.2501,1.2501,1.2501,1.2501,1.2501,1.2501,1.2501,1.2501,1.2501,1.2501,1.2501,1.2501,1.2501,1.2501,1.2501,1.2501,1.2501,1.2501,1.2501,1.1616,1.1616,1.1616,1.1616,1.1616,1.1616,1.1647,1.1681,1.1687,1.1762,1.1904,1.2165,1.221,1.2071,1.2118,1.2128,1.2145,1.2186,1.2199,1.2213,1.222,1.2169,1.2142,1.2118,1.2098,1.2091,1.2121,1.2132,1.2282,1.4243,1.4271,1.4724,1.6184,1.732,1.6283,1.5298,1.3843,1.3744,1.3221,1.2498,1.2203,1.2368,1.2392,1.2345,1.2352,1.2229,1.2444,1.2457,1.2467,1.2471,1.2478,1.2488,1.2494,1.2501,1.2501,1.2501,1.2501,1.2501,1.2501,1.2501,1.2501,1.2464,1.2471,1.2481,1.2501,1.2501,1.2491,1.2494,1.2501,1.2501,1.2501,1.2501,1.2501,1.2501,1.2501,1.2501,1.2501,1.2501,1.2501,1.2501,1.2501,1.2501,1.2501,1.2501,1.2501,1.2501,1.2501,1.2501,1.2501,1.2501,1.2501,1.2501,1.2501,1.2501,1.2501,1.2501,1.2501,1.2501,1.2501,1.2501,1.2501,1.2501,1.2501,1.2501,1.2501,1.2501,1.2501,1.2501,1.2501,1.2501,1.2501,1.2501,1.2501,1.2501,1.2501,1.1616,1.1616,1.1616,1.1623,1.1633,1.1623,1.1697,1.1806,1.1843,1.1928,1.205,1.2091,1.2101,1.2132,1.224,1.2277,1.2308,1.2396,1.244,1.2423,1.2403,1.2379,1.2325,1.2274,1.224,1.2138,1.2199,1.2284,1.2284,1.447,1.4994,1.5616,1.6761,1.7722,1.5641,1.7048,1.594,1.3065,1.2713,1.243,1.2433,1.243,1.2444,1.2454,1.2461,1.2481,1.2491,1.2501,1.2501,1.2501,1.2501,1.2501,1.2501,1.2501,1.2501,1.2501,1.2501,1.2501,1.2501,1.2501,1.2501,1.2501,1.2501,1.2501,1.2501,1.2501,1.2501,1.2501,1.2501,1.2501,1.2501,1.2501,1.2501,1.2501,1.2501,1.2501,1.2501,1.2501,1.2501,1.2501,1.2501,1.2501,1.2501,1.2501,1.2501,1.2501,1.2501,1.2501,1.2501,1.2501,1.2501,1.2501,1.2501,1.2501,1.2501,1.2501,1.2501,1.2501,1.2501,1.2501,1.2501,1.2501,1.2501,1.2501,1.2501,1.2501,1.2501,1.2501,1.2501,1.2501,1.2501,1.2501,1.2501,1.2501,1.2501,1.1616,1.1616,1.1616,1.1674,1.1752,1.1759,1.1789,1.1864,1.2037,1.2166,1.2227,1.2305,1.2352,1.2376,1.2383,1.242,1.2437,1.245,1.2501,1.2501,1.2501,1.2478,1.2433,1.2406,1.2389,1.2376,1.242,1.242,1.243,1.4306,1.4318,1.4629,1.6747,1.8044,1.7514,1.745,1.5802,1.4408,1.3385,1.2498,1.2501,1.2501,1.2501,1.2501,1.2501,1.2501,1.2501,1.2501,1.2501,1.2501,1.2501,1.2501,1.2501,1.2501,1.2501,1.2501,1.2501,1.2501,1.2501,1.2501,1.2501,1.2501,1.2501,1.2501,1.2501,1.2501,1.2501,1.2501,1.2501,1.2501,1.2501,1.2501,1.2501,1.2501,1.2501,1.2501,1.2501,1.2501,1.2501,1.2501,1.2501,1.2501,1.2501,1.2501,1.2501,1.2501,1.2501,1.2501,1.2501,1.2501,1.2501,1.2501,1.2501,1.2501,1.2501,1.2501,1.2501,1.2501,1.2501,1.2501,1.2501,1.2501,1.2501,1.2501,1.2501,1.2501,1.2501,1.2501,1.2501,1.2501,1.2501,1.2501,1.2501,1.2501,1.2501,1.1616,1.1623,1.1674,1.1742,1.1826,1.1833,1.1881,1.2016,1.2254,1.2366,1.2386,1.2461,1.2491,1.2491,1.2501,1.2501,1.2501,1.2501,1.2501,1.2501,1.2501,1.2491,1.2494,1.2501,1.2474,1.2501,1.2652,1.2646,1.3549,1.4168,1.3718,1.3872,1.6451,1.6885,1.6729,1.5824,1.5675,1.4298,1.2962,1.2501,1.2501,1.2501,1.2501,1.2501,1.2501,1.2501,1.2501,1.2501,1.2501,1.2501,1.2501,1.2501,1.2501,1.2501,1.2501,1.2501,1.2501,1.2501,1.2501,1.2501,1.2501,1.2501,1.2501,1.2501,1.2501,1.2501,1.2501,1.2501,1.2501,1.2501,1.2501,1.2501,1.2501,1.2501,1.2501,1.2501,1.2501,1.2501,1.2501,1.2501,1.2501,1.2501,1.2501,1.2501,1.2501,1.2501,1.2501,1.2501,1.2501,1.2501,1.2501,1.2501,1.2501,1.2501,1.2501,1.2501,1.2501,1.2501,1.2501,1.2501,1.2501,1.2501,1.2501,1.2501,1.2501,1.2501,1.2501,1.2501,1.2501,1.2501,1.2501,1.2501,1.2501,1.2501,1.2501,1.1616,1.164,1.1772,1.183,1.1843,1.1887,1.2043,1.2298,1.2433,1.2491,1.2498,1.2491,1.2501,1.2501,1.2501,1.2501,1.2501,1.2501,1.2501,1.2501,1.2501,1.2501,1.2501,1.2501,1.2804,1.2804,1.3109,1.4172,1.5234,1.4931,1.3872,1.4022,1.7355,1.7208,1.6129,1.6263,1.5654,1.3861,1.2807,1.2501,1.2501,1.2501,1.2501,1.2501,1.2501,1.2501,1.2501,1.2501,1.2501,1.2501,1.2501,1.2501,1.2501,1.2501,1.2501,1.2501,1.2501,1.2501,1.2501,1.2501,1.2501,1.2501,1.2501,1.2501,1.2501,1.2501,1.2501,1.2501,1.2501,1.2501,1.2501,1.2501,1.2501,1.2501,1.2501,1.2501,1.2501,1.2501,1.2501,1.2501,1.2501,1.2501,1.2501,1.2501,1.2501,1.2501,1.2501,1.2501,1.2501,1.2501,1.2501,1.2501,1.2501,1.2501,1.2501,1.2501,1.2501,1.2501,1.2501,1.2501,1.2501,1.2501,1.2501,1.2501,1.2501,1.2501,1.2501,1.2501,1.2501,1.2501,1.2501,1.2501,1.2501,1.2501,1.2501,1.1616,1.1633,1.1772,1.1891,1.202,1.222,1.2366,1.2447,1.2491,1.2501,1.2501,1.2501,1.2501,1.2501,1.2501,1.2501,1.2501,1.2501,1.2501,1.2501,1.2501,1.2501,1.2501,1.2652,1.3414,1.4172,1.4778,1.5693,1.7208,1.6751,1.6751,1.7512,1.9322,1.8567,1.8255,1.8844,1.6281,1.4011,1.2951,1.2494,1.2498,1.2501,1.2501,1.2501,1.2501,1.2501,1.2501,1.2501,1.2501,1.2501,1.2501,1.2501,1.2501,1.2501,1.2501,1.2501,1.2501,1.2501,1.2501,1.2501,1.2501,1.2501,1.2501,1.2501,1.2501,1.2501,1.2501,1.2501,1.2501,1.2501,1.2501,1.2501,1.2501,1.2501,1.2501,1.2501,1.2501,1.2501,1.2501,1.2501,1.2501,1.2501,1.2501,1.2501,1.2501,1.2501,1.2501,1.2501,1.2501,1.2501,1.2501,1.2501,1.2501,1.2501,1.2501,1.2501,1.2501,1.2501,1.2501,1.2501,1.2501,1.2501,1.2501,1.2501,1.2501,1.2501,1.2501,1.2501,1.2501,1.2501,1.2501,1.2501,1.2501,1.2501,1.2501,1.1616,1.1647,1.184,1.2043,1.225,1.2427,1.2501,1.2501,1.2501,1.2501,1.2501,1.2501,1.2501,1.2501,1.2501,1.2501,1.2501,1.2501,1.2501,1.2501,1.2807,1.2501,1.2652,1.3414,1.4326,1.5387,1.6599,1.781,1.9478,2.0536,2.0686,1.8572,2.1141,2.0692,1.9779,1.9774,1.8869,1.5976,1.3692,1.2783,1.2642,1.2652,1.2501,1.2652,1.2652,1.2498,1.2498,1.2498,1.2501,1.2501,1.2501,1.2501,1.2501,1.2501,1.2501,1.2501,1.2501,1.2501,1.2501,1.2501,1.2501,1.2501,1.2501,1.2501,1.2501,1.2501,1.2501,1.2501,1.2501,1.2501,1.2501,1.2501,1.2501,1.2501,1.2501,1.2501,1.2501,1.2501,1.2501,1.2501,1.2501,1.2501,1.2501,1.2501,1.2501,1.2501,1.2501,1.2501,1.2501,1.2501,1.2501,1.2501,1.2501,1.2501,1.2501,1.2501,1.2501,1.2501,1.2501,1.2501,1.2501,1.2501,1.2501,1.2501,1.2501,1.2501,1.2501,1.2501,1.2501,1.2501,1.2501,1.2501,1.2501,1.2501,1.2501,1.163,1.1667,1.1955,1.223,1.2478,1.2498,1.2501,1.2501,1.2501,1.2501,1.2501,1.2501,1.2501,1.2501,1.2501,1.2501,1.2807,1.2958,1.3263,1.2804,1.3872,1.3872,1.433,1.4782,1.6299,1.6751,1.7962,1.9779,2.1751,2.2657,2.2049,1.9322,2.2509,2.2812,2.0841,2.1601,2.0841,1.8713,1.6416,1.5201,1.3861,1.3263,1.2954,1.3105,1.2947,1.2481,1.2488,1.2494,1.2501,1.2501,1.2501,1.2501,1.2501,1.2501,1.2501,1.2501,1.2501,1.2501,1.2501,1.2501,1.2501,1.2501,1.2501,1.2501,1.2501,1.2501,1.2501,1.2501,1.2501,1.2501,1.2501,1.2501,1.2501,1.2501,1.2501,1.2501,1.2501,1.2501,1.2501,1.2501,1.2501,1.2501,1.2501,1.2501,1.2501,1.2501,1.2501,1.2501,1.2501,1.2501,1.2501,1.2501,1.2501,1.2501,1.2501,1.2501,1.2501,1.2501,1.2501,1.2501,1.2501,1.2501,1.2501,1.2501,1.2501,1.2501,1.2501,1.2501,1.2501,1.2501,1.2501,1.2501,1.2501,1.2501,1.2501,1.1684,1.1806,1.2108,1.2342,1.2491,1.2501,1.2501,1.2501,1.2501,1.2501,1.2501,1.2501,1.2501,1.2501,1.2501,1.2501,1.2652,1.3414,1.4629,1.5085,1.5693,1.5994,1.6908,1.736,1.8567,1.993,2.0991,2.1751,2.3264,2.4179,2.4334,2.3264,2.4636,2.3568,2.2806,2.3568,2.2509,2.0836,2.0725,1.8869,1.735,1.7208,1.7056,1.5972,1.5044,1.3045,1.2751,1.2474,1.2488,1.2501,1.2501,1.2501,1.2501,1.2498,1.2498,1.2498,1.2481,1.2474,1.2471,1.2467,1.2467,1.2481,1.2484,1.2494,1.2501,1.2501,1.2501,1.2501,1.2501,1.2501,1.2501,1.2501,1.2501,1.2501,1.2501,1.2501,1.2501,1.2501,1.2501,1.2501,1.2501,1.2501,1.2501,1.2501,1.2501,1.2501,1.2501,1.2501,1.2501,1.2501,1.2501,1.2501,1.2501,1.2501,1.2501,1.2501,1.2501,1.2501,1.2501,1.2501,1.2505,1.2501,1.2501,1.2501,1.2501,1.2501,1.2501,1.2501,1.2501,1.2501,1.2501,1.2501,1.2501,1.2501,1.2501,1.1701,1.186,1.2159,1.2372,1.2488,1.2501,1.2501,1.2501,1.2501,1.2501,1.2501,1.2501,1.2501,1.2501,1.2501,1.2501,1.2652,1.3568,1.4475,1.5688,1.6904,1.7507,1.8416,1.9629,2.0236,2.1596,2.2664,2.3574,2.4482,2.4629,2.4629,2.4629,2.4629,2.4629,2.4629,2.4482,2.4025,2.3116,2.4142,2.3042,2.0697,1.9822,1.8153,1.6599,1.6015,1.4153,1.2751,1.2481,1.2488,1.2501,1.2501,1.2461,1.245,1.2587,1.2563,1.2536,1.2522,1.2536,1.2703,1.3027,1.3038,1.3209,1.2706,1.2845,1.2587,1.244,1.2484,1.2488,1.2498,1.2501,1.2501,1.2501,1.2501,1.2501,1.2501,1.2501,1.2501,1.2501,1.2501,1.2501,1.2501,1.2501,1.2501,1.2501,1.2501,1.2505,1.2505,1.2528,1.2522,1.2562,1.2545,1.2535,1.2559,1.2525,1.2501,1.2501,1.2501,1.2501,1.2535,1.2518,1.2525,1.2511,1.2501,1.2539,1.2542,1.2501,1.2501,1.2522,1.2508,1.2501,1.2501,1.2501,1.2501,1.2501,1.2501,1.1714,1.1894,1.2193,1.2386,1.2491,1.2501,1.2501,1.2501,1.2501,1.2501,1.2501,1.2501,1.2501,1.2501,1.2501,1.2501,1.2804,1.3718,1.4475,1.5841,1.6751,1.8718,2.0386,2.1291,2.2049,2.2657,2.3574,2.4031,2.4629,2.4629,2.4629,2.4629,2.4629,2.4629,2.4629,2.4629,2.4327,2.4179,2.4515,2.4649,2.3023,2.1256,1.9072,1.7902,1.7204,1.6613,1.4361,1.2786,1.2786,1.3087,1.3227,1.3187,1.3312,1.3446,1.3094,1.3217,1.5261,1.5278,1.5286,1.5646,1.532,1.4674,1.3991,1.4037,1.4298,1.3234,1.3281,1.3465,1.3479,1.2856,1.2856,1.2542,1.2542,1.2569,1.2569,1.2573,1.2573,1.2573,1.2573,1.2569,1.2569,1.2569,1.2569,1.2562,1.2559,1.2552,1.2552,1.2556,1.2586,1.2664,1.2698,1.2684,1.2531,1.2477,1.2559,1.2593,1.2623,1.2647,1.2681,1.261,1.2576,1.2644,1.2664,1.2623,1.2613,1.2613,1.2576,1.2576,1.2552,1.2532,1.2501,1.2501,1.2501,1.2501,1.2501,1.1779,1.2043,1.2338,1.2478,1.2501,1.2501,1.2501,1.2501,1.2501,1.2501,1.2501,1.2501,1.2501,1.2501,1.2501,1.2501,1.2807,1.3714,1.5994,1.781,1.8874,2.1147,2.2664,2.2961,2.3722,2.4179,2.4327,2.4482,2.4629,2.4629,2.4629,2.4629,2.4629,2.4629,2.4629,2.4629,2.4629,2.4629,2.4629,2.4629,2.4629,2.3264,2.2108,2.0579,1.888,1.8291,1.6761,1.4053,1.2949,1.3402,1.5459,1.5464,1.5307,1.562,1.5434,1.6054,1.8113,2.0136,2.0353,2.056,2.043,2.0742,2.0742,2.1128,1.9554,1.6104,1.6311,1.6823,1.6355,1.4598,1.4121,1.3009,1.2698,1.2776,1.281,1.2817,1.282,1.2982,1.2986,1.282,1.2655,1.282,1.3144,1.2979,1.2813,1.2807,1.2635,1.2638,1.2621,1.2658,1.2847,1.2834,1.2661,1.2615,1.2561,1.2796,1.2834,1.2847,1.2678,1.2779,1.2783,1.2861,1.2864,1.2786,1.279,1.281,1.2759,1.2524,1.2477,1.2454,1.2532,1.2501,1.2515,1.2528,1.2552]}]]